GFSSE_500_spd_000.txt.gz
Wind_Speed
21 20 21 21 21 22 22 20 18 16 15 16 18 18 17 19 17 18 16 16 17 18 17 17 14 13 13 11 13 14 15 14 15 16 16 16 19 22 23 21 19 17 17
22 22 21 20 21 21 18 17 15 14 13 14 16 17 17 17 17 17 15 16 16 17 18 17 17 16 16 15 16 15 15 16 16 17 16 15 16 18 18 15 14 13 12
21 19 19 18 18 16 16 15 14 14 13 13 13 16 17 17 17 17 15 16 14 16 16 15 18 18 20 19 17 17 17 17 17 17 17 16 16 15 17 16 14 14 13
22 19 18 17 13 13 14 15 15 16 16 15 13 13 14 16 16 15 15 16 16 18 18 19 20 20 22 21 21 20 20 18 16 16 17 18 17 17 16 17 18 18 16
20 18 17 14 12 12 13 14 14 15 16 14 13 12 12 14 16 16 17 17 18 19 20 20 20 21 23 23 23 23 21 19 17 16 18 20 20 18 20 19 19 20 21
20 17 15 12 12 13 13 13 13 16 17 16 15 13 13 13 17 19 20 20 22 22 23 23 23 23 23 23 23 23 22 20 18 17 19 22 23 24 25 24 25 26 26
17 15 13 11 12 14 14 13 13 13 14 14 14 16 14 15 15 18 21 22 23 24 24 24 23 22 23 22 22 23 22 21 22 21 23 26 29 30 31 30 30 31 30
18 14 11 11 13 14 12 12 14 13 14 14 15 16 17 18 18 19 21 21 21 21 21 21 21 22 21 21 22 24 23 23 25 26 28 30 33 35 35 35 34 34 36
18 13 13 13 14 13 13 11 12 12 12 13 15 16 17 19 21 22 24 23 23 23 23 24 23 24 25 26 28 28 30 31 33 33 35 36 36 36 40 41 42 41 42
19 15 15 14 15 14 12 12 11 10 12 13 14 15 17 19 21 23 24 25 26 25 26 27 28 29 30 31 31 32 34 35 37 37 39 40 41 41 45 46 46 47 48
21 17 18 16 16 15 13 11 10 11 13 15 16 17 19 19 19 21 23 24 26 28 29 29 30 30 31 32 34 35 37 39 40 41 42 44 46 46 44 42 42 43 45
22 20 21 19 17 16 15 13 14 16 18 19 18 18 20 20 20 20 21 22 24 26 27 27 28 30 32 34 36 38 41 42 43 44 45 45 40 38 36 36 36 37 37
25 23 23 21 19 17 15 15 17 18 21 23 24 23 21 21 21 22 22 24 25 27 28 29 31 33 35 36 39 42 43 43 41 36 34 35 35 35 35 34 34 36 37
25 23 24 21 21 19 18 17 19 20 22 25 28 28 27 25 24 25 26 27 29 30 32 33 34 36 37 38 39 39 38 37 34 33 33 34 36 37 38 39 40 40 41
24 23 22 21 21 22 23 24 25 28 30 29 31 31 32 30 28 28 29 30 32 33 34 34 35 36 37 37 37 37 35 34 34 35 35 37 38 39 40 42 43 44 44
24 22 22 22 23 23 22 24 26 30 31 30 31 32 33 33 32 32 33 34 36 36 35 36 35 35 36 36 35 35 35 36 36 38 38 40 39 40 40 40 41 44 46
22 23 23 22 24 24 26 29 30 32 32 32 34 33 32 32 33 34 36 38 37 35 32 31 31 31 32 33 34 34 35 36 37 39 39 40 40 39 40 43 45 47 49
23 21 22 24 24 25 27 32 30 33 34 36 33 31 31 31 33 35 37 36 32 31 30 30 30 31 33 34 34 35 34 36 38 39 41 42 42 44 46 46 48 51 53
24 21 22 22 24 26 28 29 33 36 39 33 30 32 33 34 36 37 37 34 32 31 32 32 33 33 33 35 35 36 37 38 40 41 42 45 47 49 51 53 55 57 59
26 22 22 24 27 27 29 33 36 39 33 30 32 32 33 36 38 39 38 37 37 36 34 34 34 36 37 38 38 39 41 43 45 46 48 50 52 54 57 60 63 64 67
27 26 26 27 29 31 33 35 38 34 33 33 34 35 36 37 39 40 40 38 37 37 37 38 38 38 40 43 43 43 44 46 49 53 57 59 61 63 65 68 70 71 72
28 28 27 27 30 33 35 36 34 33 33 33 36 35 38 40 42 43 39 37 38 39 40 41 42 42 44 46 48 51 52 53 57 59 61 63 63 65 67 69 71 73 75
28 28 29 30 32 35 38 35 30 32 37 38 37 39 41 43 42 39 38 40 41 41 42 43 45 47 49 51 55 61 64 66 67 63 63 65 67 69 71 73 76 79 81
30 29 30 31 34 37 35 31 32 36 38 38 40 42 43 42 41 40 40 40 41 42 44 47 50 52 55 58 61 64 66 70 73 72 70 72 74 75 76 79 81 84 87
29 30 31 32 33 34 34 35 36 38 39 40 42 42 41 41 40 41 40 41 43 47 50 52 54 57 61 63 65 67 69 71 74 78 77 78 79 81 83 86 88 90 91
30 31 31 32 34 36 37 39 40 40 40 41 42 42 40 40 39 40 42 44 48 50 52 55 58 61 63 66 68 71 73 76 78 80 82 82 84 86 89 91 95 95 98

GFSSE_500_spd_003.txt.gz
Wind_Speed
19 19 19 20 21 21 20 18 14 13 12 13 14 15 16 15 14 14 13 12 14 16 17 17 17 16 14 15 14 13 15 15 14 15 16 14 12 13 13 15 14 12 9
21 21 19 19 19 20 19 15 14 12 11 12 13 14 15 14 14 13 12 12 12 13 14 15 16 17 15 16 18 19 18 18 17 17 15 14 13 13 12 10 11 11 11
21 19 17 17 18 18 16 13 13 12 10 12 13 13 13 15 16 14 12 12 12 12 13 15 16 17 19 19 21 21 19 20 21 20 17 15 16 13 14 13 12 13 11
23 20 17 16 17 15 13 13 13 10 10 11 11 12 13 14 15 14 13 12 13 13 15 17 18 19 21 22 21 21 21 23 24 22 19 19 19 17 16 17 17 16 15
22 19 16 15 16 14 13 12 12 11 11 10 10 11 11 10 13 15 15 15 15 16 17 19 20 20 21 21 22 23 23 25 26 25 21 21 22 20 20 21 21 22 21
20 18 16 15 15 13 12 12 11 10 10 11 11 11 13 11 11 13 17 19 19 19 20 22 23 24 23 23 24 24 25 26 25 24 23 23 24 21 22 25 26 28 27
19 14 14 15 15 12 11 12 12 12 12 12 11 12 13 14 14 15 16 18 20 21 21 22 23 23 23 23 24 25 25 24 22 23 25 25 27 27 27 30 34 33 33
18 15 17 16 16 12 11 10 12 13 11 11 11 12 13 15 17 18 20 21 21 22 23 24 23 23 24 25 25 25 25 25 25 26 26 28 30 33 34 35 36 38 37
17 17 16 18 17 14 12 11 12 11 8 8 10 11 12 14 17 19 21 23 24 26 26 27 27 27 27 27 27 28 29 30 30 31 32 33 35 36 37 37 38 40 41
17 22 17 20 19 17 15 13 12 11 9 10 11 13 14 14 15 16 18 21 23 25 27 27 27 27 28 29 29 30 30 32 33 34 35 38 40 40 41 42 43 45 46
20 22 20 20 21 19 18 16 15 14 12 12 14 16 16 17 18 17 18 18 19 21 23 25 26 27 29 29 31 32 33 34 35 37 39 42 44 44 43 43 41 39 36
22 23 23 22 24 21 19 17 16 16 16 17 18 19 19 20 20 20 20 21 22 23 24 25 26 28 30 31 33 34 36 37 39 39 41 42 40 37 34 33 33 33 32
24 24 25 25 27 24 22 20 17 18 19 20 22 26 27 26 25 24 24 25 26 27 27 28 29 30 32 33 35 36 37 37 38 36 35 34 35 33 32 33 33 34 34
26 26 27 25 27 26 23 23 21 20 22 24 24 27 30 31 30 29 27 27 29 31 32 33 34 34 34 35 35 36 36 36 35 33 33 34 35 36 36 36 37 38 38
25 26 26 25 26 26 26 26 24 24 24 27 25 30 31 32 33 33 33 32 32 33 34 36 35 35 35 36 36 35 35 34 35 34 36 36 37 38 38 39 40 41 40
24 25 24 25 24 25 27 26 24 25 26 28 29 31 32 34 35 35 34 33 35 36 37 37 35 32 30 30 31 31 31 32 35 36 37 37 37 38 39 40 41 42 43
26 24 25 24 23 24 26 26 25 27 28 31 30 34 36 33 29 33 32 33 35 37 37 35 32 31 30 30 30 31 32 33 36 38 38 39 40 41 41 43 43 46 48
26 24 24 22 23 24 24 24 25 27 30 30 33 37 32 29 29 29 31 32 35 37 36 36 35 34 34 34 33 33 35 35 37 37 39 41 43 44 45 47 49 50 51
25 24 22 20 21 21 22 23 25 28 30 33 36 32 30 30 30 32 34 35 37 38 37 36 36 36 36 35 36 36 36 37 39 40 41 43 46 47 50 53 55 57 58
26 24 22 20 20 21 23 25 26 29 31 34 32 31 33 33 36 36 37 40 42 41 37 35 35 37 38 38 37 37 39 41 42 44 46 50 52 56 58 61 62 63 65
27 24 23 23 21 22 24 27 30 31 33 31 31 32 34 37 37 38 41 44 43 40 38 38 38 38 40 39 40 41 44 47 48 51 55 58 60 63 65 66 67 68 69
27 25 24 25 24 24 27 29 31 33 32 31 30 35 38 41 41 42 44 42 40 40 40 40 40 40 43 44 46 48 48 50 54 58 61 63 65 66 67 69 70 73 75
29 26 26 25 26 28 30 31 32 32 29 29 33 37 40 42 43 44 44 43 40 39 39 40 42 44 47 50 54 57 60 62 62 61 64 66 68 69 71 73 75 77 78
29 28 27 27 28 30 30 31 31 31 31 33 37 41 43 44 45 44 41 40 40 40 41 44 47 50 52 54 57 62 67 72 74 73 70 71 72 73 75 75 77 79 82
28 28 28 28 30 30 30 32 32 33 37 40 41 42 41 43 43 40 39 39 41 43 45 48 50 53 56 59 63 65 67 69 73 76 77 78 77 77 77 78 80 83 86
27 27 27 28 30 30 32 34 35 37 39 39 39 40 40 39 38 39 40 41 44 46 47 50 53 56 59 63 66 69 71 72 73 75 77 78 80 80 82 84 88 91 94

GFSSE_500_spd_006.txt.gz
Wind_Speed
16 17 17 17 17 17 18 18 15 11 9 9 9 10 12 11 13 13 13 14 14 15 16 17 17 17 17 17 18 19 19 19 18 19 17 18 18 15 13 11 9 10 10
19 20 20 18 17 16 17 17 13 12 11 9 9 8 10 11 13 14 14 15 14 14 15 14 15 16 18 18 19 20 22 22 22 22 21 21 19 17 16 14 12 10 10
19 20 21 19 18 16 17 15 13 12 11 10 9 10 8 10 13 16 17 16 15 14 15 14 14 15 17 19 21 23 24 24 24 24 24 24 22 19 19 17 17 16 13
20 19 20 18 18 17 17 15 12 12 12 10 9 8 9 10 12 14 18 18 16 15 15 16 17 17 18 19 22 24 26 27 26 28 28 28 25 23 22 23 23 21 19
22 19 17 17 18 18 17 13 11 12 11 12 11 10 11 11 9 13 17 19 18 18 18 19 20 21 22 22 23 24 26 29 30 30 31 29 27 26 25 24 25 23 23
20 18 17 18 19 19 15 11 11 11 11 11 12 13 13 14 12 12 14 18 22 23 23 24 24 25 26 27 28 28 28 28 30 30 29 28 28 28 28 28 27 27 28
17 17 18 18 19 19 14 11 11 11 12 12 13 13 14 15 15 17 17 17 19 21 23 24 24 24 25 27 29 29 28 28 28 28 27 26 28 31 31 32 33 33 33
17 18 19 20 20 19 16 13 12 11 12 11 12 12 14 15 16 17 20 21 22 23 24 25 26 27 27 28 27 27 28 29 29 30 30 29 29 31 33 35 37 38 38
16 16 19 22 22 21 18 15 14 13 11 10 9 9 10 10 11 14 17 20 22 23 25 27 28 29 29 30 29 30 30 31 32 33 34 35 35 37 38 39 39 41 42
18 18 21 23 23 22 21 18 16 14 12 13 10 11 14 13 14 13 14 15 17 19 21 23 25 27 29 31 31 32 33 34 34 35 36 37 38 40 40 41 42 45 46
17 20 23 26 25 25 24 21 18 17 16 14 12 13 15 16 18 19 18 18 19 20 21 22 23 25 27 29 31 32 33 35 35 36 38 39 40 42 42 42 43 43 41
21 21 22 28 28 26 25 23 22 20 20 18 15 17 19 21 23 22 22 23 24 24 26 27 27 28 29 31 32 33 34 36 37 38 39 40 40 39 37 35 35 33 32
21 22 23 26 30 28 26 24 25 21 20 20 21 24 27 31 31 31 30 27 28 29 30 31 32 33 34 35 36 36 36 36 37 37 37 38 37 37 36 34 34 35 36
27 23 23 24 29 27 27 28 25 24 24 24 23 26 28 29 29 31 34 33 32 32 33 33 35 37 37 37 37 37 37 37 36 36 36 35 35 36 37 38 39 40 40
27 26 26 22 25 27 29 29 27 28 28 26 25 26 27 27 30 32 35 36 36 34 34 34 36 37 36 35 34 33 32 33 33 34 34 35 36 38 39 41 41 42 43
27 28 27 26 24 23 25 26 28 31 30 28 28 28 29 30 31 32 32 29 30 33 33 33 36 37 35 33 33 32 33 34 35 36 37 38 39 39 41 42 42 44 46
27 28 26 27 25 23 22 24 26 31 29 28 29 29 29 32 31 27 27 26 27 30 33 34 37 38 36 35 34 35 36 37 37 38 40 41 41 41 43 45 46 47 49
26 26 24 25 24 23 23 23 22 26 26 26 28 29 31 32 26 25 26 28 31 33 35 37 40 40 38 35 35 36 38 39 40 41 42 43 44 45 46 47 48 50 51
27 25 23 23 24 23 21 20 22 23 24 26 26 29 30 26 25 28 30 34 35 37 40 42 43 42 38 37 38 39 40 40 41 42 44 45 47 48 50 53 55 58 61
27 27 23 21 23 24 21 20 21 23 25 26 28 31 30 29 30 33 35 38 39 41 42 43 44 43 39 38 39 40 40 41 43 44 47 50 52 54 58 61 63 65 67
28 27 23 20 25 26 22 20 21 24 26 28 30 30 30 29 32 35 38 40 42 42 42 43 42 41 40 39 39 41 43 45 47 50 53 56 59 62 65 67 69 70 71
28 26 25 23 24 27 24 22 24 26 27 29 28 27 29 31 35 38 42 43 43 44 44 40 36 37 40 41 42 44 45 48 52 55 57 60 63 65 67 69 70 72 73
29 28 27 25 24 26 26 26 28 28 28 26 26 28 32 36 39 42 43 43 43 39 36 37 39 40 43 47 48 51 53 54 55 56 59 63 65 66 67 68 70 71 73
28 29 29 27 26 27 28 29 30 29 28 29 30 33 37 39 40 41 43 41 38 37 39 41 43 44 46 48 53 58 63 66 68 67 65 65 66 67 67 67 69 72 74
28 29 28 29 28 29 31 32 31 29 30 31 34 38 40 40 41 41 40 38 39 40 42 44 47 49 51 54 56 60 64 67 71 74 74 71 66 64 66 70 74 77 81
29 28 28 28 29 30 33 33 30 31 32 34 38 40 39 40 40 39 38 40 41 42 44 46 49 52 55 58 61 65 68 70 70 70 71 71 74 75 76 77 81 86 89

GFSSE_500_spd_009.txt.gz
Wind_Speed
16 15 15 15 17 17 18 18 17 17 15 11 9 8 8 9 9 10 13 15 17 16 17 18 20 20 19 19 19 21 23 22 22 22 21 21 21 21 20 20 17 14 12
16 16 17 17 17 16 17 18 17 16 14 12 10 10 10 10 10 12 15 17 18 18 18 19 20 20 21 22 22 22 23 23 23 24 25 26 26 25 23 22 19 16 14
19 18 18 19 18 18 17 18 17 15 12 12 10 10 10 11 11 13 17 18 19 19 18 18 18 19 19 20 21 23 25 25 27 28 29 30 29 29 27 25 22 20 19
21 19 20 21 21 19 18 17 16 14 13 13 12 11 10 10 11 14 17 19 19 20 19 19 19 19 19 20 22 23 26 28 31 33 32 32 32 32 31 29 26 25 24
21 20 21 22 21 20 18 17 16 14 13 12 12 12 12 12 12 13 13 17 19 20 20 20 21 21 22 24 25 26 28 28 30 32 33 34 34 34 33 32 30 28 28
20 22 21 21 19 18 17 16 15 13 12 11 12 13 12 13 14 15 15 15 15 19 23 24 25 25 26 27 28 30 31 32 33 32 33 33 33 33 33 33 32 31 30
20 20 20 19 20 19 17 16 15 13 11 11 11 12 12 12 14 16 17 18 19 21 21 22 23 24 24 26 27 28 29 30 31 31 32 31 31 31 30 31 33 34 35
17 17 19 19 20 19 18 17 16 14 12 11 10 10 10 10 12 15 17 18 20 22 23 26 26 28 27 29 30 31 31 32 32 32 33 33 33 33 34 33 34 36 37
15 15 17 19 21 21 21 19 17 16 15 13 11 9 8 7 8 10 12 15 16 19 22 25 26 28 29 30 32 33 34 35 36 36 35 35 36 36 37 38 39 41 43
15 17 19 21 22 23 22 21 19 19 17 15 15 12 11 12 11 14 16 18 18 19 21 21 23 24 25 26 29 31 34 36 37 38 39 38 38 38 39 40 41 42 43
17 18 17 20 23 24 23 23 22 23 19 18 17 15 14 13 15 18 20 22 22 22 23 24 25 26 28 29 30 31 33 35 37 37 38 39 38 39 40 42 42 44 43
20 21 20 21 22 25 27 25 26 25 23 21 19 18 17 18 21 26 29 31 30 28 28 28 29 30 31 33 34 36 38 38 39 39 39 40 41 40 40 40 40 39 37
23 21 22 23 23 24 28 28 26 26 26 24 22 20 22 23 26 29 32 31 32 33 33 33 32 33 34 35 36 38 38 37 38 39 40 40 41 41 40 39 38 38 37
23 23 24 26 25 25 23 27 27 27 27 27 23 23 23 25 29 32 33 34 36 36 36 35 33 33 35 37 38 39 38 37 36 36 37 38 38 39 39 39 40 40 40
22 26 28 26 26 23 22 23 25 26 27 28 27 26 25 28 28 31 32 32 33 32 31 28 30 31 33 34 36 37 36 35 35 35 36 37 38 38 39 40 41 42 43
23 25 28 27 27 25 24 22 23 24 25 28 30 27 28 30 30 31 33 32 27 26 25 27 29 31 33 36 38 39 38 37 36 37 37 38 39 40 41 42 43 43 44
23 28 28 28 26 26 24 22 22 22 23 25 27 27 28 30 30 31 31 26 24 26 29 31 32 34 37 39 39 39 38 37 38 38 39 40 41 43 44 44 44 45 46
26 28 30 27 24 25 24 24 22 21 21 22 23 25 28 30 29 31 27 25 27 30 33 36 38 39 40 41 43 43 40 39 40 41 42 43 43 44 45 46 48 49 50
27 28 29 28 24 24 25 25 23 21 20 20 23 24 27 28 31 31 30 28 31 35 37 38 40 42 43 43 45 44 40 39 41 42 43 44 46 47 48 50 52 54 56
28 28 28 27 24 23 26 26 24 22 20 21 24 27 28 29 31 32 29 30 34 37 40 44 45 44 43 42 40 40 39 39 42 44 46 48 50 52 55 57 59 61 63
29 30 28 28 25 24 26 28 25 22 21 23 24 27 29 30 26 27 30 33 37 41 43 43 46 44 36 32 34 38 40 42 44 46 49 53 55 57 60 62 64 66 67
29 30 31 28 28 27 26 27 26 24 24 24 26 28 28 26 26 29 33 37 40 41 43 45 42 37 37 37 39 40 41 45 48 51 54 56 60 61 64 67 68 68 68
30 27 31 31 29 27 24 28 30 28 28 28 30 30 30 31 30 34 38 40 41 44 45 42 38 39 41 43 43 45 46 47 50 52 56 60 63 65 66 67 65 64 64
33 30 30 33 31 28 27 27 29 31 31 32 33 32 34 34 35 38 41 41 43 45 43 40 40 42 43 45 50 52 55 58 58 57 55 61 63 63 63 62 63 65 68
33 33 31 32 31 29 28 28 30 32 34 35 36 36 37 37 39 41 42 42 43 43 41 42 43 45 47 49 52 56 58 62 66 67 64 64 60 58 59 62 65 69 74
32 32 30 29 29 28 31 32 32 34 36 37 38 39 39 41 42 41 42 42 41 41 42 44 46 49 51 55 58 60 63 66 67 70 70 69 69 65 66 69 73 78 83

GFSSE_500_spd_012.txt.gz
Wind_Speed
15 15 14 13 14 14 15 17 18 17 17 16 14 11 10 10 11 11 13 12 14 15 16 18 19 20 21 22 22 22 21 21 23 24 24 23 22 22 22 23 22 21 19
14 15 17 16 16 16 15 16 17 18 16 14 13 12 10 10 11 13 12 13 14 15 17 18 19 20 22 23 23 24 24 23 23 24 24 26 26 26 27 27 25 23 22
14 16 17 18 17 16 17 16 16 16 16 14 11 11 10 10 11 12 13 14 15 17 17 18 18 18 19 19 20 21 22 24 25 25 26 28 30 31 30 30 28 26 26
18 16 18 20 18 17 17 16 16 15 13 12 10 9 9 10 11 9 12 13 16 17 18 18 18 18 19 19 20 21 22 25 26 27 28 30 32 34 33 32 32 30 30
19 18 19 20 20 19 16 15 15 14 12 12 10 9 8 10 11 11 12 11 11 14 18 19 20 20 21 21 23 24 25 28 29 30 31 32 33 33 34 35 34 33 33
19 19 21 21 21 17 16 15 14 14 12 11 10 10 9 10 12 12 13 14 15 15 15 16 19 22 25 25 25 27 27 27 28 29 30 31 32 32 32 32 33 32 33
21 20 22 22 20 17 15 15 15 14 13 11 11 9 9 9 11 12 14 16 17 18 20 21 23 24 25 26 27 27 29 29 30 30 30 30 31 31 31 32 32 31 30
20 20 21 20 20 18 17 17 16 16 15 13 11 9 8 8 9 10 10 12 15 18 20 21 23 26 27 29 30 31 31 33 34 34 34 34 34 34 34 34 34 35 35
19 19 19 19 20 20 19 19 18 18 17 15 12 12 9 8 8 8 10 11 12 15 17 18 20 21 23 24 25 26 28 30 31 33 35 36 37 37 37 38 37 37 38
18 18 19 19 19 20 20 21 21 20 19 17 15 14 13 12 11 13 15 16 17 19 21 22 23 24 25 27 27 28 29 30 32 32 33 34 35 36 37 37 38 39 39
18 19 21 19 16 18 20 21 21 21 21 20 18 17 17 14 14 15 18 20 24 28 29 28 28 28 30 30 30 31 32 33 35 36 38 39 38 38 38 39 39 40 41
20 21 21 22 20 19 20 21 24 23 24 24 23 21 19 18 17 19 22 25 28 31 32 33 33 32 34 34 33 33 34 34 34 35 37 36 37 39 41 42 41 40 41
25 22 24 25 24 24 22 21 22 25 25 26 27 25 22 21 20 21 24 28 31 33 34 36 36 35 36 34 35 33 33 34 34 34 34 33 33 34 35 37 37 36 36
28 25 25 25 27 27 24 21 20 22 26 26 28 28 26 22 22 23 26 29 33 34 33 31 26 26 25 28 31 32 33 35 35 36 36 35 34 35 34 35 35 36 37
25 27 28 29 30 30 27 22 21 19 23 24 27 28 27 25 26 26 29 31 32 33 30 25 22 25 27 29 30 32 35 36 37 37 37 37 36 36 36 37 37 39 40
26 28 29 29 32 31 29 24 23 21 21 21 23 26 26 26 26 29 30 31 32 31 26 25 25 28 31 33 35 36 37 39 40 40 38 37 37 37 38 40 40 42 42
28 30 29 29 31 31 29 26 24 24 21 21 22 23 23 25 26 27 28 31 32 29 27 27 28 32 35 38 40 42 44 43 42 40 39 38 38 39 40 41 43 44 44
29 29 30 29 30 30 28 25 27 27 22 22 21 20 22 23 25 26 30 31 32 31 30 29 32 35 38 42 45 44 44 45 43 39 37 38 39 40 41 43 44 45 46
33 31 30 31 31 29 27 26 27 27 25 23 21 21 22 23 24 26 30 32 32 30 30 32 34 39 42 42 44 42 40 36 35 36 37 39 41 42 44 46 48 50 52
35 33 31 32 31 29 28 27 27 28 27 23 21 22 22 24 26 29 32 32 27 29 32 35 38 39 39 41 39 34 33 36 38 40 41 43 44 46 48 51 53 54 56
34 35 33 33 31 27 29 29 28 29 28 24 23 23 24 25 28 29 29 27 29 32 35 38 39 40 41 40 35 37 38 40 41 42 44 46 50 52 54 56 57 58 61
36 35 34 33 33 30 29 29 27 27 27 27 25 26 26 27 29 30 31 32 33 35 40 40 40 42 43 39 37 37 40 43 46 48 49 51 54 55 58 60 62 64 65
38 36 36 34 35 35 30 28 27 27 30 29 28 29 30 31 32 34 35 37 38 40 42 41 42 44 43 41 40 41 43 44 45 46 51 56 57 60 63 64 65 65 65
39 36 37 36 35 36 32 28 29 29 29 31 31 33 34 35 36 37 39 41 42 44 42 43 44 43 41 43 45 48 50 53 54 54 52 56 60 61 63 63 62 62 64
40 37 38 39 36 33 34 31 32 32 31 31 33 36 37 38 40 41 43 44 46 44 43 45 44 41 43 46 49 51 55 58 62 64 62 59 60 63 61 61 62 64 66
40 38 38 39 38 35 32 33 35 34 32 33 35 37 38 40 43 43 45 46 45 43 44 44 43 45 47 51 54 57 60 64 66 67 64 64 65 65 64 63 64 68 72

GFSSE_500_spd_015.txt.gz
Wind_Speed
14 14 14 14 13 13 12 12 12 12 12 12 10 9 8 8 7 6 7 9 10 12 13 15 16 18 19 20 20 20 20 20 21 21 21 22 23 23 22 22 22 22 20
15 14 16 17 15 14 14 14 14 14 13 12 10 9 9 8 7 7 8 9 11 12 13 15 16 18 18 19 20 20 20 21 22 23 22 23 24 24 24 25 25 26 24
16 16 17 17 16 14 14 15 15 14 13 12 11 9 8 7 7 7 10 9 12 12 14 15 17 18 17 17 17 17 17 18 19 22 23 24 25 26 27 28 29 28 28
16 18 17 17 15 15 15 16 16 14 12 10 10 10 9 7 8 9 9 8 10 13 16 16 17 17 17 17 18 19 19 20 22 23 24 25 26 27 28 29 30 30 30
18 19 18 17 16 15 16 16 15 13 11 10 10 10 10 8 8 10 12 12 10 9 9 13 16 18 18 20 21 23 23 24 26 27 27 29 29 29 30 30 31 30 30
24 23 20 19 17 16 16 16 14 13 11 11 10 10 10 9 8 9 11 13 14 14 14 15 16 17 18 18 21 22 23 25 25 26 27 28 28 27 28 29 29 30 29
25 25 23 21 19 16 16 16 14 14 12 11 11 11 10 10 10 10 10 11 12 13 15 17 19 20 22 22 23 25 26 27 29 30 31 32 32 31 32 32 32 32 31
24 24 24 22 21 18 16 17 16 15 13 13 13 12 11 11 11 10 10 8 8 8 10 13 15 17 20 21 23 24 24 24 26 27 29 30 31 32 33 34 33 34 34
23 24 23 22 21 19 18 19 19 17 16 16 15 14 13 12 12 11 10 11 12 13 14 16 17 19 19 20 22 23 24 25 25 26 28 29 30 31 33 33 34 34 35
22 22 22 22 22 20 18 18 20 19 19 18 17 17 15 16 16 14 14 13 14 18 21 22 26 27 27 27 27 27 26 26 27 27 28 31 33 34 35 37 36 36 35
23 24 23 24 24 21 20 18 19 21 21 20 20 19 18 19 19 18 17 17 18 21 24 26 27 29 30 28 28 29 29 29 30 31 31 31 32 34 35 36 36 37 37
25 26 25 26 26 23 21 21 20 19 22 23 23 23 22 21 22 22 20 20 20 23 27 27 30 32 30 28 29 28 29 29 31 30 30 31 32 32 33 33 33 33 35
28 28 28 28 28 25 25 24 23 22 22 26 25 25 25 26 24 24 21 20 20 25 27 30 32 27 20 18 19 20 22 24 27 29 29 31 31 31 31 31 31 31 31
28 30 30 30 29 28 28 27 26 23 24 24 28 26 26 27 27 25 22 21 23 27 28 30 30 23 18 20 22 23 24 26 29 31 33 35 36 35 34 34 34 35 33
27 30 31 34 34 33 30 30 28 25 25 24 26 27 24 28 28 25 25 24 26 28 30 30 28 23 22 23 25 27 30 32 35 37 38 38 37 37 36 35 35 35 37
30 29 31 31 33 34 33 33 31 27 26 26 26 26 25 25 26 24 25 26 28 29 30 30 28 25 26 28 29 33 35 38 41 41 42 41 39 38 36 36 37 37 38
30 31 32 33 33 32 33 35 33 30 29 27 28 26 25 24 24 23 25 26 28 30 30 31 30 29 29 31 33 36 40 40 41 41 41 38 35 34 34 36 38 39 40
33 33 34 34 31 33 35 35 34 34 30 28 29 26 25 23 23 24 26 26 28 31 32 32 30 30 31 34 36 40 40 41 40 35 31 32 34 35 37 39 40 41 42
42 37 35 35 33 32 36 36 34 32 30 28 29 29 25 24 24 25 25 26 29 32 33 31 29 29 32 36 39 39 41 40 36 33 34 37 38 40 41 43 44 45 47
36 41 40 36 36 34 36 38 35 33 29 29 29 30 26 26 26 26 26 29 30 32 31 29 30 32 35 40 40 40 41 39 37 36 38 41 42 44 46 49 51 53 54
33 37 42 39 38 37 39 39 35 33 30 29 29 28 28 29 28 28 29 29 30 31 30 32 34 35 38 39 41 42 41 39 38 39 42 44 48 49 51 54 55 57 58
36 36 40 41 39 39 38 39 33 32 30 28 28 30 32 30 30 30 30 30 32 33 34 36 39 40 41 40 41 40 41 41 41 43 45 48 51 53 56 59 60 62 63
37 37 37 41 39 38 38 36 33 31 31 29 29 32 33 32 33 33 33 33 35 36 38 40 43 45 44 42 42 43 41 40 41 44 48 52 55 58 61 64 65 64 65
37 38 36 40 41 39 37 34 35 34 32 32 30 32 35 36 36 37 37 37 38 40 42 44 47 47 46 45 44 43 44 46 48 48 48 51 55 59 63 63 65 66 66
41 39 38 39 43 40 37 34 34 36 34 32 33 34 36 37 38 39 39 40 41 43 45 48 49 49 47 45 44 46 49 51 55 57 57 57 60 61 63 66 66 65 65
41 42 40 37 41 42 38 36 36 36 37 35 35 36 38 37 38 40 40 42 43 46 49 50 49 48 47 46 47 50 53 55 57 61 64 64 63 63 66 67 65 65 67

GFSSE_500_spd_018.txt.gz
Wind_Speed
17 16 15 16 17 15 13 12 11 11 11 11 10 10 11 10 9 8 8 7 9 11 12 13 14 14 16 16 16 17 18 19 20 20 21 21 21 21 22 23 23 22 22
18 17 17 16 17 18 17 14 13 13 13 12 11 10 10 11 10 9 9 9 9 12 14 15 15 16 17 17 17 18 18 18 19 20 21 22 22 22 23 24 25 26 26
19 18 19 20 19 18 18 16 15 14 15 14 11 10 10 10 11 10 11 11 13 14 14 16 16 17 17 18 19 17 16 16 18 17 19 20 21 22 24 25 27 28 29
18 18 19 20 20 18 17 16 16 16 15 14 12 11 10 11 12 12 12 12 13 15 17 18 18 19 19 18 18 18 18 19 19 20 21 23 24 25 26 28 28 29 31
20 20 19 19 21 20 19 17 17 17 15 14 13 12 11 11 12 12 12 13 14 13 12 12 13 15 16 18 19 20 22 23 24 23 23 24 23 24 24 25 26 26 28
24 24 22 23 21 21 19 18 17 17 16 14 14 13 13 12 13 13 12 13 14 15 16 16 16 16 16 18 19 20 21 22 23 23 24 25 26 27 28 28 28 29 30
25 26 26 27 27 22 19 18 17 16 16 16 15 15 14 13 13 12 12 13 13 14 15 16 16 17 18 19 20 21 22 24 25 24 25 26 26 28 29 29 30 31 31
25 26 24 25 26 24 20 18 18 18 17 17 16 16 16 15 14 14 14 13 12 11 10 10 11 13 14 15 17 18 20 21 21 22 22 23 24 26 28 28 29 31 31
25 26 27 26 26 24 21 20 20 19 18 19 18 18 18 17 17 15 14 13 12 12 13 15 18 21 21 24 24 24 23 23 24 24 24 26 25 27 29 30 32 33 34
27 25 27 28 25 25 22 21 20 20 19 19 20 20 20 20 20 19 18 17 16 16 16 18 21 23 24 25 27 27 28 29 28 26 27 28 29 29 29 29 31 33 35
27 26 28 30 27 25 25 23 21 20 21 21 21 22 23 23 22 21 21 20 20 19 19 20 24 24 24 28 27 25 25 26 28 26 27 29 30 30 32 32 32 34 34
28 28 28 30 27 29 27 24 24 21 20 20 22 24 24 25 25 23 24 24 23 22 21 21 24 26 27 23 16 14 15 18 21 22 26 25 27 28 29 30 32 33 32
32 29 29 32 33 29 32 30 28 25 23 22 22 26 27 28 28 28 27 27 28 24 23 23 26 27 27 24 17 16 18 20 22 22 26 28 31 32 32 33 34 33 32
34 32 32 34 36 31 29 34 30 28 27 26 25 26 30 31 30 30 30 30 29 27 25 25 27 29 29 24 21 21 22 23 26 28 30 33 37 38 37 37 38 37 35
35 35 33 34 36 37 39 36 33 30 30 28 28 29 29 32 31 30 31 31 30 29 27 26 29 31 30 27 26 26 27 28 30 32 36 37 39 40 39 38 37 38 37
36 35 35 34 33 36 37 38 36 34 34 33 29 29 30 30 30 29 30 30 30 28 28 30 30 31 31 30 30 30 31 32 33 37 36 39 39 39 35 32 31 33 34
38 37 35 34 34 35 37 36 35 36 37 35 31 29 30 31 31 30 31 31 30 30 29 30 31 32 32 33 32 33 33 35 37 36 39 40 38 33 31 33 34 35 37
41 40 36 35 35 37 36 35 35 37 38 37 33 32 32 33 33 31 31 31 32 31 31 31 32 34 36 34 32 33 35 37 39 38 40 39 36 36 36 37 39 40 42
40 43 43 39 38 38 37 35 35 38 39 37 35 34 33 34 35 32 33 32 33 32 31 32 32 36 36 32 34 35 37 40 39 40 40 40 38 39 40 41 43 45 47
41 41 44 43 43 43 40 36 36 37 39 36 36 35 34 34 36 35 34 34 32 32 32 33 32 33 32 34 36 38 41 42 41 42 43 42 41 42 44 46 48 51 52
43 43 40 42 47 47 43 41 38 39 39 37 35 35 34 33 35 37 35 34 33 34 34 33 33 35 35 38 40 41 43 44 44 44 44 44 45 46 48 51 53 55 56
44 46 41 39 45 49 45 42 41 40 40 37 35 35 35 34 37 38 36 36 36 35 36 36 35 37 39 41 43 46 48 47 47 47 46 47 49 50 53 56 57 59 61
46 47 44 41 44 44 46 44 41 41 39 35 35 35 36 35 36 39 39 38 38 38 39 39 39 41 42 44 46 47 48 48 47 48 48 50 53 55 58 60 62 64 67
43 46 44 41 46 42 43 45 41 40 36 36 36 35 37 36 35 38 40 40 41 42 42 43 43 45 46 48 49 50 52 51 49 47 47 51 55 58 61 63 66 69 70
47 45 43 42 45 43 43 43 41 38 35 35 37 37 37 37 37 37 40 42 43 44 45 46 47 48 49 50 51 52 51 51 52 51 52 55 58 60 61 65 69 68 71
49 47 43 43 44 43 42 41 42 40 37 37 35 38 40 39 38 39 40 41 43 45 46 48 49 50 50 52 54 52 52 51 53 56 59 60 62 62 65 65 68 71 72

GFSSE_500_spd_021.txt.gz
Wind_Speed
21 18 19 18 19 20 19 18 17 16 15 14 14 14 14 13 13 13 12 10 10 11 12 12 13 15 14 14 15 16 15 16 17 17 18 18 19 20 20 21 22 22 23
21 20 19 19 19 20 22 21 19 18 17 16 15 15 14 14 15 15 13 11 11 12 13 14 15 15 16 16 16 16 16 17 17 17 17 19 19 21 22 22 22 24 24
22 21 19 20 20 20 21 21 22 21 19 18 17 15 15 15 15 14 14 13 13 15 15 15 17 17 17 17 17 18 18 17 17 17 17 18 18 19 21 22 23 25 25
24 23 21 20 21 21 21 21 21 20 19 18 18 17 15 15 14 15 15 15 15 16 17 18 18 19 19 19 19 19 19 18 18 19 20 21 22 23 24 25 25 26 26
23 24 21 19 20 22 22 21 20 20 20 19 18 17 16 15 14 15 16 17 17 17 16 15 16 17 16 16 16 17 18 19 20 21 22 22 23 24 23 24 24 25 26
21 22 25 24 23 22 22 23 22 21 20 19 19 17 16 16 16 16 17 16 16 17 18 18 17 18 18 17 18 19 20 21 22 23 24 24 25 26 26 26 28 28 28
26 27 27 28 26 27 24 24 24 22 20 20 20 19 17 16 17 17 17 16 16 16 17 17 17 17 17 17 17 17 18 20 20 21 22 23 23 24 23 24 25 25 28
27 27 28 27 26 27 25 23 24 24 21 20 20 20 19 18 17 17 18 17 16 16 16 15 15 13 14 14 17 19 20 22 23 24 24 23 24 24 24 25 27 27 29
29 29 28 26 26 28 26 22 23 23 22 21 21 21 21 20 19 19 19 19 17 16 15 15 16 17 19 21 24 27 29 30 28 27 27 26 26 25 25 25 26 27 28
28 29 27 27 27 28 29 23 22 23 21 21 21 22 24 22 22 21 20 19 19 19 19 20 20 21 21 24 25 27 30 30 29 29 29 30 28 27 29 30 31 32 30
30 28 29 28 27 27 28 28 24 24 22 22 22 23 24 25 24 24 23 22 23 23 23 23 23 22 22 24 25 25 23 19 22 26 26 27 27 28 27 28 31 31 30
33 31 30 30 28 29 28 29 27 26 26 22 21 22 23 25 26 27 26 26 26 27 28 27 26 25 24 26 25 24 19 16 16 17 19 20 22 24 26 30 31 31 32
36 33 32 32 32 31 31 29 30 31 30 27 25 23 24 26 27 28 29 30 30 30 31 31 29 27 27 28 27 27 25 22 20 21 23 24 26 27 30 33 34 35 36
38 36 35 35 34 34 33 32 34 33 33 30 29 28 28 28 29 30 32 33 34 35 32 31 31 30 29 30 29 29 28 28 26 26 27 27 30 32 33 35 36 36 36
40 39 38 37 35 36 35 35 34 34 30 32 33 32 31 31 30 29 32 34 35 36 35 34 35 33 31 32 30 31 30 31 31 30 30 31 35 34 36 37 37 35 32
39 41 40 38 37 37 36 36 36 38 38 37 36 36 35 34 31 29 30 32 35 35 36 36 35 33 32 34 33 32 33 33 34 34 34 34 36 36 38 38 36 33 32
36 41 41 38 38 38 37 35 37 36 38 37 37 37 36 34 33 32 31 33 36 36 36 36 36 35 34 34 35 35 36 36 34 35 36 37 38 38 39 39 37 36 36
36 36 41 42 39 38 39 38 37 36 36 36 37 36 36 35 34 34 34 36 37 37 36 37 37 36 36 36 36 37 39 34 34 35 38 40 40 40 41 42 40 39 40
36 36 37 41 43 41 38 40 38 37 37 34 34 37 37 35 35 37 37 37 38 38 38 38 37 37 36 36 35 34 34 34 36 38 40 40 42 43 43 43 43 42 43
38 38 41 38 42 44 44 43 40 39 37 36 36 37 37 36 36 39 39 37 39 40 39 39 38 38 37 36 35 35 36 37 39 40 42 43 45 46 46 46 45 46 46
40 39 40 42 40 42 45 47 45 44 42 39 39 39 37 36 37 40 39 38 40 41 40 39 40 39 39 38 37 37 40 42 43 44 45 47 48 49 49 49 49 49 51
47 43 42 44 45 44 42 45 50 49 46 44 42 41 38 36 37 39 39 39 40 41 42 42 42 41 41 41 41 41 43 46 48 49 50 51 53 51 52 52 52 54 57
54 48 46 44 48 45 42 45 45 47 49 45 41 42 41 39 38 38 39 40 41 41 43 44 44 44 44 46 46 46 48 49 49 51 52 53 54 54 55 54 56 60 62
50 54 52 47 50 50 43 43 46 46 45 42 42 41 40 40 38 36 38 40 41 41 44 45 47 47 48 48 47 49 51 52 52 51 52 53 53 55 56 58 61 64 67
49 52 53 51 47 51 42 42 48 45 41 39 41 41 39 39 40 38 38 41 43 43 43 45 48 48 49 50 50 51 52 53 55 55 53 54 56 57 58 61 62 64 66
52 51 54 53 48 48 43 45 47 44 42 41 41 40 40 39 38 40 42 42 44 45 46 47 48 49 49 51 52 52 53 54 55 56 57 56 56 58 62 66 66 66 67

GFSSE_500_spd_024.txt.gz
Wind_Speed
17 21 21 21 20 19 20 21 22 20 18 17 17 16 15 16 16 15 15 14 14 13 13 12 13 13 13 13 13 13 14 15 15 15 16 18 18 18 19 20 20 21 21
20 21 20 20 20 20 19 21 22 21 21 19 18 17 17 17 16 17 17 16 14 13 13 13 15 14 14 14 14 14 15 16 16 16 16 17 18 20 21 21 20 21 22
22 21 20 19 20 21 21 21 23 23 23 22 21 20 19 19 18 18 18 17 16 15 15 15 16 15 15 16 15 16 16 17 17 16 16 17 18 19 20 20 22 23 23
22 23 22 20 21 22 23 22 22 22 23 24 23 21 20 19 19 18 18 18 17 16 15 16 17 17 17 17 17 18 19 19 19 19 19 20 20 21 22 23 23 24 23
23 23 23 21 21 21 23 22 23 22 22 23 23 22 21 20 19 18 19 18 18 18 17 17 17 17 16 15 15 16 16 17 18 19 20 21 21 22 22 23 24 25 25
22 23 24 24 23 23 23 23 23 23 23 23 24 24 23 21 20 19 18 18 18 18 17 18 18 19 18 18 19 19 19 20 21 22 24 24 25 25 26 25 25 26 25
23 25 25 25 26 25 24 24 24 25 24 24 25 25 23 22 21 20 18 17 17 18 17 17 17 18 17 17 17 17 17 18 20 21 22 23 25 22 22 22 23 24 24
24 25 27 27 26 26 25 24 23 24 25 24 25 24 24 22 21 20 19 19 18 18 17 16 17 17 16 15 16 18 21 24 25 27 25 27 26 25 23 23 25 24 24
28 25 28 27 27 26 27 25 24 22 23 23 24 24 24 23 22 21 19 19 19 18 18 17 17 17 17 18 21 23 25 28 30 32 31 32 30 28 26 26 26 25 27
28 28 27 28 28 26 26 26 24 22 22 22 22 23 24 24 24 24 22 21 20 19 20 20 20 20 21 22 23 25 26 28 26 25 27 29 29 29 27 29 28 30 30
30 31 28 28 27 28 25 26 24 23 22 21 21 23 23 25 25 25 26 25 24 23 23 24 25 24 25 26 25 26 27 25 22 17 17 18 23 25 26 27 25 27 28
33 33 33 29 28 28 27 28 27 26 26 25 23 22 22 22 22 25 26 28 27 26 27 27 29 30 29 28 27 27 28 27 25 23 22 19 20 19 22 23 26 28 30
36 35 34 35 32 30 30 29 29 28 29 29 26 25 24 25 25 25 24 27 30 30 30 30 31 33 32 32 29 28 30 29 26 28 27 24 24 24 26 26 28 29 31
37 39 36 37 37 34 33 31 30 30 30 30 30 29 28 28 29 29 28 28 29 32 33 34 34 35 34 34 34 33 31 32 29 28 31 31 30 29 28 30 30 32 34
35 34 37 41 40 41 36 34 32 32 30 32 31 33 30 30 31 30 30 29 28 30 31 33 34 35 37 36 37 35 33 33 32 30 31 34 35 33 32 32 32 34 35
34 34 36 39 42 42 38 36 34 33 32 31 32 36 35 34 34 33 30 31 30 30 30 32 33 34 35 36 36 36 36 34 34 33 34 35 36 34 34 34 34 35 35
31 35 37 36 38 40 40 38 36 33 35 32 33 36 37 35 36 36 33 32 31 32 32 33 35 35 35 35 36 38 37 35 35 35 35 33 33 33 34 34 35 35 37
31 35 34 33 33 34 38 40 37 35 36 33 34 35 34 33 35 34 34 33 34 35 35 36 36 36 36 36 36 37 37 35 34 33 33 32 33 35 36 35 36 38 40
34 34 35 31 28 33 35 39 39 38 38 35 35 34 32 34 35 35 35 34 34 36 37 37 38 37 37 37 37 37 36 35 35 34 33 35 35 37 37 40 41 41 43
37 37 38 37 30 35 33 38 37 40 41 37 34 33 35 36 37 36 35 36 36 37 38 38 39 38 38 38 38 38 37 36 35 36 37 39 40 42 42 43 44 46 45
39 41 44 40 36 36 36 36 37 39 42 43 40 39 37 37 38 38 37 38 39 38 39 39 39 40 40 40 41 41 40 41 40 40 41 41 43 44 47 48 48 49 49
36 42 45 47 43 37 40 39 37 39 40 39 41 43 42 40 40 41 41 39 39 39 40 39 40 40 41 43 43 44 44 45 48 49 47 46 47 47 47 49 51 52 53
41 42 46 50 49 47 41 44 35 39 40 41 41 41 42 42 39 39 40 40 40 40 40 40 41 41 43 44 46 47 48 49 49 48 49 50 50 50 51 52 52 55 58
45 42 43 48 52 54 48 46 43 41 42 43 44 40 40 39 37 37 39 40 41 40 40 41 42 43 43 45 47 49 51 51 50 50 50 50 50 51 53 53 55 58 59
49 46 44 46 48 52 51 49 48 44 44 44 44 41 40 40 39 38 39 39 40 41 42 42 42 43 46 47 49 50 51 53 52 52 49 50 52 53 54 56 57 57 59
57 56 53 49 48 48 47 50 50 48 44 45 44 44 41 40 39 38 39 39 40 40 41 43 44 46 48 50 51 51 51 52 52 51 50 50 50 51 54 56 58 61 65

GFSSE_500_spd_027.txt.gz
Wind_Speed
16 19 21 21 21 21 21 20 19 20 19 18 18 18 16 17 17 16 16 16 16 15 15 14 15 14 13 14 13 14 15 15 15 15 15 16 17 18 19 20 20 21 21
18 19 20 19 19 20 20 19 19 20 21 20 20 19 18 18 18 19 18 18 17 16 15 15 15 14 14 15 15 15 16 16 15 15 16 15 16 17 18 19 19 20 20
21 20 19 19 18 20 21 21 20 20 21 22 22 23 22 22 21 21 20 19 18 18 17 16 16 15 16 15 16 16 16 16 16 17 17 18 18 19 19 20 20 20 22
20 20 19 19 20 20 21 22 22 22 21 22 23 24 24 24 23 22 21 20 19 19 18 17 16 16 17 18 18 18 18 19 19 20 18 22 22 22 22 23 24 25 25
21 19 19 20 21 22 22 22 23 24 24 24 24 23 24 24 24 23 22 21 20 20 20 19 17 16 16 16 17 17 17 18 19 19 20 21 23 23 23 23 25 26 25
21 21 21 22 22 21 23 22 22 24 24 24 24 24 24 25 24 24 23 22 22 22 21 20 19 19 19 19 20 20 20 20 20 20 22 23 24 24 24 25 27 26 25
24 24 23 24 23 24 24 24 24 24 25 25 25 26 25 26 27 26 24 23 22 21 20 19 19 19 19 18 18 17 16 18 19 20 23 25 25 24 25 26 25 24 25
25 27 25 24 24 25 25 24 24 24 24 25 25 25 25 25 26 26 26 24 22 20 20 19 18 18 17 16 17 16 18 21 24 26 30 30 31 30 28 26 25 24 25
26 26 26 25 25 25 24 23 23 23 23 23 22 22 22 22 23 23 24 24 23 21 20 19 18 18 18 17 18 19 23 24 25 27 29 29 29 29 30 30 29 26 27
26 28 28 26 25 24 23 23 25 24 21 21 21 21 20 20 20 21 22 23 23 23 22 21 21 20 21 21 22 23 26 27 25 26 26 23 20 22 26 27 27 26 26
28 28 29 27 26 26 25 24 24 25 23 22 20 20 21 20 20 20 22 22 24 25 23 23 23 25 25 26 26 27 27 28 25 26 26 23 20 20 19 19 23 23 21
31 31 31 30 29 29 28 27 26 24 24 24 24 24 22 22 21 19 19 21 22 24 26 26 27 28 28 30 31 31 30 29 28 28 28 27 27 25 23 23 24 24 24
31 31 31 31 32 32 31 31 29 27 25 26 27 27 25 24 22 24 22 22 24 24 26 28 30 30 31 32 33 33 34 32 31 30 30 29 28 30 29 28 28 28 27
29 31 29 30 34 35 33 34 32 30 29 28 28 29 28 26 26 24 24 27 27 27 27 26 28 30 32 34 35 35 35 35 35 33 31 31 30 30 34 33 32 30 30
29 30 31 31 32 34 36 38 35 34 33 31 30 30 30 31 27 24 26 30 29 31 30 28 28 28 28 30 32 34 35 35 36 36 35 34 33 31 32 35 35 33 31
31 31 30 31 34 33 33 36 37 35 35 33 30 31 32 32 33 33 31 31 30 31 32 31 30 30 30 31 31 33 33 34 35 36 37 36 34 33 34 33 33 31 31
33 33 30 30 34 32 32 31 33 36 37 34 32 31 32 31 32 33 31 31 31 32 32 32 32 32 33 33 31 33 32 32 32 34 35 35 33 32 31 31 31 31 32
33 35 35 29 30 29 27 28 29 32 36 33 33 32 30 29 30 31 29 31 32 32 33 32 32 33 34 35 33 33 33 33 32 33 34 33 34 32 32 32 32 34 35
33 33 36 35 30 29 28 29 28 30 30 31 32 33 29 29 33 31 30 32 32 31 32 33 33 34 34 35 35 34 34 34 34 34 34 34 35 36 37 37 39 38 40
33 35 36 38 34 31 31 34 32 30 29 30 32 33 32 32 32 30 31 34 34 34 35 35 36 36 36 36 36 35 36 36 36 37 37 40 41 41 41 42 42 43 44
34 36 39 40 39 36 32 35 38 35 33 32 32 31 33 37 36 35 34 36 37 38 39 37 39 38 37 37 37 36 37 39 40 41 42 43 44 44 45 48 47 48 47
36 35 38 39 40 38 38 36 42 38 36 33 34 35 34 34 35 34 36 38 38 39 39 38 39 40 39 39 39 39 38 40 42 45 46 47 48 49 48 49 49 49 49
39 39 37 38 40 40 41 43 44 42 38 36 34 37 39 37 34 32 31 34 36 37 37 37 38 39 39 40 41 41 42 41 43 45 47 49 50 50 50 50 50 49 50
45 42 42 43 44 44 42 44 47 46 43 43 39 40 41 40 34 34 34 35 35 35 36 36 37 39 41 41 41 42 43 44 46 47 49 51 51 51 51 50 50 50 51
51 50 48 47 48 47 43 44 45 47 46 47 48 44 42 43 37 37 37 36 35 35 37 37 38 40 41 41 42 44 45 46 47 48 47 48 48 49 50 51 52 53 54
59 60 59 55 51 51 48 45 45 40 43 51 51 49 46 44 40 39 38 37 38 37 39 39 40 41 41 42 43 43 45 46 48 48 47 47 46 47 50 53 55 56 56

GFSSE_500_spd_030.txt.gz
Wind_Speed
18 16 18 19 19 19 20 19 19 19 19 20 19 18 19 17 17 16 16 16 17 18 18 17 16 16 17 18 17 16 15 14 15 16 15 16 17 17 18 18 19 20 21
18 18 19 17 17 18 18 19 19 18 19 20 20 20 20 19 18 18 19 18 17 18 19 18 17 16 16 17 17 17 16 16 16 16 17 17 17 18 17 18 19 20 20
19 17 18 18 18 19 19 19 20 20 20 20 22 22 22 22 22 22 22 21 20 19 19 19 18 17 18 17 16 17 18 17 17 16 18 18 19 20 20 21 21 23 23
17 17 16 18 20 21 20 19 20 21 22 22 21 23 24 25 24 24 24 23 22 20 20 19 19 19 19 19 18 19 18 18 17 17 20 20 21 22 23 23 23 24 24
19 18 17 18 19 21 22 22 21 21 23 23 24 24 24 24 24 24 25 24 23 22 21 21 22 21 20 19 18 18 17 16 17 17 20 22 24 24 25 26 27 27 26
19 19 19 20 20 20 22 23 22 22 22 22 23 24 24 24 24 24 24 25 25 24 23 22 22 22 21 21 20 20 19 19 17 18 18 21 22 25 25 25 25 25 24
22 22 22 22 21 21 22 21 22 24 23 24 24 24 24 25 25 26 26 26 25 25 25 23 22 21 21 21 21 20 18 16 16 18 22 24 26 28 30 30 29 27 27
25 25 24 23 23 23 23 22 21 21 21 21 22 24 26 25 24 24 24 25 25 24 24 23 21 21 22 21 20 20 18 17 19 22 24 25 27 27 29 30 30 29 27
27 25 26 25 24 24 23 22 21 21 19 18 20 21 22 23 23 22 21 22 22 22 22 22 22 21 22 21 21 21 20 21 23 24 26 25 26 25 24 23 25 27 27
27 27 27 26 24 24 24 23 23 23 21 19 18 20 20 20 20 21 20 19 19 21 21 23 23 22 22 23 23 24 23 24 25 26 28 27 25 26 24 20 18 20 23
29 28 28 27 27 27 26 25 25 25 24 23 20 19 21 21 20 19 19 19 20 20 21 23 24 25 24 26 28 28 29 29 30 30 31 29 26 27 28 27 23 21 20
31 32 33 32 30 29 28 28 27 26 26 26 25 23 22 22 22 21 20 20 19 19 20 22 24 26 28 30 31 32 33 33 33 33 33 33 29 29 28 29 28 26 26
29 30 32 32 32 31 30 30 30 30 28 27 27 27 26 26 24 22 22 23 23 23 24 24 24 26 28 31 33 34 35 36 35 35 35 35 35 31 31 29 31 32 30
25 27 29 30 30 32 34 33 33 32 31 29 28 27 29 29 28 27 25 26 25 25 26 27 27 27 26 28 31 33 37 38 39 37 38 38 37 36 33 33 32 32 33
25 26 26 27 28 29 30 31 33 34 33 32 31 29 30 30 31 30 29 29 26 29 28 30 29 29 28 29 29 30 31 32 34 35 35 37 38 37 36 35 35 35 34
31 30 30 28 29 29 30 31 32 32 34 34 34 32 31 30 30 29 30 31 30 30 30 30 28 28 29 30 31 31 31 31 32 32 33 33 34 37 37 35 35 35 33
34 33 31 30 31 30 30 30 30 30 32 32 33 34 33 31 29 30 31 30 29 28 29 29 29 29 29 30 32 33 32 31 32 32 31 31 30 31 33 33 34 33 32
37 32 31 32 31 31 33 31 28 31 31 28 27 31 31 30 31 32 30 28 30 29 30 30 29 29 31 32 33 34 34 32 32 33 32 31 30 31 32 33 34 35 36
39 37 35 34 32 31 33 35 32 30 30 26 23 25 28 32 34 31 29 29 30 30 31 31 31 32 33 34 36 36 36 35 34 34 34 34 32 32 35 38 39 39 40
39 37 36 35 33 34 35 36 35 33 29 28 27 25 27 30 32 32 32 31 33 32 34 35 35 36 37 37 37 38 37 37 36 35 36 37 38 38 39 42 43 44 45
38 39 38 38 37 36 36 36 36 36 36 33 32 31 29 31 31 29 32 34 36 37 37 38 38 37 38 37 38 37 36 37 38 38 37 38 40 42 44 46 47 49 50
43 42 43 42 40 38 38 39 39 41 42 38 35 33 32 34 34 34 31 31 31 32 32 35 35 36 36 36 36 36 36 37 38 40 40 40 41 42 44 46 48 49 51
46 45 45 45 46 43 41 38 40 42 44 43 39 35 35 38 38 36 32 33 32 32 32 33 34 35 35 36 36 36 38 39 40 41 41 42 44 46 47 48 48 49 49
47 46 46 45 45 45 44 43 39 41 42 44 45 44 45 43 40 38 34 34 34 35 35 33 34 35 35 37 37 38 39 39 40 40 42 44 45 46 47 48 49 49 50
47 47 46 47 48 48 49 48 46 42 43 43 46 49 49 48 47 42 42 37 38 38 38 35 34 35 37 39 40 39 40 40 41 42 43 44 45 47 48 50 51 52 53
50 52 52 52 51 52 52 53 52 51 44 44 42 47 51 52 51 47 47 43 42 41 41 38 36 37 38 38 39 40 41 41 42 43 43 44 45 47 50 52 53 54 54

GFSSE_500_spd_033.txt.gz
Wind_Speed
15 15 15 15 16 17 18 19 19 20 20 18 18 18 18 17 17 17 16 16 16 17 16 16 17 18 19 17 17 17 17 16 17 18 17 17 17 17 18 18 19 19 19
17 14 15 17 17 18 16 16 17 19 19 19 19 20 20 20 19 18 18 18 18 19 18 17 17 18 18 18 18 18 17 18 18 18 18 17 18 17 18 17 18 19 20
16 15 16 17 19 20 19 18 18 18 19 20 20 20 21 22 22 21 21 21 21 21 20 19 19 19 18 19 19 19 19 18 19 19 19 19 19 19 19 20 20 21 21
16 15 15 15 15 19 20 19 19 18 19 20 21 21 21 22 23 24 23 23 23 23 22 20 20 20 20 19 19 19 19 19 19 20 19 18 18 19 20 22 24 24 24
18 17 16 16 17 17 18 19 19 20 19 20 21 21 22 22 23 24 24 23 22 22 23 22 22 22 21 20 19 18 17 18 19 19 20 21 20 21 23 24 25 25 25
21 20 19 19 19 19 19 19 19 20 21 21 20 22 22 22 22 22 23 22 22 22 23 23 23 24 23 21 21 20 19 20 21 20 19 18 20 22 25 28 29 28 27
25 23 22 21 20 20 20 19 19 19 20 21 22 23 23 24 23 23 23 24 22 22 22 22 23 23 23 22 22 20 20 19 20 18 18 20 21 24 25 26 28 29 30
28 27 26 23 22 22 21 20 18 17 17 17 18 19 20 21 23 24 23 23 23 22 21 20 21 22 22 22 21 20 20 20 20 21 22 23 24 25 26 26 26 26 26
30 28 27 27 25 23 22 21 20 20 19 17 18 18 18 19 19 20 21 21 21 21 21 20 20 20 22 22 22 22 22 22 23 23 24 25 27 28 28 27 25 22 21
30 29 30 29 26 24 24 22 22 21 21 20 19 18 18 17 17 19 19 18 19 19 20 21 21 22 22 22 24 24 25 26 26 27 27 27 28 29 29 28 28 26 25
32 32 31 29 28 28 26 25 25 24 23 22 21 21 19 18 18 19 19 19 18 18 19 20 21 22 23 24 25 27 28 30 31 32 32 32 32 32 32 29 29 28 28
31 33 33 32 31 30 28 27 27 27 26 25 25 24 24 23 21 21 21 22 21 20 20 20 21 21 23 24 27 30 31 33 35 37 38 37 37 36 34 33 31 29 29
31 31 32 33 32 31 29 30 30 30 30 29 28 28 27 27 25 24 23 23 24 23 25 25 24 24 24 25 26 28 31 34 38 39 40 41 40 39 37 36 34 32 31
29 28 28 29 29 30 31 31 32 33 32 31 31 30 29 29 28 27 27 28 26 25 26 25 25 27 28 27 28 28 30 30 32 34 36 38 39 38 39 38 37 35 33
28 27 27 29 28 28 28 30 30 32 33 33 32 31 30 31 31 29 29 30 29 26 25 28 29 29 28 28 27 28 29 31 32 33 34 34 35 35 35 35 34 35 34
31 31 33 32 31 31 30 30 31 31 32 31 29 29 30 31 31 30 30 30 29 28 28 26 28 27 27 27 27 28 29 32 34 34 33 33 34 34 32 31 31 31 32
32 34 35 34 35 33 33 33 32 32 32 30 28 27 29 29 28 29 30 30 30 29 28 28 28 27 27 27 26 28 30 32 34 35 34 33 34 34 32 30 30 30 31
33 34 36 37 37 34 34 36 34 33 33 30 28 27 26 27 28 30 30 29 29 29 30 30 30 29 29 29 30 30 31 33 33 34 34 34 33 34 34 32 30 31 32
35 38 38 38 38 36 36 38 39 35 32 31 29 27 25 26 28 31 30 30 30 31 31 31 31 32 32 33 35 35 35 35 35 35 34 34 34 34 34 36 37 37 39
36 40 42 40 39 38 39 40 40 37 35 33 32 29 28 29 30 31 30 32 33 34 34 35 36 37 39 40 39 39 39 37 37 36 35 34 35 35 34 35 38 40 42
38 41 43 44 43 40 39 40 40 40 39 38 38 33 31 33 33 33 33 33 34 34 33 35 37 37 36 35 34 35 35 35 35 35 35 35 36 37 37 38 39 40 41
42 41 45 46 46 45 43 41 42 42 43 42 40 39 35 35 35 38 37 36 36 34 33 33 35 35 33 33 33 34 34 34 35 35 35 37 38 40 41 42 42 43 44
46 45 45 47 49 49 49 47 44 44 44 44 43 40 38 39 41 42 40 37 37 35 35 36 36 37 35 34 34 35 36 36 37 37 37 39 40 40 41 42 42 43 44
49 50 49 50 49 51 53 52 50 47 44 44 44 45 43 43 45 44 43 42 41 36 36 37 38 38 38 37 37 37 36 37 39 40 40 40 42 42 43 42 42 43 44
49 50 49 49 49 49 52 54 55 53 48 45 45 43 45 45 47 47 48 48 47 44 40 40 40 40 39 41 40 40 38 38 39 40 41 43 43 44 44 44 45 46 46
48 50 52 53 53 54 53 54 56 57 54 49 47 44 41 45 47 49 49 49 50 49 46 46 44 43 42 42 42 42 40 40 41 42 43 44 45 46 47 48 49 50 52

GFSSE_500_spd_036.txt.gz
Wind_Speed
15 14 14 15 14 14 16 16 17 17 19 19 18 17 16 16 16 15 15 14 15 15 16 17 17 16 15 15 15 15 15 16 17 17 17 17 18 18 18 19 19 17 17
16 14 15 16 16 17 15 13 13 14 16 17 17 17 17 18 19 19 17 17 17 17 16 18 19 19 18 17 17 16 15 16 17 17 18 18 18 18 18 18 18 19 19
18 16 15 16 17 17 17 17 16 16 17 18 17 18 18 18 18 20 21 21 21 20 19 19 21 21 21 20 19 18 18 18 18 19 19 18 18 18 18 18 18 19 20
18 17 16 17 17 16 16 18 18 18 18 18 18 18 19 19 19 20 19 20 22 22 20 20 21 21 21 21 21 20 20 20 20 20 19 17 16 17 19 20 20 21 23
19 18 18 17 17 15 16 16 16 16 17 18 18 18 19 18 18 19 19 20 21 21 21 20 20 20 21 22 22 21 21 21 19 19 18 19 20 18 17 19 21 24 25
22 22 21 20 20 18 17 16 16 17 17 18 18 17 17 18 18 19 19 19 20 21 22 21 21 21 20 22 23 23 23 23 23 23 21 20 19 18 18 20 21 22 24
27 26 25 24 22 21 20 20 19 18 18 18 18 18 18 18 18 19 19 20 20 20 21 22 21 21 20 21 22 23 24 24 24 23 22 20 20 21 21 22 22 22 23
30 29 28 26 24 24 23 22 20 19 19 19 18 17 17 16 16 17 18 18 19 19 19 20 19 19 18 19 20 21 22 22 22 22 22 22 23 24 24 26 25 25 24
31 31 30 28 28 26 25 23 22 21 21 19 18 19 18 16 16 16 16 17 17 18 17 19 20 19 19 19 19 20 21 22 23 24 24 26 26 27 27 27 28 26 27
31 31 30 30 30 27 27 26 24 23 21 20 19 19 18 17 16 17 17 16 17 16 17 17 18 20 20 21 22 22 22 24 25 26 28 29 29 31 31 30 31 30 29
28 30 31 31 31 30 29 28 27 25 23 22 22 21 20 19 18 17 18 18 19 20 20 19 19 18 19 20 22 23 25 25 27 29 32 33 34 35 36 36 35 34 32
29 31 31 31 31 31 31 29 29 27 27 25 24 23 22 22 22 22 21 21 20 20 21 22 22 23 23 22 22 23 24 26 29 31 34 35 37 37 39 38 37 36 35
31 29 28 30 31 30 30 30 29 29 29 28 27 27 26 26 25 25 25 25 24 22 22 23 24 24 24 24 24 25 26 27 28 29 30 32 34 34 35 36 36 37 37
31 31 29 28 27 27 28 29 30 30 30 30 29 28 28 29 29 28 28 28 29 27 26 24 25 25 25 26 28 28 28 28 29 29 30 31 31 33 34 34 34 33 33
30 31 31 30 28 27 28 28 29 30 31 32 31 30 29 30 30 30 30 31 31 29 28 26 25 24 28 28 28 26 26 27 29 29 31 31 32 32 32 32 32 31 29
28 28 32 34 34 33 30 30 31 32 33 33 31 29 28 29 29 28 30 32 31 29 28 28 27 26 24 24 25 25 26 27 28 30 31 32 32 32 31 30 31 31 29
27 29 32 35 39 37 34 33 33 34 35 34 32 29 27 28 28 28 29 30 30 29 28 27 29 28 26 26 27 28 27 28 29 30 30 31 31 32 32 31 30 30 30
31 31 34 37 40 41 40 37 36 36 37 35 33 30 28 28 28 28 28 28 29 29 29 29 29 29 30 29 30 31 33 34 36 35 35 35 34 32 31 31 30 30 32
35 34 36 39 41 43 43 40 40 39 38 36 35 32 29 29 30 29 29 29 29 29 29 30 30 31 33 33 33 35 38 39 38 39 37 35 35 33 32 31 31 31 31
39 39 39 40 41 42 43 42 41 42 40 37 37 36 35 32 32 33 33 31 31 30 30 31 32 34 36 36 34 34 34 34 32 32 32 33 34 33 33 33 32 33 34
44 42 40 43 42 43 43 42 42 43 42 42 40 41 39 35 35 36 36 34 34 33 32 33 33 34 34 34 33 33 32 32 31 31 31 32 34 34 33 33 34 35 36
45 46 44 43 46 47 46 44 43 45 46 45 45 44 43 38 38 39 39 39 39 38 36 36 35 35 36 35 36 35 34 33 32 32 32 33 35 36 36 36 36 36 37
47 46 47 48 48 49 50 48 47 45 45 46 46 46 45 44 42 42 42 45 42 41 40 38 38 37 36 38 38 37 37 36 36 35 35 35 37 38 38 38 38 38 38
49 49 47 49 49 48 50 50 50 48 47 47 47 48 49 49 47 47 46 47 44 43 42 41 42 42 37 39 39 40 39 39 39 39 39 39 38 38 38 39 40 40 41
47 49 51 51 52 53 54 54 54 55 53 49 49 49 51 50 48 48 48 49 46 45 46 47 46 46 44 44 42 41 42 43 42 41 41 42 41 40 41 41 43 44 44
46 47 48 49 53 55 56 57 58 60 60 60 56 52 50 49 50 49 49 48 47 46 47 48 48 48 46 46 47 47 45 45 45 45 45 45 43 42 44 44 46 47 48

GFSSE_500_spd_039.txt.gz
Wind_Speed
14 12 15 15 16 15 16 17 17 18 18 18 18 18 17 16 16 16 15 14 14 13 13 13 12 12 11 12 14 15 15 15 15 15 15 16 15 15 15 16 16 15 16
16 15 17 17 18 17 16 15 14 14 14 14 14 15 16 16 16 17 17 17 16 16 16 16 16 15 16 15 15 17 17 17 17 17 17 17 17 17 17 17 18 18 17
20 18 17 18 19 19 17 17 17 16 15 15 14 14 14 14 16 16 17 17 18 18 20 20 19 20 18 18 19 18 19 19 18 18 18 18 18 19 18 17 17 19 20
19 18 19 19 19 18 18 17 16 17 17 17 18 17 16 16 16 16 17 17 17 17 17 18 19 19 19 19 20 20 21 20 20 19 20 20 19 18 19 20 18 19 20
20 20 19 19 19 17 17 17 16 15 15 15 16 17 17 18 18 18 17 16 16 17 18 18 18 18 18 19 20 20 21 22 21 20 20 21 21 21 20 19 18 19 20
19 20 21 20 19 19 19 19 19 18 18 19 19 19 18 18 18 19 19 19 18 18 18 18 18 19 19 19 20 20 21 22 21 21 22 22 21 20 19 18 18 20 20
21 21 24 24 24 22 21 21 22 21 21 20 21 20 19 18 18 17 17 17 18 18 18 18 17 18 19 19 19 20 21 21 21 21 21 21 21 20 20 20 21 21 22
25 25 26 27 26 24 24 24 24 22 23 22 21 20 19 19 19 18 18 17 17 18 18 18 18 18 18 20 19 19 20 21 21 22 21 21 21 22 23 23 23 24 23
28 28 27 28 28 27 25 24 24 22 22 23 22 22 20 19 19 18 18 18 17 16 17 17 17 18 19 19 19 20 20 22 22 22 23 23 24 26 26 27 27 28 27
30 31 30 29 29 28 26 24 24 25 23 22 22 22 22 21 19 19 18 17 17 16 16 15 16 17 17 18 19 19 20 22 23 24 25 27 28 29 30 31 32 32 31
30 32 31 30 30 29 28 27 27 26 25 24 24 23 22 22 22 20 21 21 20 19 18 19 19 20 20 20 20 20 21 21 23 24 26 28 30 32 34 35 35 35 35
28 30 30 30 30 30 29 29 28 28 27 26 25 24 23 23 23 23 23 23 23 23 22 22 21 21 22 23 23 23 24 24 25 26 26 27 29 30 32 33 33 33 33
28 29 29 30 30 29 29 29 29 29 29 27 26 26 25 25 25 25 24 25 25 25 24 24 24 24 25 25 25 25 25 25 27 27 28 30 30 30 30 29 30 30 31
28 30 31 31 30 30 29 29 30 29 29 28 29 28 26 26 26 26 26 26 26 27 26 26 26 25 25 25 26 26 27 28 27 26 27 28 29 29 30 30 30 29 29
28 30 32 34 33 32 31 30 30 29 29 30 31 29 26 27 27 27 27 27 28 29 28 28 28 27 25 25 25 25 25 24 24 24 25 26 28 29 29 30 30 29 28
28 28 32 33 34 34 33 33 32 32 32 32 32 30 28 27 29 28 27 28 29 29 29 29 28 26 27 26 25 24 25 26 27 26 26 27 29 30 28 29 29 29 28
30 31 31 33 35 34 34 35 35 36 35 34 34 32 29 28 29 29 28 29 29 29 29 28 26 26 27 27 27 27 28 29 30 32 33 34 33 33 33 31 30 30 29
35 34 37 37 36 36 36 37 38 39 39 38 36 34 32 30 30 31 30 30 30 30 28 27 26 27 27 27 28 28 28 30 30 32 31 32 32 31 30 30 30 30 31
38 39 39 40 39 40 39 39 40 41 41 41 40 37 36 33 33 32 33 32 32 32 30 28 27 28 27 28 28 30 31 30 27 27 27 27 27 26 27 28 29 30 31
40 41 41 41 42 42 44 43 42 44 43 43 41 41 40 39 38 37 36 36 36 34 33 30 29 29 29 29 29 30 30 28 28 28 28 27 27 27 27 28 30 30 30
42 43 44 43 42 43 45 47 46 45 45 45 45 44 45 44 41 40 40 39 38 37 38 34 33 32 31 32 31 32 32 31 31 31 31 30 30 29 30 31 32 33 34
45 45 45 46 46 44 45 46 47 48 48 48 48 47 47 46 46 44 42 41 41 42 40 39 38 36 34 35 35 35 34 34 33 34 34 34 34 33 32 33 34 34 34
46 44 44 45 48 49 49 47 47 47 48 48 47 48 48 49 49 50 46 44 45 46 43 43 40 40 38 37 40 40 39 36 36 36 37 37 38 37 36 36 36 36 36
45 45 45 46 47 48 51 53 54 51 49 47 48 48 51 51 51 51 49 48 48 49 47 44 44 43 41 40 40 41 40 39 39 40 40 40 40 40 40 40 40 41 40
44 45 45 45 47 48 49 50 51 54 55 54 51 51 51 53 54 53 52 50 50 51 51 49 47 45 46 44 44 43 45 44 45 45 45 45 45 43 42 43 44 44 45
43 44 45 45 46 47 49 50 52 53 53 55 55 55 55 55 57 57 56 55 53 52 52 51 50 48 48 46 46 44 44 45 45 46 47 49 49 49 45 46 47 48 48

GFSSE_500_spd_042.txt.gz
Wind_Speed
13 13 14 14 14 15 17 19 19 20 20 20 20 20 20 20 19 19 19 18 18 17 16 15 13 13 13 14 14 14 15 15 15 15 15 15 15 15 15 16 16 16 16
15 14 15 15 15 15 16 16 16 17 17 17 17 17 18 18 18 18 18 19 20 20 19 19 17 17 16 16 16 16 16 16 16 16 17 17 17 17 17 17 17 17 17
16 15 16 16 17 17 17 16 17 18 18 18 18 17 17 17 17 18 18 18 20 20 21 21 21 20 19 18 17 16 17 17 18 18 17 18 18 18 18 18 17 19 19
17 17 16 17 18 18 18 19 16 15 16 17 17 17 18 18 18 18 18 17 17 19 18 19 19 19 18 18 18 18 18 18 18 18 18 18 18 17 18 19 20 17 17
17 17 17 18 17 17 15 18 17 16 17 16 16 17 18 18 18 19 20 21 20 19 18 17 18 18 18 18 19 19 18 19 19 19 19 19 19 20 21 20 20 18 18
18 17 17 17 18 18 16 17 19 18 18 19 19 19 20 20 21 21 21 22 22 23 22 20 19 19 19 19 19 20 20 20 20 21 21 21 21 22 21 20 20 20 20
20 19 19 20 19 19 19 20 21 21 21 22 22 22 22 22 21 21 21 21 20 20 21 21 21 20 20 19 19 19 20 20 20 21 21 21 21 21 21 22 22 23 23
22 22 22 24 24 24 23 22 23 22 21 22 22 22 22 21 20 19 19 19 19 19 19 19 19 20 20 20 20 19 19 19 20 20 21 22 22 22 23 24 26 25 25
25 26 27 28 28 27 25 24 24 23 22 22 23 22 21 20 20 19 19 19 19 19 18 18 18 17 17 18 18 18 19 19 20 21 21 22 24 24 26 27 29 29 29
29 31 31 30 28 29 27 25 26 26 24 23 23 22 21 21 21 22 21 20 20 19 18 18 19 19 19 19 19 19 19 20 21 21 22 24 25 26 28 30 32 32 33
32 33 33 32 31 30 29 28 27 27 26 26 24 23 23 23 23 23 23 23 21 21 21 20 21 21 21 22 22 22 22 22 22 22 23 24 26 27 29 31 33 34 34
32 33 33 32 31 31 30 30 29 29 27 27 26 26 24 25 24 24 24 24 24 23 24 24 24 24 24 24 23 23 23 24 24 24 25 26 27 28 29 30 30 30 29
27 26 27 27 28 29 31 32 31 30 30 29 28 29 27 26 25 24 24 24 24 24 25 25 26 26 26 26 26 25 25 26 26 28 28 28 28 28 28 28 29 29 29
25 26 28 29 29 30 32 32 32 31 32 31 31 30 29 27 25 25 25 24 25 25 26 27 27 28 28 28 27 25 23 23 23 24 25 24 26 25 26 27 28 28 28
27 29 31 31 31 33 34 33 33 33 34 34 32 32 30 28 27 27 26 25 26 27 27 28 28 29 27 27 27 25 24 24 24 24 24 25 26 27 29 29 29 28 28
30 29 31 31 33 34 33 34 34 35 35 35 34 35 33 30 29 29 27 27 27 28 29 29 28 28 28 27 26 25 25 25 25 26 26 28 30 31 31 30 31 31 29
31 32 31 34 36 35 34 34 34 35 37 37 37 36 34 33 32 31 30 29 30 31 31 31 29 29 28 27 26 25 26 26 27 26 27 28 27 26 26 27 26 26 27
34 34 36 36 36 36 37 37 37 38 38 39 39 38 35 35 35 36 34 33 33 33 34 33 30 29 28 27 27 26 26 27 27 26 25 24 22 22 23 23 23 23 23
38 38 38 39 39 40 40 41 41 42 41 41 40 40 39 38 37 38 38 37 37 36 36 36 34 31 30 29 29 28 27 27 26 25 24 25 24 23 24 24 25 25 25
38 38 38 39 40 42 44 45 45 45 45 44 44 43 44 44 42 40 41 41 40 40 39 38 38 36 33 32 32 30 30 29 28 27 28 28 28 27 27 28 27 27 28
39 39 39 39 39 42 44 45 46 46 46 47 48 48 48 47 47 46 46 44 43 43 44 43 41 39 38 36 33 34 34 32 32 32 32 32 32 31 32 31 31 31 31
40 41 42 42 42 42 44 45 46 49 51 50 49 50 51 51 50 51 51 49 48 47 46 45 44 45 42 40 39 37 37 35 35 36 36 36 35 36 36 36 36 36 36
43 43 44 44 44 45 44 44 46 49 49 50 51 49 50 52 53 54 54 54 53 51 49 45 47 47 47 44 42 42 40 39 37 35 36 38 40 39 40 40 41 41 40
44 43 42 42 43 44 45 45 45 46 49 49 50 53 55 56 56 56 55 55 55 54 52 49 50 49 49 47 46 45 46 40 39 38 39 39 41 42 43 43 43 45 46
41 41 42 42 42 42 43 44 46 47 48 50 51 52 54 56 58 59 57 56 55 56 54 52 52 50 51 51 50 48 47 44 42 42 41 41 42 44 44 43 44 47 48
37 38 40 40 40 41 42 43 45 46 48 50 52 54 55 55 57 60 62 62 61 58 58 56 55 54 53 53 52 50 47 48 47 45 44 44 45 45 46 47 47 43 39

GFSSE_500_spd_045.txt.gz
Wind_Speed
14 12 13 13 13 14 15 16 18 18 19 19 19 19 19 19 19 20 20 20 20 20 20 20 18 17 17 16 16 15 16 17 16 16 16 16 16 16 16 16 16 16 16
15 14 14 14 14 14 14 13 14 16 17 18 18 19 18 19 19 19 20 20 20 21 21 22 22 21 21 20 19 18 16 16 17 17 17 17 17 17 17 17 17 16 16
16 15 14 14 15 14 15 13 14 15 17 18 19 19 20 20 19 19 20 20 20 21 22 21 21 22 21 21 20 20 19 18 17 17 17 17 18 18 17 16 16 16 18
16 16 15 16 16 14 14 16 15 15 15 15 15 16 17 17 17 17 18 19 19 20 20 20 20 20 19 20 19 18 18 19 19 18 18 17 18 18 17 17 18 19 17
17 16 16 17 16 14 12 15 15 15 15 15 16 16 17 18 19 19 20 20 21 21 21 21 20 19 18 17 17 18 19 19 20 20 20 20 19 18 20 21 19 18 18
18 18 18 17 16 15 14 14 16 16 17 18 19 20 20 20 20 21 21 21 21 22 22 22 22 22 20 19 19 18 18 18 19 19 20 20 20 20 21 21 20 20 20
21 20 19 19 18 18 18 18 18 19 21 22 22 22 21 21 21 21 22 21 22 22 22 22 21 21 21 21 20 19 18 18 18 19 19 20 20 20 21 21 21 22 23
23 22 22 21 21 22 22 22 22 23 22 23 23 22 22 21 21 20 21 20 21 20 20 20 20 20 20 19 19 18 18 18 18 18 18 19 19 19 21 22 23 24 26
25 24 24 25 25 25 25 25 25 25 24 22 23 23 22 21 21 20 21 20 20 20 20 20 20 20 19 18 19 19 19 18 19 19 20 20 20 21 23 23 25 27 29
27 27 28 28 28 29 28 27 27 27 26 24 23 23 23 22 22 22 22 22 21 21 21 20 21 21 21 21 22 22 22 21 21 21 23 23 22 23 24 26 26 28 30
29 30 30 31 30 29 29 30 29 28 28 26 26 25 24 24 23 23 24 24 23 23 22 23 23 23 23 24 24 24 23 23 24 23 24 24 24 25 26 27 28 28 28
31 31 31 32 31 30 30 30 29 28 27 28 27 28 26 26 25 25 25 24 24 24 23 23 24 24 25 25 24 25 25 26 26 24 26 26 26 27 27 27 27 27 26
29 29 29 29 30 30 29 29 29 29 30 30 30 29 30 28 27 26 26 25 24 23 23 24 25 26 25 26 26 26 26 25 25 24 24 24 23 24 24 25 25 27 27
27 28 28 29 29 29 30 31 30 31 31 32 32 31 31 31 29 27 26 26 25 24 24 25 26 27 26 27 27 27 26 25 24 22 24 22 23 23 24 26 29 29 30
28 30 31 31 31 31 32 31 31 32 32 33 34 33 33 33 31 29 28 27 26 26 27 27 27 28 28 27 26 26 26 26 25 25 22 23 24 25 26 29 29 28 28
30 31 31 31 33 33 32 32 31 32 33 34 34 35 36 35 32 30 30 28 29 28 30 30 29 29 29 28 28 27 26 26 25 25 23 26 25 26 25 23 23 22 22
31 32 31 33 33 32 32 32 34 34 34 36 36 36 36 36 35 33 32 32 32 33 32 32 32 31 30 30 29 28 28 26 27 26 26 25 25 23 21 21 20 20 20
34 34 35 34 33 32 33 35 36 37 37 36 37 38 38 39 38 38 37 36 33 35 35 35 36 36 34 33 32 30 29 29 28 27 27 26 25 24 22 22 21 21 22
37 36 36 36 35 36 36 38 39 39 39 39 40 40 40 42 42 42 40 40 40 38 37 38 38 39 38 36 35 33 33 32 30 28 28 29 27 26 26 27 25 24 25
37 36 35 36 36 36 38 40 40 40 42 43 43 42 43 44 44 46 47 45 45 44 42 41 42 43 42 39 38 37 35 34 32 31 31 32 31 31 31 31 30 29 28
38 37 37 38 38 37 38 40 42 40 45 46 48 48 47 47 47 46 46 47 47 48 48 48 48 47 45 44 43 41 39 37 35 34 35 34 35 35 34 33 33 32 33
38 38 38 38 39 39 41 42 44 41 44 46 48 49 50 49 48 49 48 49 49 50 51 52 52 51 50 48 47 47 41 41 40 39 38 38 37 36 35 35 35 35 36
39 38 38 39 40 41 42 43 44 45 44 46 46 48 51 53 53 53 53 53 54 54 54 54 55 55 54 53 50 48 45 43 43 44 43 42 41 36 37 37 38 38 38
40 39 39 40 41 41 42 42 43 44 44 44 45 47 50 54 55 55 55 55 56 56 56 57 52 53 53 51 52 51 49 47 46 46 45 47 45 38 38 41 41 40 40
40 40 40 40 40 40 40 40 42 43 44 45 46 47 48 51 54 58 59 59 58 59 60 60 57 56 57 56 54 55 53 51 51 49 48 49 44 42 41 43 43 43 43
39 39 40 39 38 38 40 41 42 43 44 45 46 48 49 51 52 53 55 59 63 63 63 63 62 60 58 58 57 57 56 54 52 51 51 48 49 48 47 47 43 45 46

GFSSE_500_spd_048.txt.gz
Wind_Speed
16 14 13 11 10 10 10 11 12 14 14 15 15 15 16 16 17 17 17 17 17 18 18 18 19 19 20 19 18 18 18 18 18 17 18 17 17 16 16 16 17 17 16
14 12 12 10 10 12 11 11 12 13 13 14 15 16 17 18 18 18 18 18 18 18 18 19 20 21 21 21 20 20 20 20 19 18 18 18 18 17 17 17 18 17 16
15 14 13 13 12 12 13 11 12 13 13 14 14 16 17 17 18 18 18 18 18 18 18 18 18 19 20 20 20 20 20 19 19 17 17 17 17 17 18 17 17 17 18
16 16 15 15 15 13 14 14 13 13 13 14 14 14 14 14 15 16 16 17 17 18 18 18 18 18 18 18 18 18 18 17 17 17 17 17 17 17 17 17 18 19 19
18 17 16 17 16 14 12 14 13 13 14 14 15 15 15 16 16 17 18 18 19 19 19 19 19 20 19 19 18 17 17 18 17 17 17 18 18 18 17 17 18 18 18
19 18 18 18 18 15 14 14 14 16 15 16 16 17 18 19 20 19 19 19 19 19 19 20 19 19 19 18 18 18 18 18 17 17 18 17 17 17 17 17 18 17 19
19 21 20 20 19 17 16 16 16 16 18 19 20 21 21 20 20 20 20 20 20 19 20 20 20 21 20 20 20 19 18 18 17 16 17 17 16 17 17 17 18 19 20
21 23 23 22 21 20 19 17 18 18 20 21 22 22 21 21 21 21 21 20 20 20 19 19 19 20 20 20 20 19 18 17 16 15 15 15 16 17 17 18 19 21 22
25 25 25 23 22 22 21 20 21 22 22 21 21 21 22 22 21 22 21 21 20 20 20 20 19 20 20 20 20 20 20 20 20 20 20 19 19 20 20 20 21 22 23
27 26 25 23 23 23 23 24 25 24 23 21 20 21 22 22 22 23 23 23 22 21 20 21 21 21 21 21 21 21 21 22 21 21 21 22 21 21 22 22 23 23 25
27 25 26 25 25 26 27 27 27 26 23 22 21 21 21 22 23 23 24 24 24 23 22 22 22 23 22 22 22 21 22 22 22 23 23 23 23 23 24 25 24 25 24
28 27 27 27 28 28 27 27 26 26 24 23 24 25 22 24 23 23 25 25 25 24 23 23 23 23 23 23 23 23 23 23 23 22 24 24 23 23 22 22 22 22 22
29 27 28 29 29 29 27 27 25 25 25 25 26 26 26 25 24 24 26 26 25 24 25 24 24 24 24 24 24 24 23 24 24 21 24 23 21 21 22 21 23 24 25
29 28 30 29 28 28 28 26 26 26 27 27 28 27 27 25 25 26 26 26 26 26 26 27 26 26 26 24 25 24 24 24 23 20 24 22 23 22 22 24 25 25 23
28 30 30 29 29 29 28 28 27 29 28 30 28 29 30 30 29 26 26 26 27 27 28 28 29 28 28 27 26 26 25 25 25 22 23 24 24 24 25 25 24 20 19
30 31 30 30 30 30 28 27 29 29 29 30 30 30 31 31 31 31 28 27 28 29 29 30 30 30 30 29 29 30 27 27 26 25 22 26 25 25 26 25 21 19 18
32 31 30 32 32 30 29 29 30 31 30 30 31 31 32 32 33 33 32 31 31 33 31 31 31 31 32 32 32 31 30 29 29 29 25 25 27 26 26 26 22 20 20
33 32 35 34 33 31 31 31 32 32 31 31 32 33 32 34 35 35 36 36 36 36 37 34 34 34 34 34 35 34 33 32 31 31 29 26 28 27 26 27 25 24 25
34 35 35 34 33 33 32 31 32 34 35 34 36 36 36 36 37 39 39 39 39 39 39 41 41 40 39 39 38 37 35 35 35 33 32 30 28 29 29 28 29 29 30
35 35 35 34 34 33 34 35 35 36 35 37 38 39 40 40 40 42 42 42 43 42 40 41 42 44 44 44 43 41 40 40 38 36 35 34 33 31 31 32 33 32 32
38 37 37 36 36 36 36 36 37 35 36 39 40 41 43 43 42 44 43 44 45 45 45 45 44 45 46 48 48 46 46 45 42 39 38 38 37 36 35 35 37 35 35
39 38 37 37 37 37 37 38 38 39 37 36 42 44 44 46 47 46 46 47 47 47 47 50 49 48 49 52 52 52 50 48 45 43 43 42 42 41 40 39 41 40 36
40 39 38 37 38 38 37 37 39 41 42 40 39 44 47 48 49 49 49 49 48 50 49 49 51 49 49 51 52 53 53 50 49 46 46 46 44 43 43 43 45 45 39
39 37 36 36 36 37 37 38 39 41 42 43 41 43 45 47 50 51 53 53 53 52 52 52 54 54 54 54 56 54 54 50 49 49 49 49 46 46 45 44 46 45 42
31 33 34 34 35 36 38 39 39 40 41 42 43 44 46 47 47 49 52 54 56 57 55 57 57 57 56 57 57 56 57 57 56 56 53 51 51 49 48 49 49 47 43
33 34 35 36 36 37 38 39 38 38 41 43 44 46 47 48 49 49 49 52 54 56 57 58 60 62 61 59 58 60 58 59 58 56 55 55 52 51 51 51 52 48 52

GFSSE_500_spd_051.txt.gz
Wind_Speed
16 14 14 11 10 8 8 6 6 7 8 9 10 11 12 13 14 14 15 15 16 15 15 15 15 16 17 17 18 18 18 18 19 18 18 18 17 17 17 17 17 16 16
16 14 13 11 9 9 7 7 8 8 9 11 12 13 14 15 16 16 17 17 17 16 16 16 16 15 16 17 17 17 17 16 17 16 16 16 16 15 15 15 16 16 16
14 12 11 10 8 8 9 8 9 10 11 12 13 14 14 15 15 15 15 15 15 15 16 16 17 16 17 17 17 17 17 16 16 17 16 16 16 16 16 16 16 15 16
14 12 11 10 9 10 12 12 12 13 13 13 13 13 14 14 15 15 14 15 15 16 16 16 17 18 18 19 19 19 17 16 16 17 17 16 17 17 16 16 16 17 17
15 14 13 14 12 11 13 15 14 13 13 13 14 14 14 14 15 16 17 17 17 17 17 17 18 19 19 19 19 19 19 18 17 16 17 17 17 16 16 17 15 16 16
19 17 16 16 15 14 14 15 16 15 14 14 14 14 15 17 17 17 17 17 18 18 17 17 18 18 19 19 19 19 19 19 18 16 16 17 17 17 15 15 15 15 16
21 19 18 18 17 16 16 16 16 16 16 16 16 17 18 18 17 17 18 18 18 17 18 18 18 18 18 18 18 19 18 17 18 15 16 17 16 15 14 15 16 16 18
23 23 22 20 20 19 18 17 17 15 15 17 20 20 19 17 17 18 18 17 18 18 19 19 19 19 18 18 18 18 18 17 16 16 17 18 18 18 18 19 20 19 20
25 25 23 22 22 20 19 18 17 17 17 16 17 19 18 17 17 17 18 19 19 19 19 20 20 19 19 19 19 19 20 20 20 19 18 19 20 19 20 21 21 21 21
27 27 25 24 23 21 20 19 19 19 19 19 18 17 18 18 18 18 19 19 19 20 20 21 21 21 20 20 19 20 20 19 20 19 19 19 20 21 20 21 22 22 22
28 27 25 25 24 22 22 22 22 21 20 19 19 18 16 17 18 19 19 20 21 21 22 22 22 23 22 22 21 21 20 20 19 21 19 19 21 22 22 21 22 21 21
29 28 27 26 25 24 24 25 24 23 22 21 20 19 18 17 19 19 19 20 21 23 24 24 23 23 23 24 23 23 22 21 19 22 21 20 21 21 21 21 22 21 21
30 30 28 28 27 25 27 26 24 23 22 22 22 22 20 21 20 22 22 22 22 23 24 24 24 24 25 25 25 25 24 24 22 21 22 21 21 22 21 21 22 22 23
31 31 30 28 27 27 27 26 23 23 22 22 22 22 23 22 22 24 25 25 24 24 24 25 25 26 26 26 27 27 26 25 24 22 23 24 23 22 23 22 22 23 23
32 30 30 27 28 28 27 26 25 24 23 23 23 23 23 24 24 23 24 25 24 26 26 25 26 26 27 28 28 28 27 26 25 23 24 26 25 25 25 24 24 24 22
33 32 30 28 29 28 26 26 25 24 25 24 23 24 24 26 25 26 25 25 27 28 28 28 28 29 29 30 30 30 29 29 27 25 23 25 26 26 26 26 24 24 22
32 33 31 29 30 29 27 27 27 27 25 25 25 25 26 27 28 28 28 27 29 29 31 30 31 32 33 33 33 33 32 31 30 29 26 25 28 27 26 26 25 25 24
35 33 30 32 31 29 28 28 28 29 27 26 29 29 30 33 33 33 33 32 33 33 34 33 33 33 34 35 37 38 37 35 35 32 29 28 29 30 30 28 27 27 26
37 34 31 31 32 31 30 30 30 32 30 31 31 31 32 33 35 35 34 34 35 37 37 38 39 38 37 38 39 40 40 39 38 38 34 33 32 32 34 32 31 30 30
34 32 32 32 30 32 34 34 33 34 34 33 33 33 33 33 34 36 37 39 39 39 40 40 41 42 42 43 43 43 43 42 42 41 39 37 37 36 37 36 35 35 34
35 34 35 37 36 35 34 35 35 36 36 35 36 36 36 37 38 38 38 40 42 42 43 44 42 43 44 45 48 48 48 48 46 45 44 42 39 40 40 39 40 39 38
40 39 39 39 39 39 39 39 38 36 35 35 36 37 39 43 41 42 41 41 43 44 44 44 45 47 47 47 48 50 50 48 47 47 48 46 44 44 43 44 44 43 43
43 43 41 41 41 42 40 39 38 39 37 34 35 37 40 44 46 45 44 43 44 46 47 48 48 47 49 50 51 52 53 53 52 50 49 46 46 47 47 46 46 47 47
41 42 41 41 42 42 40 39 38 38 38 39 38 38 39 43 46 46 47 47 48 49 50 51 53 51 53 53 55 55 56 56 56 54 52 50 51 51 50 47 49 47 43
39 40 41 40 39 37 37 37 37 37 39 40 41 40 40 42 45 47 48 50 50 50 50 50 53 54 55 56 57 58 58 58 58 57 55 53 53 52 53 49 48 50 50
37 37 35 34 34 33 35 36 38 39 40 41 42 41 41 43 46 46 46 46 47 48 49 50 51 53 55 58 60 63 65 65 63 62 60 57 55 55 54 55 46 47 52

GFSSE_500_spd_054.txt.gz
Wind_Speed
16 15 14 12 11 10 8 5 3 3 4 5 6 8 9 11 12 13 13 14 15 15 15 15 15 14 14 14 14 14 14 14 15 15 15 15 15 15 16 15 15 15 14
17 18 15 13 12 10 7 4 3 4 5 6 8 9 11 13 14 15 15 16 16 15 15 15 16 16 16 16 16 16 16 16 17 17 16 16 15 16 16 16 15 15 15
18 17 14 12 11 9 7 4 5 7 8 9 10 11 12 14 14 15 15 16 16 15 15 15 15 15 16 16 16 18 19 18 18 17 17 16 16 16 16 17 16 16 15
13 13 12 11 10 9 7 7 8 9 11 10 10 11 13 14 14 13 13 14 15 16 16 16 15 16 16 17 17 17 17 18 19 18 18 18 17 17 17 16 16 16 16
15 14 12 12 10 9 9 11 11 10 12 11 12 12 13 13 14 15 15 15 14 15 16 15 15 15 15 16 17 16 17 17 19 20 19 18 18 17 18 18 16 16 15
17 15 14 13 11 11 10 12 13 13 12 12 13 13 14 15 16 16 14 14 15 15 16 16 16 16 17 17 17 17 17 17 17 18 19 18 18 18 18 16 16 16 16
19 17 15 15 14 13 12 13 13 14 15 15 14 15 15 16 16 15 14 14 14 15 15 16 16 17 18 18 18 18 19 18 18 18 18 18 19 19 18 18 19 20 20
21 20 18 17 17 16 15 14 14 14 14 15 18 18 17 16 16 15 15 15 14 15 16 16 17 17 18 19 19 19 19 19 18 19 20 19 19 20 20 20 20 21 21
24 22 21 20 19 17 17 17 16 16 16 16 17 18 18 17 16 14 14 15 16 15 16 17 18 18 18 19 20 20 19 21 20 19 20 20 20 20 21 20 20 20 21
25 24 23 22 21 20 19 19 18 19 18 17 16 16 16 17 16 15 15 16 16 17 17 18 19 20 20 20 21 20 20 21 21 21 20 21 20 20 21 21 21 21 21
27 26 25 24 23 22 22 21 20 20 19 19 18 16 14 15 17 17 18 18 18 19 20 21 21 21 22 22 23 23 22 22 23 22 23 22 23 21 21 20 20 19 20
29 28 27 26 25 25 24 23 21 19 20 20 19 17 15 15 16 17 18 18 21 21 22 23 23 23 23 24 24 26 25 23 25 26 24 23 22 22 21 21 21 21 20
31 30 28 28 26 26 26 24 22 21 20 20 20 18 17 17 18 17 18 19 20 21 23 24 24 25 24 25 25 27 26 25 24 26 26 25 23 23 23 23 22 22 22
31 30 30 29 28 27 27 26 23 22 20 21 21 22 19 20 20 20 21 20 22 24 25 25 26 27 27 27 27 28 28 26 25 25 26 26 24 23 23 24 23 22 23
34 31 31 30 29 29 29 26 24 22 23 22 23 23 23 21 22 22 23 23 22 25 27 26 27 27 29 30 31 31 31 29 27 26 26 27 27 26 25 25 24 23 23
37 35 33 31 30 30 29 27 26 25 24 24 24 24 23 23 24 24 25 26 27 27 28 29 28 28 29 31 32 34 34 34 32 30 28 28 30 29 27 27 27 26 25
38 38 35 34 33 31 29 28 27 26 27 25 25 25 25 25 26 27 28 28 29 29 30 31 32 32 32 33 35 35 36 35 35 34 33 30 31 30 30 30 30 29 29
39 38 39 36 33 32 31 29 28 28 27 26 28 28 28 29 29 29 29 29 30 30 31 32 34 35 36 37 39 40 40 40 39 37 34 33 32 33 33 33 32 32 32
39 37 36 36 32 31 31 30 30 29 28 28 29 30 30 31 32 32 31 31 32 33 33 35 36 37 37 39 40 42 43 43 44 42 40 39 37 36 36 35 36 36 35
39 37 35 33 34 34 33 33 31 31 30 30 29 31 32 33 35 35 34 34 36 36 37 39 40 40 41 41 42 43 44 44 44 44 45 45 44 43 42 40 39 39 39
40 39 37 35 35 36 34 35 34 32 33 33 33 33 35 35 35 36 35 36 37 40 41 43 43 43 43 43 44 44 47 48 48 48 48 47 46 43 44 46 45 44 42
39 39 39 41 41 39 36 35 35 36 37 38 38 38 37 37 37 38 39 40 40 41 44 44 43 45 46 46 48 49 48 49 50 51 53 52 51 51 49 44 45 47 47
42 42 43 41 40 40 41 41 40 38 39 40 40 40 41 41 40 41 43 43 44 44 44 46 46 48 48 48 48 50 51 49 51 53 55 56 57 56 53 49 48 47 48
45 45 44 43 44 44 44 44 43 42 42 42 41 40 40 41 42 45 46 47 46 46 47 48 48 48 48 47 49 51 52 52 53 53 54 57 59 59 57 53 55 52 52
43 44 45 44 44 46 45 44 43 43 42 41 41 39 39 41 43 44 46 46 48 49 49 49 48 47 48 50 49 51 52 53 54 57 58 59 62 60 62 60 57 53 55
40 39 39 40 41 42 41 41 40 39 38 38 39 40 42 44 44 45 45 47 48 48 48 48 48 47 48 48 48 51 55 58 62 64 64 67 65 68 64 66 63 61 54

GFSSE_500_spd_057.txt.gz
Wind_Speed
15 15 14 12 12 12 10 9 6 4 3 4 3 4 6 8 9 11 13 14 15 15 15 15 15 15 15 15 15 15 16 17 16 17 17 18 18 18 17 17 16 16 16
16 16 15 14 14 13 11 8 6 3 2 4 5 7 9 10 11 13 14 15 15 15 15 15 15 15 14 14 15 15 16 16 17 17 17 18 18 18 18 18 17 17 16
18 19 17 17 15 13 10 7 5 4 5 7 9 9 10 11 12 14 14 13 13 13 14 14 14 14 14 14 15 16 17 17 17 17 17 18 18 19 18 19 19 17 17
17 17 15 16 14 12 9 7 5 5 6 8 9 10 11 12 12 12 13 15 14 13 13 14 14 14 14 15 16 17 18 16 16 17 18 18 19 19 18 19 19 19 19
16 14 14 14 13 10 8 7 6 7 8 9 10 11 11 12 12 14 15 14 14 13 13 13 13 14 15 16 17 18 19 18 17 17 18 17 18 19 18 19 20 19 18
18 15 14 13 12 10 8 8 9 9 9 10 12 12 12 13 14 15 15 15 14 13 13 13 14 14 15 17 18 19 19 20 20 20 20 19 19 19 19 19 18 18 20
16 16 15 15 12 11 9 8 10 11 13 13 13 13 13 14 15 16 15 14 13 13 14 14 15 15 16 17 18 19 19 19 19 20 20 21 20 20 19 20 20 20 21
19 19 18 15 14 13 11 10 9 12 13 16 18 16 15 16 16 16 15 14 14 15 15 16 16 17 18 18 19 20 19 20 20 21 21 20 21 22 21 20 21 21 21
22 20 19 17 16 15 14 12 12 13 15 15 16 19 20 18 16 15 15 15 15 16 16 17 17 18 19 20 20 21 22 22 22 23 23 22 22 22 22 22 22 21 22
23 21 20 19 19 18 16 15 15 16 17 16 15 17 18 19 18 16 15 16 17 17 17 17 18 19 19 20 21 22 23 24 25 25 25 25 25 24 23 23 22 22 22
25 24 23 21 21 20 18 18 19 18 18 17 17 16 17 17 16 17 17 17 18 18 19 19 20 21 21 21 22 22 23 25 26 26 26 27 26 26 24 23 22 22 21
28 26 25 24 23 22 21 20 19 19 19 19 18 17 17 17 17 17 18 19 20 21 22 23 23 23 24 23 25 25 25 25 27 27 27 27 26 26 25 24 23 22 22
30 29 27 26 25 24 23 21 21 21 20 20 20 19 18 18 19 19 19 20 21 21 22 23 24 25 26 26 26 27 28 28 28 29 29 28 26 26 25 25 24 24 23
31 29 29 29 28 27 25 23 22 21 21 21 21 20 20 21 21 20 21 21 22 23 23 23 24 26 27 28 29 30 31 30 30 31 31 31 30 28 27 26 26 26 26
30 31 33 31 30 28 27 26 25 23 23 22 22 22 22 21 22 22 22 23 23 25 25 26 26 27 29 30 31 32 33 33 32 32 33 33 33 33 31 30 28 28 28
36 34 34 32 31 30 29 28 27 25 24 24 25 25 24 23 24 24 25 25 26 26 28 28 29 30 31 32 33 35 35 35 35 34 34 34 35 36 35 33 32 31 30
41 39 37 36 35 33 32 30 29 27 25 26 27 25 25 26 26 26 27 28 30 30 30 31 32 32 32 33 35 37 37 38 38 38 37 36 37 39 38 37 35 34 33
43 41 40 38 36 34 33 32 31 29 28 29 28 27 28 27 28 28 29 30 32 32 32 33 34 35 36 36 37 39 40 41 41 41 41 41 41 39 39 41 40 39 38
43 42 40 39 37 37 35 34 33 31 31 32 31 31 30 30 30 30 31 32 34 34 34 35 36 37 39 39 40 41 41 41 40 42 44 43 44 43 42 42 44 45 44
42 41 41 41 40 39 38 37 36 35 35 35 32 31 33 33 34 35 34 35 36 36 36 38 39 41 41 41 42 42 42 42 42 43 45 46 47 46 47 45 45 43 44
42 41 41 41 41 40 40 39 39 37 36 35 33 33 34 36 37 37 37 37 38 37 38 41 43 43 45 44 44 44 45 45 45 46 48 49 49 51 49 49 50 48 45
44 43 42 41 40 41 42 42 39 38 37 36 35 35 37 38 38 39 39 39 40 41 41 43 45 46 46 46 48 49 48 46 47 47 48 48 48 50 51 52 52 52 52
44 43 44 44 43 43 42 40 39 38 37 38 39 40 40 41 41 41 42 41 41 42 44 46 46 45 46 48 50 51 51 48 48 47 48 47 47 50 51 52 54 54 53
48 47 45 43 43 42 43 43 43 40 39 40 41 43 45 45 45 44 43 43 45 46 48 49 47 47 49 49 47 48 49 50 48 45 46 47 50 52 55 56 59 58 56
47 46 46 49 51 47 44 43 43 46 47 45 44 45 46 47 46 44 44 46 48 51 51 50 48 51 51 51 49 49 48 47 47 47 45 51 56 56 58 57 59 62 61
41 43 46 47 47 50 53 51 48 45 45 45 45 45 45 43 43 43 45 47 50 51 51 49 50 52 53 51 48 48 46 47 46 49 53 55 56 56 59 62 63 66 65

GFSSE_500_spd_060.txt.gz
Wind_Speed
14 14 12 11 10 10 9 9 8 5 3 2 1 2 3 4 5 8 10 12 12 13 12 12 11 12 12 13 13 14 15 15 15 16 17 17 17 16 16 17 17 18 17
17 15 15 12 11 11 10 9 7 5 4 2 3 4 6 7 8 10 11 11 11 11 11 12 12 13 13 14 14 14 15 15 16 16 17 17 17 17 17 17 17 18 19
17 16 15 15 13 13 11 9 7 6 4 4 5 6 8 9 10 10 11 11 11 12 11 11 11 12 12 13 13 14 15 16 16 16 17 17 18 17 17 17 17 17 18
17 16 16 16 15 13 10 8 6 6 5 5 6 8 9 11 11 11 11 11 12 12 12 11 11 11 13 13 14 15 16 17 17 17 18 18 18 18 18 18 18 19 18
17 15 13 14 13 11 10 8 6 6 6 6 6 8 10 11 12 13 13 13 13 13 13 12 13 14 14 15 16 16 17 18 18 17 16 18 18 18 19 20 20 19 18
19 18 13 13 12 10 8 7 8 7 7 7 8 9 11 12 14 15 14 14 13 13 13 13 14 15 16 16 17 18 19 20 19 19 18 18 18 19 19 19 19 19 20
19 19 14 13 11 10 9 8 10 11 9 9 9 10 12 13 15 16 14 13 13 14 13 14 14 15 16 18 18 19 20 21 21 22 22 22 21 21 21 21 20 20 20
20 18 16 14 13 12 10 9 9 10 11 13 14 13 13 15 16 16 15 14 14 14 14 14 15 16 17 18 18 19 20 20 21 22 22 23 23 23 23 23 22 21 21
21 19 18 15 14 13 12 10 10 10 11 11 14 17 18 18 17 15 15 14 14 14 15 15 16 17 17 19 20 20 20 21 22 22 22 23 24 24 24 24 25 24 23
24 22 18 17 17 16 14 12 11 12 12 12 12 14 18 19 18 16 15 15 15 15 16 16 17 18 19 19 21 22 22 22 23 24 25 25 25 25 26 26 25 25 24
24 22 21 20 19 18 16 15 14 14 14 13 14 15 16 17 17 17 18 18 18 18 18 18 18 19 20 20 21 22 23 24 25 26 27 27 27 28 27 26 25 25 25
27 25 23 22 21 20 18 17 17 15 15 15 16 16 16 16 16 17 18 19 20 20 20 20 21 22 23 23 23 24 25 26 26 27 28 28 29 29 29 28 27 25 25
29 27 25 24 23 22 21 19 19 18 18 18 18 18 18 18 19 19 20 21 20 20 20 20 22 23 24 25 25 26 27 27 28 30 31 31 30 30 30 30 30 29 28
31 27 26 25 25 24 23 22 21 21 21 20 19 19 20 20 21 21 21 21 20 21 21 22 23 24 26 27 27 27 29 30 30 31 31 33 33 33 33 32 32 32 30
31 31 30 29 29 28 26 25 24 24 23 22 21 21 21 22 22 22 21 22 22 23 23 24 26 26 27 28 29 30 31 32 32 32 33 34 35 36 36 35 35 34 34
35 34 33 33 32 32 30 27 26 26 25 24 24 23 24 24 24 23 22 24 25 25 26 28 28 29 30 29 30 31 33 34 35 36 36 36 35 36 37 37 38 38 38
39 37 36 35 32 31 29 29 29 28 28 27 26 26 25 26 25 25 25 26 27 28 29 30 31 32 32 32 32 34 35 38 39 38 38 38 37 36 37 37 37 39 40
42 39 38 37 36 35 34 33 32 32 30 28 29 28 28 28 28 27 27 29 30 32 32 33 34 34 35 35 35 37 39 40 41 40 39 39 39 39 40 41 43 42 42
43 41 40 39 38 37 37 35 34 34 32 32 32 32 30 30 30 29 30 32 33 34 34 36 36 37 36 38 38 40 41 42 42 41 42 42 42 43 44 44 45 44 44
48 45 43 41 39 39 39 38 36 36 35 35 34 34 33 32 33 32 31 34 36 37 38 38 38 38 38 41 42 41 42 42 42 42 42 43 43 45 44 44 46 46 44
52 48 46 44 42 42 42 41 40 38 38 36 36 35 35 35 35 35 35 36 38 39 40 40 40 42 42 43 45 43 42 43 43 44 44 43 43 45 45 46 46 46 47
54 50 47 47 45 44 43 43 42 41 40 38 38 38 38 37 37 37 39 40 41 42 42 43 44 44 44 45 46 47 43 43 44 45 45 45 44 44 44 45 45 48 49
48 49 47 47 48 47 46 46 45 44 43 42 42 42 41 40 40 40 41 44 44 45 45 45 46 46 46 47 47 46 46 46 47 45 45 43 43 43 44 46 49 53 52
45 45 48 47 46 46 45 45 44 43 43 43 44 44 44 44 44 44 45 47 46 46 45 44 46 47 49 49 47 47 48 48 49 46 44 42 42 42 44 49 53 53 52
43 47 47 47 46 45 44 44 43 43 43 43 43 44 44 47 48 48 49 49 48 46 45 47 49 51 50 49 47 47 48 47 45 45 42 41 39 43 47 51 52 53 53
38 42 46 48 48 48 49 49 49 49 49 48 47 47 51 51 48 49 50 49 46 46 47 49 52 52 51 49 48 49 48 45 45 45 42 39 42 46 49 50 53 52 50

GFSSE_500_spd_063.txt.gz
Wind_Speed
14 12 10 9 8 8 7 6 5 5 4 3 2 2 3 4 4 6 8 9 9 9 8 8 10 9 9 10 11 11 12 13 14 14 15 15 15 15 15 15 16 15 15
15 13 12 10 10 9 9 7 6 5 3 2 1 2 4 4 6 8 9 9 8 10 11 10 10 10 10 10 11 12 13 14 15 16 16 16 16 16 15 15 16 16 16
15 14 13 12 11 10 9 8 7 5 3 2 3 3 4 6 7 8 9 9 10 10 10 10 11 11 11 12 13 13 14 14 15 15 16 16 16 15 16 16 16 17 17
15 15 14 13 12 11 10 9 8 5 3 4 4 4 5 7 7 8 9 10 11 11 10 11 11 12 12 13 13 14 15 16 17 18 18 18 18 17 17 17 17 16 16
15 13 14 14 13 12 10 9 8 5 4 5 5 6 6 8 8 8 9 10 11 11 11 10 11 11 12 13 14 15 16 16 17 18 18 19 19 20 20 20 20 19 18
18 16 14 14 12 11 10 9 8 6 5 5 6 6 7 7 9 10 11 11 11 11 11 11 12 12 13 13 14 15 16 16 16 17 18 19 20 21 21 21 21 21 21
20 18 17 14 13 11 10 9 8 7 6 6 6 6 7 8 9 11 12 12 12 12 12 12 13 13 14 14 15 16 17 18 18 19 20 20 21 22 23 23 22 22 22
22 19 17 16 15 13 11 9 8 7 8 9 9 9 9 10 10 11 12 12 12 12 12 13 14 15 15 15 16 17 18 19 20 20 21 22 23 23 24 25 24 24 24
24 21 20 18 17 14 13 10 8 8 8 9 11 13 14 12 12 12 12 12 13 13 12 13 15 16 17 17 18 19 19 20 21 21 22 23 24 24 25 26 26 26 25
25 22 21 20 18 17 15 12 10 10 10 9 10 12 15 17 15 14 13 13 14 14 14 15 16 17 18 19 19 19 20 21 22 22 23 25 26 27 27 27 28 27 27
25 25 23 21 20 19 17 14 12 12 12 10 10 11 14 15 16 16 16 16 16 16 16 16 17 18 18 19 20 21 22 22 22 23 24 25 26 28 28 28 27 27 27
29 26 25 24 23 21 18 16 14 13 13 12 12 13 14 15 15 16 17 17 17 17 17 17 18 19 19 20 22 23 24 24 24 25 25 25 26 28 28 29 29 28 28
31 28 27 26 24 22 20 18 17 16 15 14 14 15 15 15 15 17 17 18 17 16 16 17 18 20 21 22 24 24 25 25 25 26 26 27 29 29 30 31 31 31 31
34 29 28 27 25 23 22 20 19 18 17 17 17 17 17 18 18 19 19 19 18 17 17 19 20 22 23 25 26 26 27 27 27 27 28 29 31 33 34 33 33 32 31
34 31 31 30 29 27 25 23 22 22 20 20 20 20 20 20 21 22 21 21 20 20 20 21 23 24 25 26 28 28 29 29 30 30 31 33 34 34 34 35 35 35 34
36 35 34 32 31 29 28 27 25 25 24 23 22 22 23 23 24 24 24 24 23 22 23 24 25 26 27 29 30 31 31 31 32 33 34 35 36 35 35 35 35 34 35
39 39 37 35 34 32 31 30 28 26 24 25 25 25 26 27 27 26 26 26 25 25 25 27 28 29 31 31 33 34 33 33 34 36 36 37 36 37 38 39 38 38 38
45 40 39 39 36 34 32 29 27 27 28 29 29 29 29 30 29 28 28 29 28 28 28 29 31 32 33 35 35 36 36 37 38 39 39 39 39 39 41 40 39 40 40
44 44 43 40 38 36 35 33 33 32 32 32 33 33 33 31 30 30 30 31 32 31 31 33 34 35 36 37 38 38 40 40 40 40 40 41 41 42 41 41 41 42 41
43 45 43 41 42 41 40 38 37 36 36 36 36 35 35 34 33 32 32 32 34 34 34 35 36 38 38 40 40 40 42 42 42 41 41 42 42 42 42 42 43 42 41
48 44 44 43 44 43 42 41 41 40 40 39 39 38 38 37 36 35 34 34 36 36 37 38 40 41 42 43 42 41 42 43 43 43 42 42 42 43 42 42 43 42 40
56 50 46 46 47 48 48 47 45 44 41 40 40 40 40 40 39 38 37 37 38 38 39 41 43 46 46 45 44 44 42 43 44 44 43 42 43 42 41 42 41 40 39
49 52 53 51 49 50 49 49 46 45 43 43 43 43 43 43 42 41 40 41 42 42 42 45 47 50 48 46 45 46 47 46 44 42 41 42 42 41 41 39 39 39 43
45 44 44 49 53 53 53 52 50 47 46 45 45 45 46 46 45 45 45 46 45 45 48 48 49 50 48 44 46 48 49 48 46 44 42 42 40 40 38 38 39 43 46
43 40 40 40 42 44 48 51 51 50 49 47 46 47 47 47 47 47 48 48 49 52 50 50 50 48 45 45 47 49 49 47 44 44 44 40 40 38 37 38 41 44 46
39 38 39 42 44 45 46 47 47 48 48 48 47 46 46 46 47 49 49 51 52 50 50 48 46 45 46 48 50 50 49 45 43 44 43 41 41 37 35 39 43 43 45

GFSSE_500_spd_066.txt.gz
Wind_Speed
15 13 12 11 10 9 8 6 4 4 3 3 4 3 2 2 3 4 6 7 8 8 9 9 8 9 10 9 10 10 11 12 13 13 14 15 16 16 17 17 15 15 16
16 15 13 11 11 9 8 7 5 5 4 3 2 2 1 2 4 4 6 7 7 7 8 8 8 8 9 10 11 11 12 13 14 14 15 16 17 17 18 19 19 18 17
16 16 13 11 10 10 8 8 6 6 5 4 3 3 3 3 4 5 6 7 8 7 7 7 8 8 9 10 11 11 12 13 13 14 15 15 16 17 17 18 19 19 20
17 16 14 12 11 10 9 8 8 6 6 4 3 3 4 4 5 5 6 7 8 9 8 7 8 9 10 10 11 12 12 13 14 14 15 16 17 18 19 19 19 20 21
16 14 12 13 12 11 10 9 9 8 7 5 4 3 4 5 5 6 6 8 8 9 8 8 9 10 11 11 12 12 13 14 15 16 17 18 18 20 20 21 21 22 21
18 15 13 12 12 13 11 10 10 9 7 5 4 5 5 5 6 6 6 7 8 9 9 9 10 10 11 12 12 13 14 15 16 17 18 19 20 22 23 23 23 24 23
20 18 16 14 13 13 12 12 10 9 7 6 5 6 6 5 6 7 7 8 8 9 10 10 11 11 12 12 12 14 15 16 17 18 19 20 21 23 23 23 24 24 24
24 21 19 16 15 14 13 12 11 9 8 7 7 7 6 6 7 8 8 9 9 10 11 11 12 13 14 14 14 16 17 17 18 18 19 19 20 22 22 23 24 25 24
27 25 22 19 19 17 15 14 12 10 9 8 8 9 7 7 8 9 9 10 10 11 11 12 14 14 15 15 16 17 18 18 18 19 19 20 21 22 23 25 26 26 25
29 27 23 22 22 20 19 16 14 12 11 10 9 10 11 11 10 10 10 10 11 12 13 14 14 15 16 16 17 17 18 20 20 20 21 23 23 24 25 26 26 26 27
32 28 25 24 24 23 22 19 17 15 14 12 11 11 11 13 14 13 12 11 12 13 14 14 15 16 18 18 18 19 20 21 22 22 23 24 25 26 27 28 29 29 29
36 30 26 26 26 25 24 21 19 17 16 14 13 13 13 13 14 14 14 14 14 15 15 15 16 18 19 19 19 21 22 23 24 24 25 25 26 27 28 30 31 31 31
37 31 29 29 29 27 25 22 20 19 17 15 15 15 14 14 15 15 15 15 15 16 16 16 18 19 20 21 21 22 23 24 25 26 27 27 27 28 31 32 32 31 31
39 34 30 30 29 27 26 24 23 20 19 17 17 17 16 16 17 17 17 17 18 17 18 19 20 21 22 22 23 24 26 28 28 29 29 30 29 31 30 33 33 33 32
38 35 33 32 32 30 28 26 25 23 21 20 20 20 19 19 19 19 20 20 20 20 20 22 23 23 24 25 26 27 29 30 31 31 31 32 32 33 33 33 33 33 34
39 37 35 36 34 32 32 29 28 27 24 23 22 22 22 21 21 22 23 23 23 22 23 24 25 27 27 28 29 30 31 32 33 32 33 35 35 35 35 34 34 35 34
40 39 37 37 36 35 35 33 31 29 27 25 24 24 24 24 24 26 25 26 25 25 26 27 28 30 30 30 32 32 34 34 35 36 36 37 37 37 36 36 36 36 36
41 40 41 41 38 38 37 35 33 30 28 28 27 27 27 27 27 28 28 28 28 29 29 30 31 31 32 32 33 35 36 37 39 39 39 39 40 39 38 38 37 38 38
42 42 42 39 42 40 39 37 34 32 31 31 31 30 30 30 30 30 31 32 32 31 32 33 33 34 34 35 36 38 40 40 40 40 40 41 42 41 41 39 40 40 39
42 41 41 41 42 43 42 39 37 35 35 35 35 34 34 33 34 33 33 34 35 35 35 35 36 36 36 37 39 41 42 42 42 41 42 42 43 43 42 41 41 40 38
44 42 40 41 43 41 43 41 40 39 40 39 39 39 39 38 36 36 35 36 37 37 38 38 39 39 39 40 43 44 44 44 42 42 43 44 45 44 42 42 41 39 38
45 44 42 43 44 41 38 38 40 42 42 43 43 43 42 41 40 39 39 39 39 39 40 41 42 42 42 44 47 48 48 46 42 43 45 47 47 45 42 41 40 40 39
51 48 48 47 48 47 43 42 43 45 47 48 49 47 45 44 43 43 42 42 41 42 42 43 44 45 47 49 51 51 51 47 43 43 45 46 45 43 43 41 42 42 39
51 53 55 55 54 54 54 52 53 53 52 50 49 48 47 46 46 45 45 45 45 44 44 45 46 48 50 53 50 50 48 46 46 48 46 44 44 42 42 41 43 41 39
53 52 49 50 51 50 53 53 53 55 54 50 50 51 50 49 49 48 47 47 47 46 47 47 49 50 52 50 48 44 44 45 48 50 47 44 43 43 41 43 42 41 37
52 50 49 50 49 48 47 48 50 51 52 54 54 53 53 52 52 51 50 49 48 48 50 51 51 47 47 46 44 43 45 48 50 49 46 44 43 42 42 43 41 38 38

GFSSE_500_spd_069.txt.gz
Wind_Speed
15 15 14 13 12 11 9 7 5 4 3 4 5 4 4 2 1 2 3 3 4 6 7 8 7 7 8 8 9 10 11 11 12 13 14 15 16 16 17 18 19 19 20
19 16 15 14 12 11 9 8 6 4 4 4 4 3 3 2 2 3 4 4 5 6 7 7 7 7 7 8 9 10 10 11 12 13 14 16 17 18 19 20 20 20 20
20 18 16 14 12 11 10 8 6 5 5 5 4 3 3 3 3 4 5 5 5 6 7 7 7 8 8 9 9 10 11 12 13 14 16 17 18 19 20 21 22 23 22
19 17 16 15 12 11 10 9 7 6 7 7 5 4 4 4 4 4 5 5 5 6 7 7 8 8 9 9 9 10 11 12 13 14 15 16 17 19 19 20 22 23 23
21 18 17 16 14 12 12 11 9 8 8 7 6 5 4 5 5 5 5 6 6 7 7 8 8 9 9 9 10 10 12 13 13 14 15 16 17 18 19 21 22 22 23
22 19 17 16 15 13 12 12 11 11 10 9 7 5 5 6 5 5 6 6 6 7 7 8 9 9 10 10 11 12 13 14 14 14 15 16 17 19 20 22 23 24 25
25 22 18 17 16 13 13 14 13 12 12 10 8 5 6 6 6 5 6 6 7 7 7 8 9 10 11 12 12 13 14 14 15 16 17 18 19 20 22 22 23 25 25
26 23 20 19 18 15 13 14 14 13 12 10 9 7 7 7 6 5 6 6 7 7 8 9 10 11 12 13 14 14 15 16 17 18 19 19 20 22 23 23 24 25 25
29 27 23 21 21 18 16 15 16 14 12 11 10 9 8 7 6 6 6 7 8 8 9 10 11 12 12 13 15 16 16 17 18 19 19 20 22 23 23 24 25 25 26
31 29 25 24 23 21 19 18 17 15 13 12 11 10 9 8 6 7 7 8 9 10 11 12 12 12 13 14 15 17 18 19 20 21 22 23 24 24 25 27 26 27 27
33 32 28 27 25 25 22 21 19 17 15 14 13 13 11 10 9 9 9 9 10 11 12 13 14 14 15 16 18 19 21 22 23 24 25 26 27 27 28 29 30 29 29
35 33 32 29 28 27 26 24 23 21 18 17 16 15 13 12 12 12 12 12 12 13 15 15 16 16 17 19 20 21 23 24 25 26 26 27 28 29 30 31 32 31 31
38 37 35 31 30 30 30 27 25 23 21 19 18 17 16 14 14 14 13 13 14 14 15 16 17 18 19 20 21 23 25 27 27 28 28 29 29 29 31 33 32 32 31
41 38 34 31 29 29 31 29 27 25 24 21 19 18 17 17 16 16 16 15 15 16 17 17 18 19 21 22 23 24 26 28 30 30 31 31 30 32 32 33 34 33 32
42 40 38 34 31 30 31 31 29 27 25 23 21 20 19 19 18 18 18 18 17 18 19 19 20 22 23 24 26 27 28 30 31 33 33 32 33 35 34 34 34 34 33
45 43 41 37 34 32 32 32 30 29 27 25 24 23 22 21 21 21 21 20 19 21 21 22 23 24 25 27 28 29 30 31 33 35 35 34 36 36 35 36 35 35 33
46 44 43 40 36 35 34 34 33 31 30 29 27 26 25 25 24 23 23 22 22 23 24 25 26 27 28 29 30 31 31 33 35 38 37 38 38 37 37 37 38 37 35
46 43 42 39 37 35 35 36 36 35 34 32 31 30 30 28 26 24 25 26 25 26 27 28 29 30 30 31 33 33 33 35 37 41 40 40 40 39 37 39 40 40 36
46 45 43 40 39 36 37 38 38 37 37 36 35 34 33 31 28 28 28 29 29 29 30 31 31 32 33 34 35 36 37 37 40 43 42 43 42 39 40 42 42 41 38
47 46 43 42 40 38 38 39 42 38 40 38 37 36 35 34 32 32 32 33 33 32 33 33 33 35 35 36 39 38 39 41 43 45 45 45 43 42 42 44 45 42 40
47 45 43 43 42 40 39 39 38 45 41 40 38 38 38 37 36 37 37 36 36 36 36 36 36 37 37 39 41 41 42 44 45 47 45 45 42 43 44 46 46 44 41
47 46 44 42 42 39 37 39 41 41 42 48 40 41 41 41 40 40 40 41 40 39 39 39 40 40 40 42 44 44 45 46 49 46 42 41 42 44 47 49 47 43 43
54 49 45 44 43 42 41 40 42 43 39 37 42 45 43 44 43 44 44 44 44 44 42 42 43 43 43 44 44 46 49 51 48 44 39 38 42 46 49 50 47 44 44
52 56 48 47 45 44 43 47 48 47 45 45 46 46 46 47 47 47 48 46 46 46 46 46 46 46 46 46 46 48 50 47 46 44 43 41 46 49 50 48 45 45 44
49 48 49 52 48 47 50 53 51 52 53 53 52 52 54 56 55 52 50 49 50 50 49 49 48 47 46 47 50 49 44 45 45 44 44 45 49 49 48 45 45 44 45
52 49 47 49 48 57 59 54 54 55 58 60 62 62 60 58 57 55 54 53 52 52 51 50 48 48 49 50 48 44 46 47 42 45 48 49 48 47 46 46 46 46 47

GFSSE_500_spd_072.txt.gz
Wind_Speed
17 15 15 12 11 10 9 9 7 5 4 2 2 2 2 2 2 2 2 3 4 4 5 6 7 6 7 7 8 8 9 10 11 12 13 14 15 16 17 18 19 21 22
21 15 14 13 12 11 10 9 6 5 3 2 2 2 2 2 2 2 3 4 4 4 5 7 7 7 8 8 8 8 9 10 11 12 13 14 15 15 16 17 19 21 22
21 19 16 14 13 12 12 9 8 7 5 4 4 3 3 3 3 3 3 4 4 4 5 6 6 7 8 8 9 9 8 9 10 12 13 14 15 15 16 18 20 22 23
22 20 18 17 14 13 12 11 10 9 7 6 5 4 5 4 3 4 3 3 3 4 5 5 6 7 8 8 9 9 9 9 10 12 13 14 15 17 18 20 21 22 23
23 20 18 17 16 14 12 11 11 10 9 8 7 5 5 4 3 4 4 4 3 4 5 5 6 7 7 8 8 9 11 11 12 13 14 15 17 17 19 21 21 22 23
24 21 18 17 16 15 13 12 11 11 11 10 9 7 6 5 4 4 4 4 3 3 4 5 6 7 7 8 9 11 12 13 13 14 15 16 18 18 21 21 21 23 24
27 23 20 18 16 15 14 12 12 13 13 11 10 8 7 5 4 4 4 3 3 3 4 5 7 8 9 10 10 11 13 13 14 16 17 18 19 20 21 21 22 24 25
29 26 22 20 17 16 16 14 14 14 14 13 12 10 8 6 5 5 4 4 3 3 4 6 7 8 9 10 11 12 14 15 16 18 19 20 21 21 22 22 24 25 25
29 27 23 22 20 18 17 16 15 15 15 14 12 11 9 7 7 6 5 5 4 4 5 6 8 9 9 11 12 12 14 16 18 19 20 22 24 24 23 24 25 27 27
32 28 26 24 22 21 19 18 16 17 16 15 14 12 11 9 8 6 6 6 6 6 7 8 9 10 10 10 12 14 16 18 20 22 23 25 26 26 26 26 26 27 27
31 30 28 26 24 22 23 21 19 18 19 16 15 13 12 10 9 8 7 7 7 8 9 9 10 11 11 13 14 16 17 20 21 23 25 27 29 29 28 28 28 28 28
32 32 29 29 26 23 25 24 22 21 20 18 17 15 13 12 12 11 10 9 9 9 10 12 13 13 14 14 15 17 19 21 22 24 26 28 30 30 29 29 30 29 29
36 34 31 31 27 25 26 26 25 24 22 22 20 17 15 15 14 13 13 12 11 12 12 13 14 15 15 16 17 19 21 23 23 25 26 29 31 31 31 32 31 30 30
30 31 33 32 28 24 23 26 27 26 25 24 22 20 18 17 17 16 15 14 13 13 13 14 15 16 17 18 19 20 23 24 24 26 27 31 33 33 33 33 33 31 31
35 32 33 33 31 28 25 25 27 28 27 26 25 23 21 20 20 18 17 17 16 15 15 16 17 18 19 20 21 23 24 25 26 26 28 31 36 36 35 35 33 31 31
37 36 35 35 34 31 29 26 28 28 28 27 27 26 25 23 22 21 20 20 19 18 18 19 19 21 21 22 24 25 25 27 27 28 30 32 37 38 37 37 34 32 32
38 40 36 37 38 34 31 29 30 29 29 29 29 30 28 26 24 23 22 22 21 21 21 21 22 23 24 24 26 26 27 28 29 30 31 34 37 39 39 39 36 33 35
46 44 43 43 40 38 35 32 31 31 31 31 32 33 33 29 28 26 25 25 24 24 24 25 26 26 27 27 28 29 30 30 31 34 35 37 39 40 39 40 36 36 37
49 47 48 45 41 40 35 34 32 32 34 34 36 36 36 33 30 29 28 28 27 27 27 28 29 30 30 30 30 31 33 33 34 35 36 38 42 43 40 39 37 37 39
50 46 47 44 42 39 37 36 35 34 33 35 36 37 36 34 33 31 31 31 31 31 31 31 31 32 32 33 34 34 35 36 37 38 39 39 43 43 41 38 36 39 41
50 49 46 45 43 41 38 39 38 36 37 31 37 40 38 37 35 33 35 35 35 35 34 34 35 35 35 36 37 38 38 39 40 41 40 42 41 40 39 39 40 41 44
58 48 49 45 45 44 41 40 40 39 38 36 32 35 43 45 37 36 37 39 38 38 38 39 39 38 38 39 40 42 41 39 41 43 45 39 37 38 40 41 43 46 47
49 55 54 45 44 46 45 43 40 37 37 37 37 39 39 39 45 45 44 43 42 42 42 42 42 43 42 41 42 44 45 44 43 44 41 39 37 37 40 43 46 47 45
51 50 54 55 52 45 46 44 43 42 41 42 42 41 41 42 42 48 48 47 46 46 49 47 46 46 46 46 45 46 45 45 46 43 42 42 41 39 43 45 48 46 44
48 51 49 46 48 52 52 49 45 45 45 45 48 50 48 46 47 49 51 52 52 54 53 52 49 49 49 49 50 48 45 47 45 45 42 43 43 42 46 48 48 44 44
42 47 46 47 46 46 52 53 49 47 49 51 54 51 50 52 56 58 59 60 60 59 57 55 54 52 52 51 49 48 49 48 45 43 43 42 43 45 48 49 46 44 45

GFSSE_500_spd_075.txt.gz
Wind_Speed
19 16 14 12 11 9 8 7 7 6 5 4 3 3 3 2 2 3 4 4 4 4 4 4 5 6 6 6 6 6 6 7 8 9 10 11 12 14 15 16 18 20 20
21 18 15 15 13 11 10 9 8 7 6 5 3 3 4 3 3 3 4 4 3 3 3 4 5 5 5 6 6 6 6 7 8 9 10 11 13 15 16 17 19 20 20
23 20 18 15 14 13 11 10 9 8 7 5 4 4 4 3 3 4 4 4 3 3 3 3 4 4 5 5 5 6 7 8 9 10 10 12 14 15 16 17 19 19 21
24 22 21 17 15 13 12 11 10 9 8 7 6 5 5 5 4 4 4 4 3 2 2 2 3 3 4 4 5 6 8 9 11 11 12 13 14 14 15 18 18 19 21
25 23 21 20 17 15 13 12 11 11 10 8 8 7 7 6 5 5 4 4 3 2 2 1 2 3 4 5 6 7 8 9 10 11 13 14 15 15 17 18 19 20 23
27 24 20 20 18 17 14 13 12 11 11 10 9 9 8 8 6 5 4 4 3 2 2 1 1 2 4 6 7 7 8 9 10 12 14 15 16 17 19 19 20 21 23
29 26 22 20 18 16 15 14 13 12 12 12 11 11 10 9 7 5 5 4 4 4 3 2 3 4 5 6 6 7 8 10 12 13 14 15 18 20 21 20 20 21 23
32 27 24 22 19 17 15 15 14 13 14 14 13 13 12 10 8 7 6 6 6 5 5 4 4 4 5 6 6 7 9 11 12 14 15 16 19 21 22 21 21 21 23
33 30 27 24 21 19 17 15 15 15 15 15 15 15 14 12 9 8 7 7 7 6 6 5 5 5 5 6 7 8 9 11 14 14 16 18 21 23 24 23 23 23 23
37 33 28 25 23 22 19 17 17 15 16 16 17 16 15 13 11 10 8 8 7 7 6 6 6 5 6 6 7 9 10 12 14 16 17 19 21 24 25 24 23 25 26
38 34 31 26 23 21 21 19 19 18 18 18 17 18 17 15 13 11 10 9 8 8 7 7 6 6 6 7 8 10 12 14 16 17 19 20 22 25 26 26 26 26 27
40 36 32 28 25 22 21 21 21 20 20 19 18 18 17 16 14 12 11 10 10 9 9 9 9 8 8 9 10 11 13 15 17 19 20 21 23 25 29 28 27 27 27
34 35 32 29 26 24 21 22 22 22 21 21 20 19 18 17 16 15 14 13 12 11 11 10 10 11 11 12 13 13 15 17 19 21 21 22 24 26 29 30 28 28 27
27 32 30 29 26 24 22 22 22 24 23 22 22 22 21 20 18 18 16 16 15 14 13 12 12 13 14 14 15 16 18 19 20 22 23 24 25 27 29 30 30 30 29
38 32 35 34 26 24 23 23 22 25 25 24 23 24 24 23 21 20 19 19 18 17 16 16 15 16 17 17 18 19 20 22 23 24 25 26 28 28 30 32 32 31 31
35 36 37 26 25 25 26 26 24 24 26 25 26 25 26 26 24 22 21 21 20 20 19 18 18 18 18 19 20 21 22 23 25 26 27 28 29 31 32 34 35 33 32
33 35 40 29 26 27 26 28 26 26 26 27 28 28 28 28 28 25 23 23 23 22 22 21 20 21 21 21 22 23 24 25 26 27 28 29 30 32 35 36 37 34 33
48 43 33 31 29 25 29 30 30 29 28 30 29 30 31 30 29 29 26 25 24 24 24 24 23 23 23 24 25 25 25 27 28 29 31 33 34 34 34 37 38 36 33
52 47 44 38 34 31 35 35 33 33 31 31 31 33 32 32 31 30 29 28 27 26 27 27 26 25 26 27 27 28 29 29 30 31 33 34 35 37 38 36 32 34 34
45 49 45 43 41 40 38 39 37 37 33 31 32 33 32 33 33 32 31 32 31 29 29 30 29 28 28 29 30 31 32 32 33 35 35 36 37 39 41 37 36 33 33
49 43 48 43 41 43 40 40 37 37 36 34 32 34 29 30 34 33 34 35 34 33 34 34 34 32 32 33 33 34 34 35 36 38 38 38 37 40 39 39 38 34 35
48 49 49 49 45 42 41 42 40 40 35 35 36 35 34 34 31 38 39 38 37 37 39 38 39 38 36 37 39 38 36 36 38 40 41 41 40 39 39 39 39 36 37
48 49 49 49 53 43 42 43 42 40 41 38 40 40 38 36 39 37 38 39 46 48 48 44 42 43 41 42 44 46 45 43 40 39 40 41 41 39 39 39 36 37 38
49 43 47 50 48 55 46 42 42 42 41 41 40 40 41 40 41 40 40 42 39 43 49 50 49 48 49 50 48 45 48 47 48 47 41 43 42 41 39 38 37 39 40
45 50 49 45 48 46 51 55 51 44 44 44 45 45 45 45 45 46 45 45 45 44 47 50 53 54 56 55 54 54 52 49 49 47 45 44 44 42 39 38 39 41 43
27 34 46 48 48 47 48 49 50 52 51 47 49 48 47 46 48 48 48 50 50 54 55 57 59 59 59 56 55 55 53 49 46 45 45 45 44 43 41 40 41 42 46

GFSSE_500_spd_078.txt.gz
Wind_Speed
20 18 16 14 12 10 9 7 7 6 6 5 5 4 4 4 3 3 3 3 5 4 4 4 3 2 2 2 2 2 3 4 5 7 8 9 11 12 13 14 16 16 18
21 19 19 17 14 12 10 9 8 8 7 7 6 4 4 4 3 4 4 5 5 4 4 3 2 1 1 1 1 2 3 4 5 7 8 9 10 11 13 14 16 16 18
24 22 20 18 16 14 12 10 9 9 8 8 7 6 5 4 4 4 5 5 5 5 4 4 3 2 1 1 2 2 3 4 6 7 7 10 11 12 14 16 16 17 19
26 24 21 20 16 15 14 12 11 11 10 9 8 6 6 6 6 6 6 6 6 6 5 5 3 2 1 1 2 3 4 5 6 7 8 10 12 13 15 16 17 17 19
28 26 24 22 19 15 14 14 13 12 11 10 9 9 8 8 8 7 6 6 6 6 6 5 4 3 1 3 3 3 5 5 6 8 9 10 12 14 16 17 17 18 19
31 28 26 24 22 19 16 15 15 13 13 12 11 10 10 9 9 8 7 7 7 7 7 6 5 3 3 3 3 2 4 5 6 8 9 11 12 15 17 18 18 18 19
33 31 27 25 23 21 19 16 15 15 14 13 13 12 12 11 11 10 9 8 8 8 8 7 6 5 5 3 3 3 4 5 7 8 9 11 13 15 17 19 18 18 19
37 33 29 26 24 22 19 17 17 15 14 14 14 14 14 13 12 11 10 10 9 9 9 8 7 5 5 4 3 4 5 5 7 8 10 11 13 15 18 19 19 18 20
39 35 31 27 25 22 19 17 16 16 15 16 15 16 15 15 14 13 12 11 11 11 10 9 8 6 5 5 5 5 6 5 7 9 11 12 14 17 19 20 20 20 21
38 36 34 32 29 25 22 19 17 16 16 16 17 17 18 16 15 15 13 13 12 11 10 10 9 7 6 6 6 6 6 8 9 12 13 14 16 18 20 22 22 21 21
45 42 39 35 31 28 25 22 19 17 17 16 18 19 19 18 17 15 14 13 12 12 11 10 9 9 8 8 8 8 8 10 11 13 15 17 18 20 22 23 24 22 22
44 44 40 36 31 28 24 21 20 18 18 18 17 19 20 19 19 17 16 14 13 12 12 12 11 10 10 10 10 10 10 12 13 15 17 18 20 22 23 25 25 25 24
49 47 44 35 32 27 24 21 20 20 20 18 19 20 20 21 20 18 16 15 14 13 13 13 13 12 12 12 12 12 12 14 15 16 18 19 21 23 25 27 27 27 27
32 38 43 35 31 28 25 22 22 21 21 20 20 22 21 22 21 19 17 16 15 16 15 15 15 15 15 15 15 15 15 15 17 18 20 21 23 24 26 28 30 30 29
33 30 36 39 36 31 28 24 23 22 22 22 21 23 23 24 23 23 20 18 18 18 18 18 17 17 17 17 18 18 18 19 19 20 22 24 25 26 27 29 30 30 31
50 29 37 37 39 33 27 24 24 23 22 22 23 24 24 25 26 25 24 23 22 21 20 19 20 19 19 19 20 20 20 21 22 23 25 26 28 29 30 31 32 31 32
50 37 28 29 35 31 29 26 25 23 21 21 24 26 27 27 28 28 27 27 26 24 22 22 21 21 21 22 22 22 23 23 24 25 27 28 29 30 32 34 34 34 32
30 44 36 32 32 29 31 32 26 23 22 22 24 26 28 30 31 30 29 29 29 27 25 25 25 25 25 24 24 23 24 24 26 28 29 30 31 32 34 34 35 36 33
34 28 37 39 40 38 28 29 27 24 24 25 25 28 31 31 32 32 30 30 30 30 28 28 28 28 28 28 27 27 27 27 29 30 32 32 33 34 36 36 36 33 30
32 31 34 36 41 45 37 26 24 26 28 27 28 30 32 33 31 33 32 31 32 32 32 32 31 32 33 33 32 30 31 31 32 33 35 36 37 36 37 40 41 37 31
31 33 34 37 37 42 37 34 34 30 35 34 32 33 33 33 33 30 32 34 34 35 36 36 36 36 35 36 36 35 32 35 36 36 38 41 40 39 41 41 41 38 38
33 33 37 40 40 39 37 34 34 40 39 40 37 35 34 34 34 35 36 31 35 38 36 37 40 40 39 39 40 39 36 35 38 42 42 44 44 44 45 42 40 39 39
33 33 35 42 42 42 40 40 44 40 38 42 40 41 40 36 37 39 39 39 38 36 38 40 41 44 47 47 48 47 45 43 46 44 43 45 47 47 45 43 41 40 38
32 35 36 41 41 42 45 46 44 47 49 43 45 43 42 42 43 42 40 40 41 42 42 41 42 42 46 48 49 51 54 54 55 54 49 49 50 47 45 43 41 39 37
40 41 40 38 45 46 42 45 46 46 47 48 46 45 42 40 42 44 44 43 45 45 44 44 46 48 48 47 48 50 54 56 57 57 55 46 45 47 45 43 39 38 37
44 45 47 46 45 46 48 49 47 42 40 42 46 46 42 41 41 43 45 48 45 46 48 48 52 53 54 56 56 55 56 55 53 53 53 50 47 46 45 43 39 38 37

GFSSE_500_spd_081.txt.gz
Wind_Speed
23 20 17 15 13 12 10 9 8 7 6 5 6 5 4 4 4 3 4 3 4 6 6 5 5 4 4 3 2 1 0 2 4 5 6 8 9 10 11 13 15 16 17
22 21 19 17 16 13 11 9 9 8 7 7 7 6 5 5 4 4 4 4 5 5 7 6 5 5 4 4 2 1 1 2 3 5 5 7 8 10 12 13 15 17 19
26 24 21 19 18 15 13 10 9 8 9 9 8 7 6 5 5 5 5 6 6 6 7 7 6 6 5 4 2 1 1 2 3 4 5 6 8 10 12 14 16 17 18
27 25 23 21 19 17 15 13 11 10 10 10 10 9 7 7 6 6 6 7 8 8 8 8 7 6 6 4 2 2 2 3 2 3 5 7 8 10 12 15 16 17 18
30 28 26 24 22 19 16 15 13 12 12 12 12 10 9 8 7 7 7 8 9 9 9 9 8 7 6 5 3 3 2 2 2 4 5 7 8 11 13 16 16 17 17
32 31 29 26 24 22 18 17 16 15 14 13 13 12 11 10 9 9 9 9 10 9 9 9 8 8 7 6 4 4 3 3 4 4 5 8 10 13 15 17 18 18 18
35 34 31 28 26 24 22 19 17 16 15 14 14 14 13 12 12 11 10 10 10 11 10 9 9 9 8 5 4 3 3 4 4 5 7 9 11 13 15 18 19 18 18
38 38 34 31 29 27 25 22 19 18 17 16 16 15 15 14 13 13 12 12 11 11 10 10 10 10 8 6 5 4 5 5 5 6 8 9 12 14 17 19 20 19 19
41 40 36 33 31 28 26 23 21 20 18 17 16 15 16 15 16 15 14 13 12 12 11 11 10 10 9 7 7 7 6 6 6 8 9 11 13 15 17 19 20 21 21
45 42 36 33 30 27 25 23 21 20 19 17 17 17 17 17 17 16 16 15 14 13 12 12 11 10 10 9 9 9 8 8 8 10 11 12 14 16 18 20 21 23 22
48 44 40 35 31 30 28 25 22 20 18 17 17 18 17 18 19 17 17 17 16 14 13 13 12 11 11 11 10 10 10 9 10 11 12 14 15 17 19 21 22 24 24
46 44 43 40 37 34 30 27 24 22 19 18 17 18 19 20 20 19 18 18 17 15 14 13 13 12 12 11 11 11 11 12 12 13 14 15 16 17 19 21 22 24 25
42 41 43 44 43 38 33 29 24 23 22 20 19 19 19 20 20 20 19 19 19 18 15 14 14 13 13 12 13 14 14 15 15 15 16 17 18 19 21 23 24 26 27
27 45 47 51 47 39 31 28 25 23 22 21 21 20 21 21 21 21 20 20 20 19 18 16 16 16 15 15 15 16 16 17 18 18 19 19 19 20 22 24 26 28 29
28 32 43 48 43 40 36 28 25 23 22 21 22 22 23 23 22 22 22 21 21 22 21 19 19 19 18 18 18 18 19 20 20 21 22 22 23 23 24 26 27 29 31
37 33 45 42 38 47 40 36 29 25 24 23 23 23 24 24 24 24 24 24 24 24 24 23 21 21 21 21 22 22 22 22 22 23 24 25 25 26 27 28 29 31 33
32 34 31 46 42 38 42 37 34 33 29 25 24 23 23 25 25 25 25 26 26 27 27 27 26 24 24 24 25 25 25 25 25 26 27 27 28 29 31 31 33 35 36
33 32 37 38 37 35 35 37 33 38 35 25 23 23 22 23 25 27 28 28 28 30 30 30 29 28 27 26 26 26 28 28 27 28 29 30 30 31 33 35 35 37 38
32 33 35 22 25 35 30 38 33 33 30 24 22 22 23 25 26 27 27 29 30 31 32 32 31 31 30 30 30 30 30 30 31 31 32 32 32 34 35 38 39 37 39
32 30 33 25 26 23 38 42 31 35 27 23 22 21 23 26 28 28 28 29 32 33 33 34 35 35 35 35 34 33 33 33 34 34 34 33 35 36 39 40 40 41 42
33 31 21 26 22 20 23 35 42 32 30 26 23 24 27 28 31 30 32 32 31 34 35 37 38 39 38 40 37 36 36 34 35 37 38 38 40 41 43 42 46 47 46
36 32 29 27 27 29 28 29 32 29 25 25 35 33 29 31 35 33 35 36 35 35 33 34 38 40 38 40 42 42 38 36 38 40 42 45 49 50 51 53 49 45 45
35 34 33 30 27 29 28 31 28 31 31 30 34 34 34 39 39 40 39 41 41 41 39 37 37 37 39 39 40 42 41 39 39 43 46 47 48 50 53 53 49 46 44
39 34 32 30 31 30 32 33 36 35 35 32 35 38 38 40 43 43 42 43 45 39 38 37 38 40 42 43 42 43 47 50 52 46 47 49 51 51 52 49 47 44 42
42 38 35 31 30 29 30 35 38 36 38 40 41 38 34 31 34 37 36 35 37 38 40 38 40 44 45 47 47 48 48 50 52 55 55 51 49 48 46 45 42 43 42
43 40 36 34 34 36 36 39 40 38 42 41 41 38 42 34 42 41 42 45 41 39 40 43 50 52 50 51 53 52 55 55 56 58 53 52 50 48 48 46 44 44 42

GFSSE_500_spd_084.txt.gz
Wind_Speed
27 25 21 18 15 14 11 11 9 9 7 5 4 4 5 5 4 3 3 3 4 6 7 7 7 6 4 4 3 2 0 0 2 4 4 5 7 8 10 12 14 16 18
29 25 22 19 17 15 13 12 11 10 9 6 5 6 6 5 5 3 3 4 4 6 8 8 8 7 6 5 4 2 1 1 2 4 4 5 6 8 10 12 14 16 17
29 27 24 21 19 17 15 14 12 11 10 8 7 7 7 7 4 4 5 5 5 6 7 8 8 8 7 5 4 3 2 2 3 4 4 5 6 8 11 13 15 16 17
32 29 26 24 22 20 18 17 15 13 11 10 9 8 8 8 5 5 6 6 6 6 7 8 8 8 7 6 4 4 3 3 3 4 4 5 7 9 12 14 16 17 17
33 30 28 26 24 22 20 19 17 15 13 12 11 10 10 9 7 7 7 8 9 8 8 8 9 8 6 6 6 5 4 3 3 4 6 7 9 10 12 14 17 18 17
37 33 31 28 27 25 22 21 19 17 15 14 13 12 12 11 10 8 8 9 10 10 9 10 9 8 7 7 5 4 4 4 4 5 7 8 10 12 14 15 17 17 17
41 37 35 33 31 28 25 23 21 19 18 17 15 15 14 13 12 10 10 10 11 11 11 11 10 9 8 8 6 5 5 5 5 6 7 10 11 12 14 16 17 18 18
42 40 37 35 33 31 28 26 23 21 19 18 17 16 16 15 14 12 11 11 12 12 12 11 10 10 8 7 6 6 5 6 6 6 8 10 11 13 14 15 17 18 18
44 42 40 38 36 33 31 29 27 24 22 21 19 18 17 17 16 14 13 13 13 12 12 12 11 10 10 9 8 8 8 7 7 7 8 10 11 13 14 15 16 18 19
46 43 42 41 39 36 34 32 29 27 24 22 20 19 18 18 17 16 15 15 14 14 13 12 12 11 10 10 10 10 9 8 8 9 9 10 12 13 14 15 17 18 20
51 47 43 43 41 37 35 32 29 27 26 25 22 20 19 18 18 17 16 17 16 16 15 14 13 12 12 11 11 11 11 11 11 10 10 12 13 14 14 16 18 19 20
50 48 48 47 44 38 34 31 31 29 27 25 23 21 19 19 18 17 17 17 17 17 16 15 14 13 13 12 12 13 12 12 13 13 14 14 14 15 17 18 19 20 22
52 51 51 50 46 41 37 35 33 30 27 25 23 21 20 20 19 19 20 19 19 18 18 17 16 15 14 14 14 14 15 15 16 17 17 17 17 18 18 19 21 22 23
46 52 58 53 50 44 44 39 35 33 30 28 26 24 23 22 22 22 22 21 20 20 20 19 18 17 17 16 16 17 17 18 20 20 21 21 20 20 21 23 24 24 24
39 53 57 54 45 46 45 46 42 35 34 31 28 27 26 25 24 23 24 24 23 22 21 21 20 19 19 19 19 19 20 21 22 23 24 23 23 22 23 24 25 27 27
32 39 42 45 48 47 47 51 51 48 40 33 31 29 27 27 25 23 24 25 25 26 24 23 23 22 21 22 22 23 24 25 25 25 26 26 26 25 26 27 27 27 29
23 25 16 14 22 45 53 53 51 48 42 35 32 32 30 28 26 24 24 25 26 28 28 27 26 26 25 25 25 25 26 27 27 28 29 28 28 29 30 30 29 28 32
17 21 13 13 17 38 45 50 49 46 40 36 38 35 30 29 26 25 26 28 28 29 29 30 29 29 29 28 28 27 29 29 29 31 32 30 30 32 32 32 32 31 33
24 23 14 19 21 16 44 35 37 41 41 38 35 32 28 27 27 26 25 27 27 30 32 32 32 32 33 32 31 30 31 32 33 34 34 35 34 34 33 33 34 36 37
26 26 25 22 20 14 28 36 35 38 36 32 33 28 26 26 28 27 25 26 28 30 32 35 34 34 35 35 35 34 35 35 36 37 37 37 37 37 35 36 39 43 44
32 29 26 20 17 19 27 25 29 40 35 34 32 31 34 32 33 32 31 30 30 32 35 35 36 36 37 38 37 38 38 37 38 39 40 39 38 40 42 45 47 46 47
29 25 28 24 25 17 13 15 16 36 43 33 27 31 34 36 39 36 33 34 34 36 37 38 40 38 39 40 39 39 37 37 39 41 43 44 44 44 45 46 45 50 51
32 31 28 23 27 26 23 20 25 15 18 21 26 36 37 36 39 38 38 40 39 40 41 41 41 41 41 40 36 38 40 38 37 37 40 41 43 43 45 47 50 50 46
35 36 35 28 27 28 25 29 30 28 25 23 26 28 26 31 36 33 36 31 31 37 38 35 36 37 35 37 40 43 46 46 46 42 45 46 46 48 48 51 51 44 42
38 35 36 35 31 28 26 27 28 30 27 31 34 33 33 27 29 29 31 35 31 39 36 33 30 34 35 36 38 42 45 49 48 49 50 50 51 52 50 46 45 44 43
36 35 36 36 37 34 31 29 32 31 30 32 38 34 34 35 36 38 39 39 43 41 34 34 34 38 39 42 43 47 48 48 50 52 54 57 57 51 50 50 51 47 46

GFSSE_500_spd_087.txt.gz
Wind_Speed
29 28 26 23 21 17 15 13 12 12 12 10 8 7 5 4 3 3 2 3 3 4 4 6 6 6 5 4 3 2 2 1 0 2 3 4 6 7 9 12 14 15 16
33 30 28 24 23 20 16 15 13 13 13 11 10 8 6 4 4 4 3 3 4 4 5 5 6 7 6 5 4 3 2 2 1 3 4 5 7 8 10 13 14 15 15
34 30 28 26 24 21 19 17 15 14 14 14 12 9 7 5 5 4 3 4 5 5 6 6 6 7 7 5 4 3 3 3 3 3 3 5 7 9 12 13 14 15 14
36 34 32 29 26 24 22 19 17 15 15 15 13 11 9 8 7 5 4 5 5 5 7 7 7 7 7 5 4 3 4 3 3 3 4 6 8 11 12 13 14 15 14
38 35 33 31 28 26 24 21 19 18 16 16 15 13 11 10 9 8 6 6 6 6 7 8 7 7 7 5 5 4 3 3 3 3 4 7 9 11 12 13 14 14 14
40 38 36 33 29 28 26 24 22 20 19 18 17 16 14 12 11 10 8 7 7 7 8 8 8 7 7 6 5 5 4 4 4 4 5 7 9 11 12 13 13 14 14
45 40 37 35 33 31 28 26 24 23 22 21 19 18 16 15 14 12 11 9 9 8 8 9 9 8 7 6 5 5 5 5 5 5 6 7 9 11 11 12 12 13 14
49 46 42 39 36 33 31 29 27 25 24 23 22 20 19 17 16 14 13 11 11 10 10 10 10 9 8 7 6 6 7 6 6 6 6 7 9 11 11 11 12 14 15
50 48 45 42 40 36 34 32 29 27 26 25 25 23 21 20 18 17 15 14 14 13 12 12 12 10 9 9 8 8 8 8 8 8 8 9 10 11 12 12 13 15 15
56 52 48 46 44 40 37 34 32 30 29 27 26 25 23 22 20 19 17 16 15 14 14 13 13 12 11 10 10 10 10 10 10 10 10 10 12 12 13 13 15 16 18
62 57 53 49 45 42 38 36 34 33 32 31 28 27 25 24 21 20 18 16 16 16 16 15 14 14 13 12 12 12 11 11 12 12 12 13 14 15 15 16 17 18 19
63 59 55 52 48 44 41 39 37 35 34 32 31 29 27 25 23 21 20 17 17 17 17 17 16 16 14 14 14 13 13 13 13 14 15 16 16 17 17 18 20 20 21
62 55 54 54 49 46 44 42 39 36 34 33 33 32 30 28 24 22 21 20 19 19 18 18 17 18 17 16 16 15 15 15 15 16 17 18 18 19 19 20 22 23 24
53 55 55 53 48 46 45 43 41 39 37 36 35 33 31 30 26 24 24 23 22 22 20 20 20 19 20 18 17 17 17 18 18 19 20 20 20 21 22 22 23 24 26
53 60 57 53 49 48 47 45 43 42 40 38 36 35 34 31 28 27 27 26 25 25 24 23 22 22 21 21 20 20 20 21 22 22 23 22 23 23 24 24 25 26 28
38 56 54 50 51 55 52 49 44 45 43 39 39 38 36 33 30 30 28 28 26 26 26 26 25 25 25 25 24 23 24 24 25 26 26 26 26 27 26 27 27 27 30
27 39 55 54 49 54 59 52 45 44 45 45 45 42 40 36 34 34 32 31 28 27 28 28 28 28 28 29 28 27 28 29 28 29 30 30 30 30 31 30 31 29 30
27 28 40 51 45 42 44 49 45 47 48 47 50 46 41 35 39 34 33 31 29 30 29 30 31 32 31 32 31 31 31 31 32 31 32 32 33 33 34 34 34 33 31
21 30 46 42 39 25 29 40 46 47 47 53 53 48 44 37 37 34 34 32 30 31 32 32 34 34 34 35 33 33 33 35 35 36 34 34 35 36 37 37 35 36 36
23 34 37 30 19 17 22 29 39 47 48 48 49 47 46 38 33 36 35 34 34 33 33 34 36 35 36 35 36 36 35 37 37 39 40 38 38 38 38 38 36 37 39
30 27 30 10 16 14 14 20 34 43 42 44 41 42 39 37 36 40 40 41 38 35 37 35 34 36 37 38 38 38 38 39 39 40 41 42 42 41 41 42 41 43 39
24 22 15 13 12 12 9 17 33 44 36 49 43 38 34 33 34 37 40 41 39 37 36 36 38 36 37 38 37 39 41 41 42 42 42 40 40 39 40 39 39 41 46
26 23 25 22 20 16 20 19 15 17 20 23 47 44 43 36 36 33 41 42 39 38 37 35 35 30 28 32 35 37 38 40 41 40 40 39 41 42 43 44 46 47 47
22 24 25 23 17 17 20 25 18 11 18 15 19 29 35 43 40 38 37 31 36 40 41 43 43 43 41 36 32 36 38 36 38 39 42 44 47 46 46 47 48 51 50
27 26 21 20 22 23 22 21 19 21 19 20 22 22 19 24 33 27 32 36 30 30 29 33 47 49 42 34 35 34 39 41 42 38 39 43 42 44 46 49 52 49 48
28 29 30 27 26 25 28 28 24 24 22 23 27 26 24 26 25 28 31 31 33 38 40 35 38 31 30 28 35 38 41 44 46 49 48 46 47 47 48 48 50 48 47

GFSSE_500_spd_090.txt.gz
Wind_Speed
33 32 29 27 25 21 20 19 16 14 14 13 13 11 10 9 8 5 3 1 1 2 2 4 4 5 5 3 2 1 3 4 3 2 2 3 5 7 10 12 13 14 13
36 34 32 29 28 25 22 21 17 15 15 15 15 12 11 10 8 6 3 1 1 2 3 4 5 5 5 4 3 2 2 3 3 4 3 3 5 7 10 12 12 13 13
39 36 33 30 28 26 23 21 19 17 16 17 16 15 13 12 10 7 5 3 2 3 4 5 5 5 6 5 4 3 3 4 4 4 3 3 5 8 10 11 11 12 12
40 37 35 33 30 28 25 23 21 19 18 18 18 17 16 14 11 8 7 5 4 4 5 5 5 6 6 6 4 4 4 4 4 3 3 4 6 8 10 11 12 12 11
43 40 38 35 33 31 27 25 23 21 19 19 20 19 18 16 13 11 9 7 6 6 6 5 6 6 6 6 5 5 5 5 4 3 4 5 7 8 10 11 12 11 11
46 43 40 37 35 33 29 27 25 23 22 21 21 20 19 17 15 13 12 9 9 8 8 7 7 7 7 7 6 5 5 6 5 5 5 6 7 9 11 11 12 11 12
50 46 43 40 37 35 32 30 27 25 24 23 22 21 20 18 17 16 15 13 11 11 10 10 9 8 8 8 7 7 7 7 7 7 6 7 8 10 11 11 11 12 13
53 50 46 43 41 38 35 32 30 27 26 25 25 24 22 20 20 19 17 16 14 13 12 12 10 10 10 9 8 8 9 9 9 9 8 9 9 10 12 12 12 13 15
57 55 51 46 44 41 38 35 33 30 28 28 27 26 25 24 23 22 20 18 17 15 14 13 12 12 11 10 9 10 10 11 11 11 11 11 11 11 12 12 13 15 16
61 58 55 53 48 45 42 39 36 33 31 30 29 29 28 26 26 24 23 21 19 18 16 15 14 14 13 13 12 12 12 13 13 12 12 13 13 14 14 14 15 17 18
65 64 62 59 53 49 46 43 39 36 34 32 31 30 29 29 28 26 24 23 21 20 18 17 17 16 15 15 14 14 14 14 14 14 14 15 15 15 16 16 18 19 20
68 68 65 61 57 52 49 45 42 38 36 35 33 32 31 30 29 28 26 25 23 21 19 19 18 19 18 17 16 16 16 16 16 16 16 17 17 17 18 19 20 22 22
62 71 68 63 58 54 52 48 45 42 39 37 35 33 33 32 31 30 28 27 25 24 21 21 21 21 19 19 18 18 17 18 18 18 19 19 19 19 20 20 22 23 25
51 69 71 63 60 57 54 51 48 45 42 39 37 35 35 35 34 32 31 29 27 26 24 23 24 23 22 21 21 21 21 21 21 22 21 21 22 22 22 23 25 25 27
39 49 73 72 64 58 54 50 48 46 44 41 39 39 37 37 35 34 33 30 29 29 27 27 27 26 24 24 24 24 24 24 24 24 24 24 25 26 27 27 26 27 29
37 47 48 70 62 55 55 51 46 45 44 43 42 40 40 38 37 36 33 32 30 32 30 29 29 29 28 27 27 28 28 27 27 27 27 27 28 28 29 30 29 29 30
40 43 43 56 60 61 58 55 51 46 45 45 44 43 42 41 39 38 36 34 34 33 32 31 31 31 31 31 30 31 31 31 31 31 32 32 32 32 32 33 32 33 32
32 43 36 51 56 64 62 58 53 52 49 46 44 45 45 44 44 43 42 40 38 35 33 32 33 33 34 34 33 34 34 35 35 35 35 36 36 36 35 36 36 36 36
21 42 39 47 50 52 57 57 57 57 56 51 46 46 48 48 46 45 41 39 36 35 35 35 37 37 37 38 36 36 37 38 36 37 38 38 39 39 38 39 39 39 38
27 34 40 43 57 51 56 56 59 60 59 56 51 49 50 50 47 44 42 43 36 37 38 38 39 40 39 39 38 38 39 38 38 39 40 41 41 42 40 41 41 41 40
30 26 31 41 35 37 30 31 37 51 49 55 49 46 48 49 45 45 40 26 33 39 42 42 40 40 42 40 39 40 40 39 39 41 42 43 44 44 43 43 42 40 40
32 21 25 32 33 27 26 31 33 38 47 39 41 45 46 50 51 52 43 32 32 40 41 42 43 41 42 37 37 34 34 38 41 41 43 44 45 46 45 43 41 43 44
36 27 30 34 22 20 24 25 22 30 43 51 42 43 47 47 48 41 41 36 38 35 40 39 42 42 41 33 36 38 35 34 33 35 38 42 45 48 44 42 43 42 43
35 27 41 29 31 27 23 23 23 19 39 44 39 44 60 52 54 43 38 42 43 40 46 39 40 43 43 41 40 39 39 36 36 36 38 41 38 41 44 40 43 45 47
35 34 30 39 32 23 24 25 19 22 19 20 26 20 22 45 56 46 42 51 45 43 40 32 34 33 27 38 40 41 45 43 43 43 39 40 40 43 44 45 42 46 49
19 24 30 29 22 21 17 14 20 19 19 15 16 15 14 21 24 24 25 30 31 35 31 35 37 35 38 33 34 34 26 31 36 37 40 43 47 51 50 47 48 48 50

GFSSE_500_spd_093.txt.gz
Wind_Speed
37 35 34 30 26 25 23 21 19 18 16 15 14 13 13 12 11 9 7 5 2 2 2 2 3 3 4 4 3 2 3 4 3 2 2 3 4 6 9 11 11 12 12
40 38 35 33 29 27 24 23 22 20 18 17 16 14 14 13 12 10 8 6 3 2 2 3 3 3 4 4 3 3 3 4 3 3 3 3 4 7 9 11 12 12 12
45 41 38 34 31 29 27 25 23 21 20 19 18 16 15 14 13 11 9 7 5 4 4 4 4 4 4 4 4 2 3 3 4 4 3 3 4 7 10 11 12 12 11
47 44 40 36 34 31 28 26 24 23 22 20 19 18 17 16 14 12 10 9 7 6 5 6 6 6 5 5 4 3 3 4 4 4 3 4 5 7 9 11 11 12 11
50 47 43 39 36 34 31 29 27 26 24 21 21 21 20 18 16 14 13 11 10 9 8 8 7 7 6 6 5 4 5 5 5 4 4 6 7 8 9 11 11 11 11
51 50 46 42 39 36 34 31 29 28 25 23 22 22 22 20 18 17 15 14 13 11 10 9 9 8 7 6 7 6 5 6 6 5 6 7 8 9 10 11 11 11 11
52 52 48 46 42 38 36 33 31 30 28 25 24 24 22 20 20 19 18 17 15 13 12 12 11 9 9 8 8 7 7 7 7 7 8 9 9 9 11 12 11 11 12
54 53 51 50 46 42 38 36 34 32 30 28 27 27 24 22 22 21 20 19 18 16 14 13 12 11 10 9 9 8 8 9 9 9 9 10 10 11 11 12 12 12 13
57 57 56 53 51 47 43 40 38 36 34 31 30 30 26 24 24 23 23 22 21 19 17 16 14 14 12 12 11 11 10 11 11 11 11 11 12 12 13 13 13 14 15
61 61 58 58 54 50 47 44 41 39 37 34 32 30 28 27 26 25 25 24 23 22 21 19 17 16 15 14 14 13 13 13 13 13 13 13 14 14 15 16 16 16 17
64 63 63 62 59 53 51 48 44 41 39 36 33 32 31 29 29 28 27 26 25 25 23 22 20 18 18 17 17 16 16 16 16 15 16 16 16 16 17 17 18 19 20
62 62 67 64 63 57 54 51 48 44 41 38 35 34 33 32 31 29 28 28 27 26 25 24 22 21 19 19 19 18 17 18 18 18 18 18 18 19 20 20 20 21 22
65 65 63 68 62 61 57 55 51 48 45 42 39 37 34 34 32 31 30 29 28 28 27 25 23 22 22 21 21 20 20 20 21 21 21 20 21 22 22 22 22 23 25
36 63 62 61 62 65 62 60 53 49 46 45 41 39 37 36 35 33 31 31 30 29 28 28 26 24 24 25 24 23 23 23 23 23 23 24 25 25 25 25 25 27 28
48 51 43 43 59 72 67 62 56 52 49 47 44 41 39 38 36 35 34 33 32 32 31 30 28 26 26 27 26 26 26 26 26 26 26 27 28 28 28 28 29 31 31
62 40 45 47 65 61 67 63 58 55 52 48 45 43 42 39 38 38 37 36 35 35 33 31 29 28 28 29 28 29 29 29 29 29 30 30 31 31 31 31 32 33 34
56 43 50 56 46 61 55 62 62 59 52 49 47 44 43 42 42 41 40 38 38 37 34 36 31 33 31 31 31 32 32 33 33 33 33 33 34 34 35 35 34 34 36
57 50 49 39 34 63 74 63 62 58 54 53 50 48 46 45 45 42 43 43 41 37 40 38 32 37 34 34 34 34 35 35 37 36 37 37 36 37 37 38 39 38 38
54 47 43 44 39 44 73 68 66 60 56 55 52 51 50 49 47 46 45 43 41 46 43 38 39 39 37 37 36 37 37 37 39 39 40 40 39 40 39 40 41 40 40
49 36 40 44 41 33 59 67 68 69 62 59 55 54 52 52 50 48 43 45 45 44 42 47 41 38 39 38 39 38 38 40 39 40 40 40 41 42 42 41 42 43 41
48 36 42 35 32 25 31 67 64 62 62 58 57 54 54 60 51 50 48 47 44 43 44 46 43 39 40 40 39 39 40 40 39 40 41 43 43 44 42 42 42 43 43
31 28 23 32 34 35 37 47 41 61 68 64 58 60 63 59 55 54 47 46 45 43 47 31 31 39 40 38 37 36 35 37 36 38 37 41 45 42 42 42 42 42 43
28 27 28 27 34 35 31 23 49 46 36 35 39 46 56 60 60 52 48 47 48 48 46 36 33 39 36 39 38 41 40 42 40 39 39 37 36 37 38 37 41 42 43
29 28 22 23 33 30 30 30 33 26 26 29 35 51 52 51 51 50 46 49 48 45 45 45 40 42 40 40 43 36 45 43 44 44 41 42 37 43 42 45 41 41 45
33 33 27 26 23 30 29 32 25 19 20 23 37 51 49 50 46 51 50 52 50 46 37 41 45 47 44 43 40 40 37 36 35 39 40 38 40 43 44 43 43 44 45
22 33 36 27 25 33 30 26 22 25 24 18 22 36 43 38 27 26 24 47 61 45 47 53 48 46 43 48 41 36 31 27 31 33 33 34 36 39 40 45 49 52 54

GFSSE_500_spd_096.txt.gz
Wind_Speed
32 34 32 32 28 26 23 22 19 17 16 15 15 14 12 11 11 10 8 6 4 3 3 4 4 4 2 1 0 2 4 4 4 3 2 3 4 6 9 10 11 11 11
35 37 35 34 32 29 27 24 22 20 19 18 16 16 13 12 11 11 9 7 6 4 4 4 5 5 4 3 1 2 3 3 3 2 3 3 4 7 10 11 11 11 10
35 39 38 37 35 32 29 26 25 23 21 20 18 18 15 12 12 12 10 9 8 7 5 5 6 5 5 5 3 2 3 3 3 3 3 3 5 7 10 11 11 11 10
41 39 40 38 37 36 32 28 27 26 24 22 20 19 18 15 13 13 12 11 10 9 7 7 7 7 6 5 4 3 3 3 3 3 3 3 5 7 9 11 10 10 9
40 42 41 41 39 38 36 32 29 28 26 25 23 21 21 18 15 15 14 13 12 11 10 8 9 8 8 6 4 4 4 4 4 4 4 4 6 7 8 10 10 9 9
40 46 46 44 42 41 40 36 32 30 28 27 25 24 23 21 18 17 17 15 15 13 12 11 10 9 9 8 7 6 6 5 6 6 5 5 6 7 8 9 9 8 9
40 48 49 49 44 43 42 40 36 32 30 29 28 27 26 21 20 20 19 18 17 16 14 13 12 11 11 10 9 8 7 7 7 7 7 7 8 9 8 9 9 9 10
39 49 52 53 49 46 45 42 39 35 33 32 31 30 29 23 22 22 21 21 19 18 17 15 14 13 12 12 10 9 9 9 9 9 9 9 10 10 10 10 10 10 11
43 47 55 54 55 49 47 46 43 40 37 36 34 33 31 26 24 23 23 22 21 20 19 17 16 15 14 13 13 11 11 11 12 12 12 13 12 12 12 13 13 12 13
45 44 56 59 58 55 50 48 46 43 40 38 37 36 32 29 25 25 24 24 22 21 20 20 18 17 16 15 14 14 13 13 14 15 14 14 14 15 15 15 15 16 16
41 43 56 62 60 61 55 51 50 46 43 40 39 38 34 31 29 27 26 25 24 24 23 22 21 20 19 18 17 16 16 16 16 17 17 16 16 17 18 19 18 18 19
48 45 54 66 72 63 61 55 52 49 46 44 42 41 35 33 32 29 28 27 26 26 25 24 23 23 21 20 18 17 19 19 18 19 19 19 19 20 21 21 21 21 21
61 53 55 75 39 67 63 58 54 52 49 46 43 42 39 35 32 31 31 29 28 27 26 26 26 25 23 21 20 19 22 22 20 21 21 22 22 23 23 23 23 24 24
63 59 67 67 50 67 64 62 59 55 53 49 46 44 42 37 34 35 33 31 30 29 29 28 28 27 26 23 22 22 23 23 23 23 24 24 25 25 26 25 26 27 28
65 65 77 82 54 58 62 52 65 59 56 51 50 50 44 40 40 38 36 34 32 31 31 30 30 29 28 27 25 24 25 25 25 25 27 26 27 27 28 28 28 30 31
66 68 81 78 62 66 56 59 63 64 59 55 54 49 45 45 43 40 39 37 34 35 34 33 32 32 31 26 27 29 27 28 27 28 29 29 30 30 30 31 32 33 35
60 68 75 69 69 75 46 55 66 65 63 57 53 50 49 47 44 42 42 38 38 39 37 36 34 34 32 32 32 33 31 31 31 31 31 31 34 33 34 35 36 36 36
55 64 81 71 49 61 48 52 54 59 62 58 55 53 52 51 48 46 43 42 41 40 40 38 36 37 32 37 31 36 35 34 34 35 34 35 36 36 37 38 39 39 40
36 64 77 64 46 48 69 34 37 53 56 63 59 57 54 52 50 48 46 45 44 42 40 39 38 36 42 36 38 38 37 35 38 37 38 38 38 39 39 40 42 42 42
32 46 64 55 36 39 44 41 39 36 59 46 51 61 59 55 53 53 49 47 46 44 47 41 41 45 37 39 41 41 38 37 39 38 38 39 38 39 40 41 42 42 41
38 37 67 66 39 46 45 31 44 41 37 46 42 53 57 57 55 53 51 50 50 51 45 44 40 39 39 43 46 34 36 37 41 39 38 40 40 42 42 44 45 43 41
25 31 52 66 50 37 43 35 35 47 43 52 52 54 51 52 55 55 54 56 53 57 44 51 41 39 40 43 36 35 37 39 38 34 33 35 39 37 37 38 36 34 37
29 24 46 56 46 39 32 29 22 33 66 62 64 53 49 44 44 52 55 56 56 57 48 52 43 39 41 29 28 31 39 37 37 38 39 40 39 40 39 37 39 38 40
28 23 41 38 38 36 30 27 23 22 31 38 34 27 36 36 38 44 52 55 53 45 58 46 45 41 43 45 46 39 38 36 38 42 41 40 44 40 42 45 43 44 43
24 23 25 29 27 27 30 22 23 23 33 34 20 28 32 41 43 48 44 48 52 49 51 42 45 38 37 37 46 38 40 51 52 50 37 23 20 23 29 31 33 37 39
25 29 26 27 29 30 32 27 25 27 26 26 23 20 34 43 51 42 48 45 45 43 37 56 58 54 40 37 46 41 48 43 39 23 17 21 24 27 29 33 36 38 42

GFSSE_500_spd_099.txt.gz
Wind_Speed
33 33 30 29 27 26 24 23 20 17 16 16 14 13 12 10 8 8 8 8 6 4 3 3 4 4 3 2 2 2 5 5 4 3 2 2 2 5 8 8 8 8 7
39 35 35 33 31 28 27 25 23 19 19 19 17 15 14 13 10 9 9 9 8 5 5 4 5 5 4 3 2 2 3 4 5 4 3 2 1 4 7 8 7 7 7
28 37 37 37 34 31 29 28 27 23 22 21 19 17 16 15 12 11 11 11 10 8 6 5 6 7 6 5 4 3 3 4 4 4 4 3 2 4 6 8 7 7 6
20 27 39 39 38 35 32 30 29 27 24 23 22 20 19 17 15 12 12 13 11 10 8 7 7 7 7 5 5 5 4 4 5 4 4 3 3 4 6 7 7 6 5
21 20 31 42 39 37 34 32 31 30 28 25 24 23 21 20 17 15 14 14 14 13 11 9 8 8 7 7 6 6 6 6 5 5 5 5 4 5 6 7 6 6 6
24 21 27 42 44 41 38 35 33 32 31 29 27 26 24 22 20 18 17 16 16 15 13 12 10 9 8 7 8 8 7 7 7 7 8 7 6 7 7 7 7 7 7
27 27 21 38 46 45 42 39 36 35 35 33 31 29 27 24 23 21 20 19 18 17 16 14 13 11 10 9 8 9 8 8 8 9 9 9 9 9 9 9 9 8 9
33 31 27 26 45 49 46 43 39 38 38 36 35 32 30 27 25 24 23 21 20 19 18 17 16 14 12 11 10 9 9 9 10 10 11 11 11 12 12 12 11 11 11
36 34 31 29 29 52 51 48 44 41 40 39 38 35 32 29 27 27 25 23 22 21 20 19 18 17 15 13 13 12 11 11 12 12 13 13 13 14 15 15 14 14 14
39 39 37 35 32 38 54 54 48 44 42 42 41 38 35 32 29 28 26 24 23 22 22 21 20 20 18 17 16 15 14 13 15 14 15 16 16 16 17 17 16 16 17
39 34 34 35 33 31 48 55 54 49 46 45 43 42 39 35 32 29 29 26 25 24 23 23 22 21 21 19 19 18 16 15 17 17 17 18 18 18 19 19 19 19 20
40 35 29 32 31 36 39 56 57 55 50 47 46 44 42 37 35 31 30 29 27 26 26 25 25 23 23 22 21 20 18 17 18 19 20 19 20 21 21 21 21 21 22
52 49 43 41 39 39 38 55 61 57 55 51 48 46 44 40 37 33 32 30 30 28 28 27 27 26 24 24 23 22 20 18 20 21 22 21 21 22 22 23 24 24 25
57 55 51 54 45 45 44 46 63 63 61 57 52 49 47 43 38 36 35 33 32 31 30 29 29 28 26 26 25 24 23 21 21 22 23 24 24 24 25 25 26 27 28
64 59 56 56 57 53 50 51 62 67 67 62 55 51 47 42 39 39 38 36 35 34 32 32 31 30 29 28 28 27 26 24 22 25 26 26 26 27 27 28 28 30 30
65 65 61 59 59 51 52 51 51 73 67 65 59 53 40 42 42 42 41 39 39 37 36 34 32 33 32 31 30 30 27 25 24 29 29 29 29 28 29 30 31 33 34
70 68 67 64 55 54 53 55 56 49 73 65 59 57 55 49 46 46 44 44 42 39 38 36 36 36 35 34 33 31 28 29 28 32 31 32 32 31 32 33 34 35 37
67 66 66 63 59 60 56 59 72 56 58 59 60 59 52 53 52 51 49 46 44 42 40 38 39 38 37 37 36 34 30 29 35 34 33 33 33 35 34 35 36 37 39
65 65 65 66 65 56 57 65 55 53 56 53 69 65 55 57 57 53 52 49 47 44 41 40 41 41 40 38 36 38 38 37 36 41 37 33 33 36 35 37 37 38 39
64 63 54 54 55 59 62 70 74 55 48 69 66 66 61 62 60 56 52 50 47 45 44 44 45 43 42 43 36 42 37 37 38 44 38 35 37 37 38 39 39 39 41
46 41 31 29 40 47 54 59 73 71 61 38 49 61 64 65 63 59 55 54 50 49 50 50 50 46 48 51 42 43 36 36 43 40 35 38 40 36 31 31 34 34 34
38 43 35 38 27 37 52 57 53 55 47 43 42 56 69 65 61 60 59 55 57 56 54 54 53 50 47 56 47 38 38 39 33 35 36 38 39 36 34 36 36 36 37
30 40 35 37 38 38 64 49 47 42 41 40 40 41 36 41 58 64 63 62 61 58 40 45 35 29 36 46 41 34 39 35 26 32 34 36 37 38 41 41 41 43 44
28 31 35 29 27 41 61 37 33 38 37 38 36 38 38 37 37 34 37 34 43 52 47 45 32 35 42 31 34 34 38 43 41 40 36 35 40 45 42 41 30 30 31
25 27 33 27 34 38 65 45 44 36 41 41 43 42 39 42 41 31 28 35 27 34 41 41 41 43 39 50 48 34 32 38 40 35 38 43 43 50 43 21 18 19 20
36 32 26 40 41 39 40 47 38 27 25 39 40 42 32 31 34 25 33 42 39 37 41 35 33 40 43 41 41 44 38 40 37 35 36 40 28 15 14 15 18 20 21

GFSSE_500_spd_102.txt.gz
Wind_Speed
40 33 31 28 27 25 23 21 20 18 16 13 13 11 10 10 10 8 9 8 7 5 3 2 3 4 2 1 2 4 6 8 7 6 5 4 3 4 6 7 6 5 4
37 34 34 31 30 29 26 24 21 21 19 17 14 14 13 12 12 10 10 10 9 7 5 3 3 5 4 2 2 3 5 7 7 7 6 5 4 4 6 7 6 5 5
18 23 36 36 34 31 30 27 24 22 22 21 17 17 16 15 14 12 11 11 10 9 6 6 4 6 6 4 3 4 5 6 7 7 6 5 4 4 6 7 7 5 5
19 14 24 40 40 37 34 31 28 26 25 24 21 20 18 17 16 15 13 13 12 11 9 8 6 7 7 5 5 4 4 6 7 7 7 6 5 5 7 9 8 7 7
21 22 15 30 43 42 39 35 32 29 27 27 25 23 21 19 18 18 16 15 14 13 11 10 9 8 8 7 6 6 6 6 7 8 8 7 7 7 8 10 9 8 8
27 25 24 18 37 44 43 40 36 33 30 29 28 26 25 21 20 20 19 16 15 14 13 12 11 10 10 9 8 8 7 7 8 9 9 9 9 10 10 11 11 10 10
30 29 28 21 21 39 45 43 41 38 35 32 31 29 28 25 22 23 21 19 18 17 16 15 14 13 12 11 10 10 9 9 9 10 10 11 11 11 12 12 12 12 11
35 32 28 24 23 22 37 46 44 41 39 36 34 33 31 29 25 25 23 23 21 19 18 18 17 15 14 13 12 12 10 11 10 10 11 12 13 13 13 13 13 13 14
38 35 34 31 29 27 23 34 47 46 42 41 37 35 34 32 29 27 25 24 23 22 21 20 19 18 17 16 15 14 13 12 12 13 13 14 14 15 15 16 16 15 16
39 40 38 33 32 33 29 27 39 49 47 44 42 38 36 35 32 30 27 26 25 24 24 22 21 19 18 18 18 17 16 16 15 14 16 17 17 17 18 18 18 19 19
39 41 40 38 39 37 33 30 30 42 49 48 45 42 39 37 36 33 29 27 27 27 26 24 23 21 20 20 20 20 19 20 17 16 16 18 19 20 21 21 20 21 21
40 36 37 36 33 37 39 34 29 30 45 51 48 47 44 39 38 37 33 30 29 30 27 26 24 24 22 22 22 22 22 23 21 18 17 19 21 22 22 22 23 23 23
52 51 42 39 38 33 39 37 27 29 32 48 52 50 48 45 41 40 36 32 31 32 30 29 28 26 26 24 25 24 25 25 24 20 20 20 21 23 24 24 25 26 25
57 51 49 43 43 38 33 35 33 30 34 41 54 54 52 50 46 42 38 36 34 34 33 31 31 30 28 28 27 27 26 27 26 24 22 22 23 24 26 26 27 28 28
57 52 52 50 51 46 45 49 44 42 38 41 53 59 55 53 51 45 41 40 38 36 34 34 33 32 31 30 29 29 29 28 28 28 26 24 24 26 26 28 29 30 30
59 58 56 52 53 50 49 49 47 44 40 41 49 59 60 56 55 49 49 43 42 38 38 37 36 34 32 32 31 30 31 30 30 29 27 28 30 29 28 30 30 32 34
62 63 60 58 55 52 54 51 50 44 45 44 47 59 64 58 57 53 46 45 45 41 41 39 38 36 34 34 34 33 32 32 31 29 28 31 33 32 30 31 32 33 35
69 66 63 63 56 55 54 54 52 50 45 45 44 60 58 64 57 55 49 65 55 45 44 42 39 38 37 36 37 37 35 34 33 33 30 37 34 36 36 33 34 35 37
69 67 65 68 63 58 57 54 53 52 51 45 51 50 60 55 60 57 46 51 45 50 48 44 42 40 40 39 41 41 38 37 36 37 41 42 40 38 39 37 37 39 40
65 65 63 64 63 58 55 55 55 55 51 50 49 51 57 65 68 59 63 70 57 52 49 47 45 44 44 44 44 43 39 43 44 46 38 39 40 44 39 41 40 40 41
64 64 62 61 64 59 56 55 55 55 51 52 59 57 55 70 69 61 63 53 54 53 51 50 49 49 49 48 48 48 48 48 49 52 39 38 41 44 39 39 41 37 35
65 64 63 64 64 59 55 51 53 53 54 53 56 65 53 48 66 72 71 68 58 56 56 54 54 53 51 51 52 53 55 57 56 52 38 39 36 37 35 35 35 38 38
69 68 65 63 57 46 38 40 45 41 45 56 63 59 52 40 48 64 76 71 60 61 61 57 58 57 54 49 41 46 39 39 39 43 41 35 30 36 36 32 34 37 41
65 64 57 49 45 39 39 33 38 39 33 37 61 62 51 52 50 69 73 71 70 59 46 49 58 54 55 50 37 29 32 34 34 35 38 38 37 43 38 38 38 39 37
39 42 44 44 43 39 33 32 37 44 43 41 40 49 52 52 43 33 49 61 39 51 40 39 45 32 38 34 33 40 43 40 46 43 39 36 38 37 34 33 36 39 29
21 26 45 34 31 34 39 31 39 40 32 28 39 45 42 41 37 36 37 37 36 32 34 37 36 35 39 35 36 34 34 38 44 50 48 44 39 34 36 35 31 25 23

GFSSE_500_spd_105.txt.gz
Wind_Speed
41 38 31 31 29 27 24 22 20 18 15 12 10 10 9 9 8 7 6 6 7 6 5 5 4 6 4 3 2 4 6 8 8 8 7 6 5 5 8 10 10 9 8
26 36 36 35 32 30 27 25 24 22 19 16 13 11 11 11 10 9 8 8 8 6 5 5 4 7 6 5 4 4 5 7 9 9 8 7 6 5 7 9 11 10 9
20 19 34 38 38 34 31 28 27 25 22 20 17 14 13 13 13 12 11 9 8 7 7 5 5 7 8 6 5 5 5 6 7 8 8 7 6 6 9 11 12 10 9
22 18 17 30 40 40 36 33 30 28 25 22 21 18 16 15 15 15 14 12 10 8 8 7 6 7 9 8 6 5 5 6 7 8 9 8 7 7 9 10 12 12 10
24 23 20 18 30 43 42 38 34 31 29 27 24 22 19 17 17 17 17 14 13 11 10 9 8 7 9 9 8 7 7 7 7 8 9 9 9 9 9 11 12 12 11
28 28 26 22 19 29 43 43 40 35 33 31 28 26 24 21 19 19 18 18 15 14 13 12 11 10 9 10 9 8 8 8 9 9 9 10 10 11 11 12 12 12 12
31 30 32 27 24 21 27 43 44 41 37 34 32 29 28 25 22 21 19 19 19 17 15 14 14 13 11 12 10 10 9 9 10 10 10 11 12 13 13 13 13 13 14
35 34 33 31 26 25 23 30 42 44 42 39 36 33 31 29 26 24 21 21 21 20 19 18 16 15 14 14 13 12 11 11 11 11 11 12 13 14 15 15 16 16 16
41 39 38 35 31 29 26 24 32 43 43 42 41 38 35 33 30 26 24 24 23 23 22 21 19 18 16 16 15 14 14 13 13 13 13 14 15 16 17 17 18 19 19
41 42 41 38 32 32 32 29 26 34 44 44 43 42 39 37 34 30 26 26 26 25 24 23 22 21 19 18 17 17 16 17 16 16 16 15 17 18 19 20 20 20 21
40 40 41 40 40 36 35 34 32 29 32 43 45 44 43 41 37 34 31 28 28 27 26 26 24 23 21 20 19 19 20 19 19 19 18 18 18 20 21 21 22 22 23
49 41 39 41 41 40 37 36 36 33 31 30 40 46 44 44 41 39 37 31 29 29 28 28 27 25 24 22 21 21 22 22 21 22 22 20 19 20 23 24 24 24 24
51 51 45 38 42 41 40 40 41 41 35 29 31 41 47 46 43 42 41 37 32 32 31 31 30 29 26 25 25 24 24 24 24 24 24 24 23 22 23 24 26 27 27
52 53 51 48 38 40 37 37 36 40 40 32 29 29 39 48 46 43 45 41 39 35 35 33 32 32 30 28 27 26 26 26 26 26 25 26 27 26 24 26 27 29 29
57 55 56 54 52 46 47 45 34 36 38 32 27 29 29 36 48 48 48 46 44 41 39 37 36 36 34 32 29 28 28 28 28 28 27 28 29 27 26 28 30 32 31
62 59 57 56 52 51 53 46 43 38 40 40 37 36 35 33 37 50 51 51 49 48 43 41 40 39 37 34 32 30 30 29 30 29 29 30 30 29 31 32 32 36 35
65 64 62 59 54 54 56 52 48 47 48 46 46 40 40 36 38 41 52 53 51 51 48 46 45 43 39 37 34 32 32 32 32 32 32 32 32 32 33 34 40 39 38
67 67 67 64 59 56 54 53 51 51 48 46 47 46 46 41 38 40 51 52 61 53 54 51 51 48 44 40 37 36 36 36 36 35 34 33 36 37 41 41 44 42 46
69 67 67 66 62 58 58 55 52 51 51 49 50 49 47 44 38 42 51 59 62 59 53 47 44 49 48 43 40 41 39 38 39 38 39 38 38 42 46 47 49 47 43
69 71 69 68 66 63 61 58 54 55 53 51 49 50 48 48 41 42 51 46 43 46 51 61 57 55 53 46 45 44 43 43 41 44 43 42 41 49 49 52 50 48 49
69 71 68 69 68 68 66 62 59 57 54 52 51 52 52 49 46 44 55 61 49 51 55 61 57 57 48 48 51 48 47 47 46 47 48 48 49 51 53 54 50 50 51
70 72 69 67 65 66 66 62 63 59 57 55 55 56 56 51 47 45 50 52 51 54 55 60 64 67 54 52 52 53 52 50 49 50 52 51 49 54 56 53 47 46 44
72 73 69 68 65 62 62 60 59 56 54 54 56 54 53 50 48 50 52 56 61 68 54 58 58 56 52 54 57 57 57 54 55 54 48 39 37 41 44 45 41 34 37
67 70 71 69 65 59 57 54 58 54 52 52 52 49 51 51 53 54 53 50 57 67 68 59 67 70 64 61 63 59 65 60 54 38 36 39 42 40 37 42 44 43 41
67 67 67 66 60 52 49 55 54 49 45 42 44 43 45 51 56 55 52 61 37 45 58 67 78 58 50 44 43 39 32 32 34 39 45 47 48 48 42 34 35 41 38
52 60 60 57 53 54 53 53 45 43 37 34 34 31 36 32 46 52 60 56 44 46 48 60 46 39 35 35 35 40 36 39 37 44 44 45 47 49 48 45 42 36 41

GFSSE_500_spd_108.txt.gz
Wind_Speed
28 35 35 32 31 28 25 22 21 19 16 13 10 8 7 6 6 6 5 5 4 2 2 4 4 8 8 5 4 4 5 7 7 7 8 7 7 7 9 11 12 12 11
20 25 32 36 35 32 30 27 25 23 20 18 15 12 9 8 7 8 7 6 6 3 1 1 2 6 8 8 5 4 5 6 7 8 8 8 7 7 9 11 12 13 11
21 20 23 32 38 38 35 32 28 26 24 22 19 16 13 11 10 8 9 7 7 6 4 3 2 4 8 8 7 5 6 6 6 7 8 8 7 7 9 11 12 13 11
22 20 22 23 33 40 39 35 32 29 27 24 23 20 17 15 13 11 10 10 7 7 6 6 4 4 7 8 8 7 6 6 6 7 8 8 8 8 9 11 11 11 11
25 21 21 22 24 32 42 40 36 33 30 27 25 23 21 18 17 14 12 12 10 9 9 8 7 6 6 7 8 7 7 7 7 7 8 9 10 10 11 11 12 12 12
29 27 25 24 21 22 30 40 42 38 35 32 28 27 25 22 20 18 14 13 14 12 11 11 10 9 8 7 8 8 7 8 8 8 8 10 10 12 12 13 13 13 13
33 31 30 29 26 24 22 24 33 42 39 36 33 30 28 27 24 21 18 16 14 15 14 13 13 12 11 9 9 9 8 8 9 9 9 10 11 13 14 15 15 15 14
37 34 33 31 29 28 27 23 24 31 41 39 37 34 31 29 29 25 23 20 17 16 17 16 15 15 15 13 12 11 11 10 10 10 10 10 11 13 15 16 17 18 18
41 39 37 35 32 31 30 27 25 25 30 42 41 39 36 33 31 29 26 24 22 19 18 19 18 17 18 16 15 14 13 13 13 13 13 12 13 14 15 18 19 20 21
45 41 40 40 37 35 33 32 31 27 27 32 40 42 40 38 36 33 30 29 26 23 20 20 20 20 20 19 19 18 16 15 16 16 16 16 16 15 16 18 20 21 22
49 46 43 42 42 40 36 34 33 31 28 26 32 41 42 40 38 37 36 33 30 28 25 22 22 23 23 22 22 21 19 18 18 19 19 19 19 19 18 19 21 21 24
53 48 47 43 42 43 39 38 35 34 33 30 28 28 36 44 42 40 39 36 34 32 29 25 24 25 25 25 25 24 22 21 21 21 21 22 22 21 21 21 22 22 24
57 54 53 49 41 41 43 41 38 37 38 36 34 33 30 32 41 44 42 38 38 37 34 31 27 27 27 27 28 27 26 24 23 24 23 24 24 23 24 24 25 23 25
60 58 56 54 50 43 40 41 42 41 41 39 39 37 32 31 35 39 44 42 40 41 39 37 34 30 30 30 30 30 29 28 26 26 25 26 26 25 25 27 27 26 26
63 62 60 57 52 51 44 43 44 43 43 39 38 39 34 30 28 32 38 44 44 44 42 40 40 36 34 32 33 32 32 31 29 28 28 28 29 28 29 29 29 29 31
65 65 64 61 58 55 51 43 39 41 38 37 37 39 39 33 30 29 29 33 41 46 47 46 45 42 38 36 36 36 35 33 32 31 31 31 31 31 31 31 33 35 36
67 67 66 65 62 60 57 54 48 47 46 42 40 40 43 38 33 34 34 32 32 38 48 48 50 47 44 41 39 37 37 36 35 34 34 33 33 33 33 34 37 40 43
70 67 68 67 66 64 62 59 57 52 52 47 46 41 43 46 41 40 40 37 35 39 41 48 54 56 51 46 43 41 39 39 37 36 36 36 36 36 37 39 42 44 45
71 69 67 69 68 66 65 62 60 58 53 53 50 48 46 47 45 43 44 43 37 39 46 48 50 50 49 49 46 45 43 41 39 39 39 39 39 38 37 44 49 48 47
71 73 71 70 70 69 68 66 62 61 57 60 51 48 47 47 46 47 46 42 39 43 48 44 54 59 65 53 46 44 45 43 42 42 41 41 40 38 44 47 50 50 55
71 72 75 73 71 72 70 67 64 63 61 58 54 52 54 52 52 50 51 48 45 47 52 54 58 66 54 50 55 55 50 48 46 45 45 43 42 43 48 47 52 59 54
68 72 71 74 72 72 70 67 65 64 65 62 60 59 57 54 51 52 51 53 51 51 54 53 52 42 43 50 56 58 60 58 46 48 48 46 49 51 53 54 59 58 57
66 67 70 72 71 71 71 70 68 66 65 62 60 59 58 55 56 58 55 55 52 51 51 54 54 59 49 54 59 59 54 53 56 54 51 52 56 61 58 57 57 47 46
66 67 70 71 73 69 68 70 70 67 66 63 61 63 59 59 59 59 59 58 54 50 53 51 56 57 55 55 55 63 64 65 60 55 56 55 58 54 45 42 43 44 40
58 69 69 71 72 69 68 65 63 61 59 59 60 59 57 58 59 57 58 58 55 54 54 50 49 54 65 67 71 58 57 53 40 37 33 32 34 38 45 46 47 47 47
41 59 70 68 69 69 65 59 53 53 53 51 54 54 52 55 55 51 54 56 56 56 55 52 43 57 53 51 54 59 44 34 32 35 38 39 38 40 46 46 48 51 49

GFSSE_500_spd_111.txt.gz
Wind_Speed
26 32 33 31 30 28 24 21 20 19 17 15 12 9 6 5 6 6 2 0 1 1 3 5 6 9 9 8 6 5 3 5 6 7 7 7 7 7 8 11 12 12 11
17 22 29 34 34 31 30 27 24 23 21 20 17 13 10 8 6 6 6 2 1 2 1 1 3 6 8 7 7 6 5 4 5 6 7 7 7 7 8 11 13 13 11
20 18 18 25 35 37 35 31 29 27 24 23 21 18 15 12 9 7 8 7 2 3 4 3 2 2 6 7 6 6 6 6 5 5 6 7 7 8 8 11 13 13 12
24 22 21 20 22 30 40 39 35 31 27 25 23 22 19 17 14 11 8 9 7 4 5 5 4 2 1 5 5 4 4 5 5 5 6 7 8 8 9 11 12 12 12
26 25 23 23 22 20 25 38 40 36 31 28 26 24 22 20 18 15 12 10 11 9 6 7 6 5 4 4 5 4 3 3 5 5 6 7 8 9 10 11 12 13 13
30 28 25 24 24 21 19 24 36 38 37 33 29 27 26 23 21 18 16 13 12 13 11 8 8 8 7 6 6 5 4 4 4 5 6 7 8 9 11 12 13 14 14
34 32 28 26 25 25 22 20 22 29 39 38 35 31 29 27 24 21 19 17 15 14 14 13 10 9 10 10 9 8 7 6 7 7 7 8 8 9 11 12 14 15 16
38 36 34 31 27 27 26 22 21 21 25 33 40 36 33 30 29 26 24 20 18 17 16 17 15 11 12 13 12 12 10 10 10 9 9 9 10 11 12 13 15 16 17
43 41 38 35 32 30 29 28 26 24 23 23 29 39 37 34 31 27 26 24 22 21 20 18 18 17 14 14 15 15 14 13 13 13 12 12 13 13 13 14 16 17 18
50 47 44 40 37 35 34 32 30 29 27 25 24 27 37 38 34 30 28 27 25 25 23 22 21 20 19 18 18 17 17 17 16 16 16 17 17 17 17 17 17 18 19
53 53 49 46 40 40 38 36 33 31 30 28 24 23 26 33 37 36 33 32 30 28 27 25 25 24 22 21 20 20 20 20 20 19 20 20 19 20 20 20 20 20 20
54 55 55 52 48 43 40 40 37 34 34 31 29 27 25 26 30 35 37 37 35 33 31 29 28 27 25 24 23 23 22 22 23 23 22 22 22 22 22 22 23 23 23
56 56 57 57 53 50 44 41 42 40 37 35 33 31 30 29 27 28 32 37 38 38 36 34 33 30 30 29 27 26 25 25 26 25 25 25 25 25 24 25 25 25 26
59 58 59 59 57 49 50 44 43 42 43 39 38 36 34 33 31 29 29 31 35 39 41 40 36 34 34 33 31 30 29 29 29 28 27 28 27 27 28 28 28 29 30
62 61 60 61 59 57 56 50 45 44 43 44 44 43 38 35 35 31 32 33 34 36 39 41 40 39 37 34 34 33 33 31 31 31 30 30 30 30 31 31 30 31 33
65 65 65 63 62 62 60 57 51 47 47 47 44 44 44 41 38 36 34 33 30 31 34 38 41 43 40 39 36 37 37 36 34 33 33 32 33 33 33 32 32 33 35
65 67 67 67 65 63 63 61 57 55 49 48 47 47 45 42 40 39 37 35 30 30 32 34 37 41 42 44 41 40 41 40 39 37 35 35 36 35 35 35 34 34 36
62 66 69 70 68 66 65 63 61 57 57 49 50 48 45 41 41 41 39 36 35 33 35 37 37 37 39 40 41 42 45 44 42 40 37 38 38 37 36 36 36 35 35
62 65 70 73 72 70 69 67 65 64 60 56 52 52 48 47 43 42 45 41 38 39 39 40 40 38 40 43 49 45 47 50 42 41 42 41 40 40 39 38 39 37 42
69 67 69 74 75 75 74 70 68 67 65 62 59 59 54 52 47 45 45 47 43 41 40 39 39 43 40 46 46 47 51 41 40 45 49 47 44 43 41 41 40 41 48
73 72 72 76 76 77 75 72 70 69 68 67 64 63 58 57 55 54 51 49 47 44 43 42 42 42 47 42 48 45 47 53 51 44 43 47 46 46 43 46 46 48 53
68 70 73 75 77 75 73 73 71 69 68 66 62 61 62 60 59 57 55 53 49 48 47 48 45 48 47 49 54 53 48 52 53 52 56 58 59 55 51 51 52 53 54
59 62 71 72 73 72 71 72 72 71 70 70 67 63 59 60 58 63 56 54 54 53 53 53 54 52 52 54 60 57 51 43 50 57 61 63 64 65 55 59 52 55 52
55 59 62 71 70 70 70 70 72 69 68 66 66 66 66 65 67 64 60 59 61 56 55 55 59 59 55 55 55 55 52 54 48 51 59 65 57 56 58 45 45 40 37
45 51 60 66 70 68 67 66 67 69 67 66 66 65 65 64 64 64 62 63 60 59 59 59 59 57 55 55 55 57 58 58 60 62 58 60 49 42 35 32 32 35 37
34 37 50 60 67 69 67 64 63 64 66 64 61 61 61 61 63 62 62 61 60 62 62 59 59 60 57 59 57 52 53 55 59 66 60 39 38 34 34 37 37 40 40

GFSSE_500_spd_114.txt.gz
Wind_Speed
21 31 31 28 28 27 24 21 19 19 17 15 12 9 7 6 8 8 5 5 4 4 5 5 5 7 6 6 5 4 2 3 4 5 6 6 6 7 7 10 13 13 11
14 17 28 32 31 31 30 28 25 23 21 19 17 14 11 8 7 8 9 5 5 5 6 5 4 5 6 4 4 3 3 2 3 4 5 6 6 6 6 9 11 13 12
17 15 14 19 29 34 35 32 29 27 25 23 21 19 16 13 11 9 9 10 7 6 6 6 6 4 3 4 2 2 2 2 2 3 4 5 6 6 7 8 11 12 12
23 20 18 18 18 20 31 38 35 32 28 27 25 23 21 17 15 12 11 10 12 8 7 8 8 7 4 1 1 0 1 1 1 2 3 5 6 7 8 9 10 11 11
26 24 22 21 19 19 20 23 36 39 35 31 28 26 24 22 19 16 14 13 13 13 10 10 10 9 8 5 3 2 3 3 3 3 3 5 5 7 8 9 10 12 12
30 29 27 23 22 22 20 19 21 32 37 35 32 30 27 25 22 19 18 17 15 15 15 11 10 11 11 9 7 5 5 4 5 5 5 6 6 7 8 10 11 13 13
36 33 31 27 25 24 22 20 19 19 27 35 34 32 31 28 26 23 20 20 17 16 16 17 13 13 13 12 11 10 8 8 7 7 8 8 8 8 9 10 12 13 14
42 38 35 33 30 28 26 23 22 19 18 21 30 35 35 32 29 27 24 22 21 19 18 18 19 16 15 15 14 14 13 12 11 11 11 11 11 11 11 12 13 14 15
47 44 41 38 35 31 30 28 26 24 22 20 20 24 30 35 34 31 29 27 25 24 22 20 19 21 20 18 17 16 17 17 16 15 14 15 15 15 15 15 16 16 17
48 49 46 43 40 34 34 33 31 28 27 25 24 22 23 27 33 34 33 28 28 27 26 24 22 21 23 23 21 20 20 20 20 19 19 18 18 18 19 19 19 20 20
50 50 50 49 46 42 38 37 35 33 31 29 27 26 24 24 25 31 35 34 32 30 28 27 26 25 24 24 25 24 23 23 23 23 22 22 22 21 22 22 21 22 23
51 51 51 51 51 49 46 42 40 38 35 34 31 29 27 25 24 24 29 34 35 35 34 31 30 29 28 27 27 26 25 26 25 25 25 25 25 25 25 25 25 25 26
54 53 53 53 53 52 51 49 45 43 41 39 37 34 32 30 29 27 24 25 31 35 36 36 35 34 32 31 30 29 29 28 27 28 28 28 28 28 28 28 28 28 29
57 56 56 55 55 55 53 53 52 48 45 44 42 40 38 37 32 31 30 30 30 31 33 35 36 36 35 35 33 32 31 31 30 30 31 31 31 31 31 30 30 30 31
57 59 59 59 58 58 56 56 55 54 50 47 46 46 42 41 37 35 35 34 32 33 32 33 34 35 36 37 35 35 34 34 34 34 33 33 33 34 33 32 33 33 33
49 57 60 62 62 62 60 58 57 57 53 53 49 47 46 45 43 40 39 38 36 36 35 34 35 36 36 37 37 37 36 37 37 37 37 36 35 36 36 35 35 36 36
49 52 53 62 64 65 64 62 60 57 55 52 52 49 48 49 48 43 43 43 42 39 37 35 33 33 33 33 36 38 40 40 41 40 40 40 39 38 39 38 39 39 38
57 55 53 55 61 67 67 66 64 63 62 62 60 54 53 51 52 49 47 47 46 43 42 39 35 35 36 34 33 33 34 38 43 44 42 44 45 42 41 41 41 42 42
62 64 62 58 54 59 68 69 68 67 66 65 64 62 56 54 47 51 47 47 45 44 42 39 37 40 41 35 35 38 36 38 37 39 41 46 49 46 44 45 44 45 44
64 66 68 66 62 58 59 67 71 70 69 66 66 65 63 58 55 55 51 47 45 43 45 42 41 44 40 36 39 41 39 38 43 47 46 46 47 49 47 48 47 48 50
68 70 71 72 69 67 64 61 66 71 71 69 68 66 63 59 52 49 54 50 47 44 48 51 47 45 43 42 45 41 42 44 42 43 38 47 46 51 55 50 49 51 51
74 74 75 76 77 75 71 69 65 69 71 72 70 67 68 63 60 59 43 54 53 48 49 49 47 47 48 46 48 46 47 48 46 47 49 49 49 53 58 55 52 57 61
69 73 76 79 79 79 79 76 71 69 72 74 74 71 68 69 68 59 58 53 56 56 55 55 52 50 50 53 53 53 52 51 55 55 59 56 57 54 51 53 54 56 62
52 62 65 66 66 71 76 79 77 73 70 71 71 70 69 69 68 71 71 68 64 62 54 57 56 53 55 56 58 59 59 57 57 60 59 57 56 57 55 52 55 52 48
51 46 48 56 60 61 62 69 74 72 71 70 71 70 70 69 70 69 66 64 61 60 61 62 58 58 57 57 60 61 64 63 61 62 58 56 55 58 58 58 54 40 34
44 46 43 44 50 55 58 62 68 70 68 68 69 69 69 69 68 69 66 67 65 65 68 64 65 61 60 60 64 63 64 61 62 64 61 59 55 57 56 56 47 35 35

GFSSE_500_spd_117.txt.gz
Wind_Speed
14 24 31 29 28 26 24 22 19 16 15 13 12 9 7 6 8 9 8 6 5 6 6 5 5 5 4 4 3 3 2 1 2 3 3 4 4 5 5 7 10 12 12
14 13 22 31 32 30 28 27 25 22 19 18 17 14 12 9 8 8 10 9 8 7 7 7 5 4 4 3 3 2 2 2 1 1 2 3 3 4 5 6 8 10 10
18 14 13 16 27 33 33 32 29 28 26 23 21 20 17 15 11 10 9 12 11 9 9 9 8 5 4 3 2 2 2 2 2 1 1 2 4 4 5 6 8 9 10
22 20 18 16 16 17 23 30 33 33 31 27 25 24 22 20 17 14 13 12 14 12 10 11 10 9 6 4 3 3 3 3 3 2 2 3 4 5 6 7 9 10 10
27 25 23 22 21 18 18 19 23 32 35 32 30 28 26 24 22 19 17 15 14 15 13 12 12 12 11 8 6 4 5 5 5 5 5 5 5 6 7 8 9 10 11
32 30 28 25 23 22 22 20 19 19 25 33 35 32 29 26 25 23 21 19 17 15 17 15 14 14 14 13 11 9 7 7 7 7 7 7 7 7 8 9 9 10 11
38 35 32 29 27 26 24 23 21 19 19 22 31 33 31 28 27 26 23 22 21 19 17 18 18 16 17 17 16 14 12 11 10 10 9 9 9 10 10 11 11 12 12
41 40 37 35 32 30 28 26 24 23 20 19 19 27 32 31 30 28 27 26 24 22 21 19 19 20 17 18 18 18 17 16 14 13 13 13 12 13 13 14 14 14 15
43 42 42 40 37 34 32 31 28 26 24 22 20 19 21 28 32 32 31 30 28 27 24 23 22 21 22 21 19 20 20 20 19 19 18 17 17 17 17 17 18 19 19
45 45 46 44 42 40 36 35 34 31 27 26 25 22 22 20 23 29 33 34 32 31 29 27 26 24 23 24 24 22 22 22 23 23 22 22 21 21 21 21 21 22 22
46 47 47 46 46 45 42 39 36 36 33 31 29 27 26 26 26 25 27 31 34 34 31 29 29 28 27 26 25 26 26 25 24 24 25 26 25 25 24 24 24 24 25
50 49 49 48 48 48 46 44 42 41 37 36 34 32 30 28 29 27 25 27 28 33 35 34 32 30 29 28 28 27 27 28 27 26 26 27 28 28 28 27 26 26 27
52 52 51 50 50 50 50 47 47 46 44 40 38 37 35 33 31 31 28 25 25 28 33 35 37 37 35 33 32 31 30 29 30 30 29 28 29 29 30 31 30 30 30
52 54 54 54 53 52 53 52 50 50 48 47 43 42 41 39 36 35 34 32 29 26 28 30 34 37 37 35 34 33 33 32 31 31 32 32 31 30 31 32 33 33 33
38 46 54 56 56 56 56 55 54 53 52 50 48 46 44 43 41 41 40 36 35 32 32 32 32 34 35 35 35 35 35 35 34 34 34 33 34 34 34 34 34 35 36
42 41 43 48 54 59 59 58 57 56 55 55 53 51 48 46 45 47 45 41 39 36 37 36 36 35 35 35 35 35 35 35 35 36 37 36 36 35 37 38 38 38 38
50 50 48 47 47 49 57 62 61 60 57 57 57 55 54 52 51 49 47 48 44 42 41 40 39 40 37 36 36 35 34 35 36 38 38 39 39 39 39 39 42 43 43
54 55 56 55 54 51 50 55 62 63 63 61 60 58 56 54 52 50 47 47 46 44 42 39 41 41 38 38 37 35 34 32 33 33 36 40 43 43 43 44 45 48 49
57 58 59 61 60 59 58 54 55 59 64 65 64 62 59 55 52 49 46 48 48 45 43 43 44 41 42 42 40 40 36 34 36 37 36 35 37 38 40 42 46 48 49
60 61 62 64 65 65 65 63 61 58 58 63 67 65 64 62 62 56 46 44 47 46 45 46 45 44 44 44 43 41 41 40 41 38 39 41 42 42 45 46 43 44 47
64 66 66 68 70 70 69 68 68 66 59 58 62 65 66 65 64 63 62 51 45 51 47 51 50 44 46 48 46 40 44 43 41 37 42 43 45 43 45 44 46 45 49
70 71 72 72 73 73 73 73 71 71 66 62 60 62 65 66 68 67 67 56 42 39 51 53 54 49 45 47 47 47 43 46 42 46 46 44 47 48 50 54 55 53 55
77 78 78 77 77 78 78 79 78 75 72 70 65 60 62 66 69 69 66 64 60 59 49 47 53 52 48 50 49 50 49 49 51 50 52 50 50 55 56 59 58 60 58
60 66 71 74 81 84 82 82 81 79 75 73 70 65 63 66 68 69 68 67 64 59 55 47 44 52 53 52 54 54 53 53 54 54 56 55 57 60 61 62 63 58 54
47 50 57 63 61 64 74 81 82 83 79 76 74 70 68 65 66 68 70 69 69 69 65 71 54 56 58 62 58 55 52 55 60 61 59 63 61 64 68 63 62 59 53
45 47 46 54 59 58 54 60 70 74 76 75 74 72 70 68 68 69 70 70 71 69 68 70 70 67 65 65 59 60 60 58 61 63 68 67 68 65 64 66 64 55 52